[[{"header":{"parameterUnit":"m.s-1","parameterCategory":1,"la1":30.6,"la2":28.766,"lo1":-90.7593,"lo2":-88.6598,"dy":0.0162,"dx":0.0183,"nx":116,"ny":114,"refTime":"2023-05-12T12:00:00:Z","depth":0,"parameterNumber":2,"parameterNumberName":"U-component_of_WINDS"},"data":[0.0,0.0,0.0,0.0,0.0,0.0,0.0,0.0,0.0,0.0,0.0,0.0,0.0,0.0,0.0,0.0,0.0,0.0,0.0,0.0,0.0,0.0,0.0,0.0,0.0,0.0,0.0,0.0,0.0,0.0,0.0,0.0,0.0,0.0,0.0,0.0,0.0,0.0,0.0,0.0,0.0,0.0,0.0,0.0,0.0,0.0,0.0,0.0,0.0,0.0,0.0,0.0,0.0,0.0,0.0,0.0,0.0,0.0,0.0,0.0,0.0,0.0,0.0,0.0,0.0,0.0,0.0,0.0,0.0,0.0,0.0,0.0,0.0,0.0,0.0,0.0,0.0,0.0,0.0,0.0,0.0,0.0,0.0,0.0,0.0,0.0,0.0,0.0,0.0,0.0,0.0,0.0,0.0,0.0,0.0,0.0,0.0,0.0,0.0,0.0,0.0,0.0,0.0,0.0,0.0,0.0,0.0,0.0,0.0,0.0,0.0,0.0,0.0,0.0,0.0,0.0,0.0,0.0,0.0,0.0,0.0,0.0,0.0,0.0,0.0,0.0,0.0,0.0,0.0,0.0,0.0,0.0,0.0,0.0,0.0,0.0,0.0,0.0,0.0,0.0,0.0,0.0,0.0,0.0,0.0,0.0,0.0,0.0,0.0,0.0,0.0,0.0,0.0,0.0,0.0,0.0,0.0,0.0,0.0,0.0,0.0,0.0,0.0,0.0,0.0,0.0,0.0,0.0,0.0,0.0,0.0,0.0,0.0,0.0,0.0,0.0,0.0,0.0,0.0,0.0,0.0,0.0,0.0,0.0,0.0,0.0,0.0,0.0,0.0,0.0,0.0,0.0,0.0,0.0,0.0,0.0,0.0,0.0,0.0,0.0,0.0,0.0,0.0,0.0,0.0,0.0,0.0,0.0,0.0,0.0,0.0,0.0,0.0,0.0,0.0,0.0,0.0,0.0,0.0,0.0,0.0,0.0,0.0,0.0,0.0,0.0,0.0,0.0,0.0,0.0,0.0,0.0,0.0,0.0,0.0,0.0,0.0,0.0,0.0,0.0,0.0,0.0,0.0,0.0,0.0,0.0,0.0,0.0,0.0,0.0,0.0,0.0,0.0,0.0,0.0,0.0,0.0,0.0,0.0,0.0,0.0,0.0,0.0,0.0,0.0,0.0,0.0,0.0,0.0,0.0,0.0,0.0,0.0,0.0,0.0,0.0,0.0,0.0,0.0,0.0,0.0,0.0,0.0,0.0,0.0,0.0,0.0,0.0,0.0,0.0,0.0,0.0,0.0,0.0,0.0,0.0,0.0,0.0,0.0,0.0,0.0,0.0,0.0,0.0,0.0,0.0,0.0,0.0,0.0,0.0,0.0,0.0,0.0,0.0,0.0,0.0,0.0,0.0,0.0,0.0,0.0,0.0,0.0,0.0,0.0,0.0,0.0,0.0,0.0,0.0,0.0,0.0,0.0,0.0,0.0,0.0,0.0,0.0,0.0,0.0,0.0,0.0,0.0,0.0,0.0,0.0,0.0,0.0,0.0,0.0,0.0,0.0,0.0,0.0,0.0,0.0,0.0,0.0,0.0,0.0,0.0,0.0,0.0,0.0,0.0,0.0,0.0,0.0,0.0,0.0,0.0,0.0,0.0,0.0,0.0,0.0,0.0,0.0,0.0,0.0,0.0,0.0,0.0,0.0,0.0,0.0,0.0,0.0,0.0,0.0,0.0,0.0,0.0,0.0,0.0,0.0,0.0,0.0,0.0,0.0,0.0,0.0,0.0,0.0,0.0,0.0,0.0,0.0,0.0,0.0,0.0,0.0,0.0,0.0,0.0,0.0,0.0,0.0,0.0,0.0,0.0,0.0,0.0,0.0,0.0,0.0,0.0,0.0,0.0,0.0,0.0,0.0,0.0,0.0,0.0,0.0,0.0,0.0,0.0,0.0,0.0,0.0,0.0,0.0,0.0,0.0,0.0,0.0,0.0,0.0,0.0,0.0,0.0,0.0,0.0,0.0,0.0,0.0,0.0,0.0,0.0,0.0,0.0,0.0,0.0,0.0,0.0,0.0,0.0,0.0,0.0,0.0,0.0,0.0,0.0,0.0,0.0,0.0,0.0,0.0,0.0,0.0,0.0,0.0,0.0,0.0,0.0,0.0,0.0,0.0,0.0,0.0,0.0,0.0,0.0,0.0,0.0,0.0,0.0,0.0,0.0,0.0,0.0,0.0,0.0,0.0,0.0,0.0,0.0,0.0,0.0,0.0,0.0,0.0,0.0,0.0,0.0,0.0,0.0,0.0,0.0,0.0,0.0,0.0,0.0,0.0,0.0,0.0,0.0,0.0,0.0,0.0,0.0,0.0,0.0,0.0,0.0,0.0,0.0,0.0,0.0,0.0,0.0,0.0,0.0,0.0,0.0,0.0,0.0,0.0,0.0,0.0,0.0,0.0,0.0,0.0,0.0,0.0,0.0,0.0,0.0,0.0,0.0,0.0,0.0,0.0,0.0,0.0,0.0,0.0,0.0,0.0,0.0,0.0,0.0,0.0,0.0,0.0,0.0,0.0,0.0,0.0,0.0,0.0,0.0,0.0,0.0,0.0,0.0,0.0,0.0,0.0,0.0,0.0,0.0,0.0,0.0,0.0,0.0,0.0,0.0,0.0,0.0,0.0,0.0,0.0,0.0,0.0,0.0,0.0,0.0,0.0,0.0,0.0,0.0,0.0,0.0,0.0,0.0,0.0,0.0,0.0,0.0,0.0,0.0,0.0,0.0,0.0,0.0,0.0,0.0,0.0,0.0,0.0,0.0,0.0,0.0,0.0,0.0,0.0,0.0,0.0,0.0,0.0,0.0,0.0,0.0,0.0,0.0,0.0,0.0,0.0,0.0,0.0,0.0,0.0,0.0,0.0,0.0,0.0,0.0,0.0,0.0,0.0,0.0,0.0,0.0,0.0,0.0,0.0,0.0,0.0,0.0,0.0,0.0,0.0,0.0,0.0,0.0,0.0,0.0,0.0,0.0,0.0,0.0,0.0,0.0,0.0,0.0,0.0,0.0,0.0,0.0,0.0,0.0,0.0,0.0,0.0,0.0,0.0,0.0,0.0,0.0,0.0,0.0,0.0,0.0,0.0,0.0,0.0,0.0,0.0,0.0,0.0,0.0,0.0,0.0,0.0,0.0,0.0,0.0,0.0,0.0,0.0,0.0,0.0,0.0,0.0,0.0,0.0,0.0,0.0,0.0,0.0,0.0,0.0,0.0,0.0,0.0,0.0,0.0,0.0,0.0,0.0,0.0,0.0,0.0,0.0,0.0,0.0,0.0,0.0,0.0,0.0,0.0,0.0,0.0,0.0,0.0,0.0,0.0,0.0,0.0,0.0,0.0,0.0,0.0,0.0,0.0,0.0,0.0,0.0,0.0,0.0,0.0,0.0,0.0,0.0,0.0,0.0,0.0,0.0,0.0,0.0,0.0,0.0,0.0,0.0,0.0,0.0,0.0,0.0,0.0,0.0,0.0,0.0,0.0,0.0,0.0,0.0,0.0,0.0,0.0,0.0,0.0,0.0,0.0,0.0,0.0,0.0,0.0,0.0,0.0,0.0,0.0,0.0,0.0,0.0,0.0,0.0,0.0,0.0,0.0,0.0,0.0,0.0,0.0,0.0,0.0,0.0,0.0,0.0,0.0,0.0,0.0,0.0,0.0,0.0,0.0,0.0,0.0,0.0,0.0,0.0,0.0,0.0,0.0,0.0,0.0,0.0,0.0,0.0,0.0,0.0,0.0,0.0,0.0,0.0,0.0,0.0,0.0,0.0,0.0,0.0,0.0,0.0,0.0,0.0,0.0,0.0,0.0,0.0,0.0,0.0,0.0,0.0,0.0,0.0,0.0,0.0,0.0,0.0,0.0,0.0,0.0,0.0,0.0,0.0,0.0,0.0,0.0,0.0,0.0,0.0,0.0,0.0,0.0,0.0,0.0,0.0,0.0,0.0,0.0,0.0,0.0,0.0,0.0,0.0,0.0,0.0,0.0,0.0,0.0,0.0,0.0,0.0,0.0,0.0,0.0,0.0,0.0,0.0,0.0,0.0,0.0,0.0,0.0,0.0,0.0,0.0,0.0,0.0,0.0,0.0,0.0,0.0,0.0,0.0,0.0,0.0,0.0,0.0,0.0,0.0,0.0,0.0,0.0,0.0,0.0,0.0,0.0,0.0,0.0,0.0,0.0,0.0,0.0,0.0,0.0,0.0,0.0,0.0,0.0,0.0,0.0,0.0,0.0,0.0,0.0,0.0,0.0,0.0,0.0,0.0,0.0,0.0,0.0,0.0,0.0,0.0,0.0,0.0,0.0,0.0,0.0,0.0,0.0,0.0,0.0,0.0,0.0,0.0,0.0,0.0,0.0,0.0,0.0,0.0,0.0,0.0,0.0,0.0,0.0,0.0,0.0,0.0,0.0,0.0,0.0,0.0,0.0,0.0,0.0,0.0,0.0,0.0,0.0,0.0,0.0,0.0,0.0,0.0,0.0,0.0,0.0,0.0,0.0,0.0,0.0,0.0,0.0,0.0,0.0,0.0,0.0,0.0,0.0,0.0,0.0,0.0,0.0,0.0,0.0,0.0,0.0,0.0,0.0,0.0,0.0,0.0,0.0,0.0,0.0,0.0,0.0,0.0,0.0,0.0,0.0,0.0,0.0,0.0,0.0,0.0,0.0,0.0,0.0,0.0,0.0,0.0,0.0,0.0,0.0,0.0,0.0,0.0,0.0,0.0,0.0,0.0,0.0,0.0,0.0,0.0,0.0,0.0,0.0,0.0,0.0,0.0,0.0,0.0,0.0,0.0,0.0,0.0,0.0,0.0,0.0,0.0,0.0,0.0,0.0,0.0,0.0,0.0,0.0,0.0,0.0,0.0,0.0,0.0,0.0,0.0,0.0,0.0,0.0,0.0,0.0,0.0,0.0,0.0,0.0,0.0,0.0,0.0,0.0,0.0,0.0,0.0,0.0,0.0,0.0,0.0,0.0,0.0,0.0,0.0,0.0,0.0,0.0,0.0,0.0,0.0,0.0,0.0,0.0,0.0,0.0,0.0,0.0,0.0,0.0,0.0,0.0,0.0,0.0,0.0,0.0,0.0,0.0,0.0,0.0,0.0,0.0,0.0,0.0,0.0,0.0,0.0,0.0,0.0,0.0,0.0,0.0,0.0,0.0,0.0,0.0,0.0,0.0,0.0,0.0,0.0,0.0,0.0,0.0,0.0,0.0,0.0,0.0,0.0,0.0,0.0,0.0,0.0,0.0,0.0,0.0,0.0,0.0,0.0,0.0,0.0,0.0,0.0,0.0,0.0,0.0,0.0,0.0,0.0,0.0,0.0,0.0,0.0,0.0,0.0,0.0,0.0,0.0,0.0,0.0,0.0,0.0,0.0,0.0,0.0,0.0,0.0,0.0,0.0,0.0,0.0,0.0,0.0,0.0,0.0,0.0,0.0,0.0,0.0,0.0,0.0,0.0,0.0,0.0,0.0,0.0,0.0,0.0,0.0,0.0,0.0,0.0,0.0,0.0,0.0,0.0,0.0,0.0,0.0,0.0,0.0,0.0,0.0,0.0,0.0,0.0,0.0,0.0,0.0,0.0,0.0,0.0,0.0,0.0,0.0,0.0,0.0,0.0,0.0,0.0,0.0,0.0,0.0,0.0,0.0,0.0,0.0,0.0,0.0,0.0,0.0,0.0,0.0,0.0,0.0,0.0,0.0,0.0,0.0,0.0,0.0,0.0,0.0,0.0,0.0,0.0,0.0,0.0,0.0,0.0,0.0,0.0,0.0,0.0,0.0,0.0,0.0,0.0,0.0,0.0,0.0,0.0,0.0,0.0,0.0,0.0,0.0,0.0,0.0,0.0,0.0,0.0,0.0,0.0,0.0,0.0,0.0,0.0,0.0,0.0,0.0,0.0,0.0,0.0,0.0,0.0,0.0,0.0,0.0,0.0,0.0,0.0,0.0,0.0,0.0,0.0,0.0,0.0,0.0,0.0,0.0,0.0,0.0,0.0,0.0,0.0,0.0,0.0,0.0,0.0,0.0,0.0,0.0,0.0,0.0,0.0,0.0,-2.0338,0.0,0.0,0.0,0.0,0.0,0.0,0.0,0.0,0.0,0.0,0.0,0.0,0.0,0.0,0.0,0.0,0.0,0.0,0.0,0.0,0.0,0.0,0.0,0.0,0.0,0.0,0.0,0.0,0.0,0.0,0.0,0.0,0.0,0.0,0.0,0.0,0.0,0.0,-2.2519,-2.2734,-2.2691,-2.2519,-2.2691,-2.2617,-2.2227,0.0,0.0,0.0,0.0,0.0,0.0,0.0,0.0,0.0,0.0,0.0,0.0,0.0,0.0,0.0,0.0,0.0,0.0,0.0,0.0,0.0,0.0,0.0,0.0,0.0,0.0,0.0,0.0,0.0,0.0,0.0,0.0,0.0,0.0,0.0,0.0,0.0,0.0,0.0,0.0,0.0,0.0,0.0,0.0,0.0,0.0,0.0,0.0,0.0,0.0,0.0,0.0,0.0,0.0,0.0,0.0,0.0,0.0,0.0,0.0,0.0,0.0,0.0,0.0,0.0,0.0,0.0,0.0,0.0,0.0,0.0,-2.098,0.0,0.0,0.0,0.0,0.0,0.0,0.0,0.0,0.0,0.0,0.0,0.0,0.0,0.0,0.0,0.0,0.0,0.0,0.0,0.0,0.0,0.0,0.0,-1.9238,-1.9492,-1.998,-2.0098,-2.0411,0.0,0.0,0.0,0.0,0.0,0.0,-2.1073,-2.1621,-2.2012,-2.2285,-2.2441,-2.2598,-2.2734,-2.2734,-2.2519,-2.2109,-2.2305,0.0,0.0,0.0,0.0,0.0,0.0,0.0,0.0,0.0,0.0,0.0,0.0,0.0,0.0,0.0,0.0,0.0,0.0,0.0,0.0,0.0,0.0,0.0,0.0,0.0,0.0,0.0,0.0,0.0,0.0,0.0,0.0,0.0,0.0,0.0,0.0,0.0,0.0,0.0,0.0,0.0,0.0,0.0,0.0,0.0,0.0,0.0,0.0,0.0,0.0,0.0,0.0,0.0,0.0,0.0,0.0,0.0,0.0,0.0,0.0,0.0,0.0,0.0,-2.7128,-2.7178,-2.7102,-2.7387,-2.7087,-2.623,-2.4145,-2.2743,-2.201,-2.3163,0.0,0.0,0.0,0.0,0.0,0.0,0.0,0.0,0.0,0.0,0.0,0.0,0.0,0.0,0.0,0.0,0.0,0.0,0.0,0.0,0.0,-1.9062,-1.9646,-2.0449,-2.084,-2.1073,-2.119,0.0,0.0,0.0,0.0,0.0,-2.0703,-2.1465,-2.1719,-2.1366,-2.2148,-2.2891,-2.3613,-2.3613,-2.3398,-2.2906,-2.2266,-2.2168,-2.2519,0.0,0.0,0.0,0.0,0.0,0.0,0.0,0.0,0.0,0.0,0.0,0.0,0.0,0.0,0.0,0.0,0.0,0.0,0.0,0.0,0.0,0.0,0.0,0.0,0.0,0.0,0.0,0.0,0.0,0.0,0.0,0.0,0.0,0.0,0.0,0.0,0.0,0.0,0.0,0.0,0.0,-1.8158,-1.8293,0.0,0.0,0.0,0.0,0.0,0.0,0.0,0.0,0.0,0.0,0.0,0.0,0.0,-2.3931,-2.5504,-2.6894,-2.79,-2.8624,-2.9603,-2.9829,-2.9352,-2.8645,-2.8674,-2.9126,-2.6504,0.0,-2.3613,-2.2575,0.0,0.0,0.0,0.0,0.0,0.0,0.0,0.0,0.0,0.0,0.0,0.0,0.0,0.0,0.0,0.0,0.0,0.0,0.0,0.0,0.0,-1.918,-1.9666,-2.0527,-2.0977,-2.1093,-2.0879,-2.1328,0.0,0.0,0.0,-2.0605,-2.0605,-2.1191,-2.1777,-2.2324,-2.3418,-2.4141,-2.4512,-2.4512,-2.4394,-2.418,-2.334,-2.2793,-2.25,-2.2266,0.0,0.0,0.0,0.0,0.0,0.0,0.0,0.0,0.0,0.0,0.0,0.0,0.0,0.0,0.0,0.0,0.0,0.0,0.0,0.0,0.0,0.0,0.0,0.0,0.0,0.0,0.0,0.0,0.0,0.0,0.0,0.0,0.0,0.0,0.0,0.0,0.0,0.0,0.0,-2.0538,-2.109,-1.9826,-2.1125,-2.1608,0.0,0.0,0.0,0.0,0.0,0.0,0.0,0.0,0.0,-2.4422,-2.4486,-2.5723,-2.8376,-2.9233,-3.0161,-3.126,-3.1763,-3.1863,-3.1637,-3.1563,-3.158,-3.1571,-3.0406,-2.868,-2.6508,-2.4328,-2.3172,-2.2783,0.0,0.0,0.0,0.0,-2.26,-2.1925,0.0,0.0,0.0,0.0,0.0,0.0,0.0,0.0,0.0,0.0,0.0,0.0,-1.9316,-1.9355,-1.9766,-2.0997,-2.1172,-2.1191,-2.1114,-2.1407,-2.1309,-2.0762,-2.0664,-2.0605,-2.0605,-2.1211,-2.2246,-2.3697,-2.4727,-2.541,-2.5771,-2.5625,-2.5566,-2.5527,-2.4785,-2.3848,-2.2793,-2.2148,-2.207,-2.2324,0.0,0.0,0.0,0.0,0.0,0.0,0.0,0.0,0.0,0.0,0.0,0.0,0.0,0.0,0.0,0.0,0.0,0.0,0.0,0.0,0.0,0.0,0.0,0.0,0.0,0.0,0.0,0.0,0.0,0.0,0.0,0.0,0.0,0.0,0.0,0.0,0.0,-2.199,-2.2915,-2.0836,-2.2725,-2.3422,0.0,0.0,0.0,0.0,0.0,0.0,-2.4004,-2.3222,-2.3903,-2.6524,-2.6384,-2.764,-3.0479,-3.1387,-3.2425,-3.3721,-3.3891,-3.3847,-3.3721,-3.4123,-3.4022,-3.3495,-3.3165,-3.1765,-2.9418,-2.6371,-2.4338,-2.3211,-2.3134,-2.3112,-2.3152,-2.3372,-2.2841,-2.2119,0.0,0.0,0.0,0.0,0.0,0.0,0.0,0.0,0.0,0.0,0.0,-1.7545,-1.9648,-1.9531,-2.0137,-2.2227,-2.1658,-2.1522,-2.2363,-2.1289,-2.0801,-2.1151,-2.0801,-2.0605,-2.0605,-2.1797,-2.3281,-2.5008,-2.5469,-2.6328,-2.7571,-2.7109,-2.6914,-2.6894,-2.6465,-2.5312,-2.3652,-2.2402,-2.1894,-2.1914,-2.1894,0.0,0.0,0.0,0.0,0.0,0.0,0.0,0.0,0.0,0.0,0.0,0.0,0.0,0.0,0.0,0.0,0.0,0.0,0.0,0.0,0.0,0.0,0.0,0.0,0.0,0.0,0.0,0.0,0.0,0.0,0.0,0.0,0.0,0.0,0.0,0.0,0.0,0.0,-1.9588,-2.206,0.0,0.0,0.0,0.0,-2.2906,-2.3418,-2.3893,-2.4343,-2.4734,-2.5016,-2.5204,-2.7782,-2.9531,-3.0211,-3.3077,-3.4785,-3.5382,-3.5956,-3.5931,-3.5382,-3.5408,-3.5107,-3.456,-3.3392,-3.2528,-3.1656,-2.7996,-2.5423,-2.3718,-2.3268,-2.3143,-2.3299,-2.4038,-2.3552,-2.2512,0.0,0.0,0.0,0.0,0.0,0.0,0.0,0.0,-1.584,-1.6804,-1.7506,-1.8637,-2.0508,-2.1113,-2.1777,-2.2789,-2.2594,-2.2321,-2.2129,-2.168,-2.1484,-2.1641,-2.123,-2.1387,-2.2249,-2.2969,-2.418,-2.5918,-2.6621,-2.7344,-2.8066,-2.791,-2.7832,-2.7812,-2.7402,-2.6699,-2.5723,-2.3594,-2.2539,-2.2207,-2.1367,-2.1543,0.0,0.0,0.0,0.0,0.0,0.0,0.0,0.0,0.0,0.0,0.0,0.0,0.0,0.0,0.0,0.0,0.0,0.0,0.0,0.0,0.0,0.0,0.0,0.0,0.0,0.0,0.0,0.0,0.0,0.0,0.0,0.0,0.0,0.0,0.0,0.0,0.0,-2.3909,-2.5409,0.0,-2.3668,-2.4865,-2.5488,-2.4832,-2.6101,-2.6642,-2.6104,-2.7409,-2.8522,-2.9311,-3.1513,-3.3339,-3.4702,-3.5757,-3.6408,-3.6609,-3.6784,-3.6609,-3.6081,-3.6081,-3.578,-3.5207,-3.4768,-3.3358,-3.1201,-2.9602,-2.767,-2.5731,-2.5347,-2.4673,-2.4016,-2.4303,-2.4107,-2.3756,0.0,0.0,0.0,0.0,0.0,0.0,0.0,0.0,-1.541,-1.6551,-1.7564,-1.8948,-2.0976,-2.1697,-2.2422,-2.3237,-2.2789,-2.234,-2.2109,-2.1543,-2.1348,-2.166,-2.1523,-2.1992,-2.3125,-2.4004,-2.5156,-2.6602,-2.7461,-2.8027,-2.8301,-2.8301,-2.8301,-2.8281,-2.8008,-2.7637,-2.7109,-2.5234,-2.3822,-2.2852,-2.1836,-2.2031,-2.2812,0.0,0.0,0.0,0.0,0.0,0.0,0.0,0.0,0.0,0.0,0.0,0.0,0.0,0.0,0.0,0.0,0.0,0.0,0.0,0.0,0.0,0.0,0.0,0.0,0.0,0.0,0.0,0.0,0.0,0.0,0.0,0.0,0.0,0.0,-2.6455,-2.8008,-2.7377,-2.862,-2.8907,-2.7378,-2.8502,-2.8988,-2.811,-2.9394,-2.9963,-2.9405,-3.0572,-3.1644,-3.2454,-3.4126,-3.55,-3.6505,-3.7367,-3.7462,-3.691,-3.7287,-3.7086,-3.6405,-3.6405,-3.6157,-3.5805,-3.5805,-3.4524,-3.2393,-3.1926,-3.0327,-2.8172,-2.7331,-2.611,-2.4957,-2.5965,-2.5869,-2.5237,0.0,0.0,0.0,0.0,0.0,0.0,0.0,-1.4629,-1.5693,-1.659,-1.7148,-1.8418,-2.0917,-2.1249,-2.1951,-2.3652,-2.2227,-2.158,-2.2461,-2.0879,-2.0274,-2.119,-2.1699,-2.2363,-2.3179,-2.4855,-2.6142,-2.7051,-2.7891,-2.8301,-2.8301,-2.8301,-2.8301,-2.8301,-2.8301,-2.8066,-2.7708,-2.7226,-2.584,-2.3887,-2.3379,-2.3418,-2.375,0.0,0.0,0.0,0.0,0.0,0.0,0.0,0.0,0.0,0.0,0.0,0.0,0.0,0.0,0.0,0.0,0.0,0.0,0.0,0.0,0.0,0.0,0.0,0.0,0.0,0.0,0.0,0.0,0.0,0.0,0.0,0.0,0.0,-2.4945,-2.8378,-3.0678,-2.9529,-3.129,-3.2334,-3.1558,-3.1971,-3.2423,-3.2755,-3.3203,-3.3627,-3.3997,-3.4095,-3.4095,-3.4072,-3.5395,-3.5845,-3.5344,-3.769,-3.804,-3.6411,-3.7513,-3.7389,-3.6288,-3.631,-3.631,-3.6263,-3.6263,-3.5915,-3.5298,-3.4794,-3.3073,-3.0611,-2.9069,-2.7344,-2.6093,-2.899,-2.8696,-2.6798,0.0,0.0,0.0,0.0,0.0,0.0,-1.3203,-1.4222,-1.5391,-1.6551,-1.791,-1.9394,-2.1015,-2.2344,-2.3281,-2.375,-2.2519,-2.1934,-2.248,-2.0879,-2.0586,-2.209,-2.2871,-2.3965,-2.5469,-2.5957,-2.6777,-2.7949,-2.8184,-2.8301,-2.8301,-2.8301,-2.8301,-2.8301,-2.8301,-2.8223,-2.8105,-2.7988,-2.7598,-2.6875,-2.4883,-2.3965,-2.375,0.0,0.0,0.0,0.0,0.0,0.0,0.0,0.0,0.0,0.0,0.0,0.0,0.0,0.0,0.0,0.0,0.0,0.0,0.0,0.0,0.0,0.0,0.0,0.0,0.0,0.0,0.0,0.0,0.0,0.0,0.0,-2.8034,-3.0695,-3.0285,-3.2017,-3.3511,-3.3931,-3.4668,-3.4724,-3.3787,-3.5468,-3.5905,-3.42,-3.5508,-3.5799,-3.4508,-3.5756,-3.6362,-3.6038,-3.7378,-3.8212,-3.846,-3.8742,-3.8139,-3.6611,-3.7568,-3.6552,-3.3935,-3.465,-3.441,-3.3429,-3.3429,-3.2814,-3.1683,-3.1268,-3.0099,-2.8645,-2.9273,-2.8187,-2.631,-2.7149,-2.6826,-2.6008,0.0,0.0,0.0,0.0,0.0,0.0,-1.3476,-1.4399,-1.5391,-1.6328,-1.7949,-1.9512,-2.082,-2.2168,-2.3066,-2.3242,-2.2422,-2.1758,-2.1445,-2.0781,-2.1112,-2.2652,-2.3769,-2.498,-2.6367,-2.6738,-2.7363,-2.8301,-2.8301,-2.8301,-2.8301,-2.8301,-2.8301,-2.8301,-2.8301,-2.8301,-2.8301,-2.8301,-2.8398,-2.8418,-2.6914,-2.6055,-2.5566,-2.4543,-2.4407,-2.4641,-2.4082,-2.4219,-2.4551,-2.3613,0.0,0.0,0.0,0.0,0.0,0.0,0.0,0.0,0.0,0.0,0.0,0.0,0.0,0.0,0.0,0.0,0.0,0.0,0.0,0.0,0.0,0.0,0.0,0.0,-3.0209,-3.3388,-3.4599,-3.5458,-3.6236,-3.7067,-3.7294,-3.74,-3.7416,-3.8725,-3.8954,-3.75,-3.8268,-3.8277,-3.7145,-3.793,-3.8331,-3.8014,-3.8812,-3.8989,-3.8447,-3.8374,-3.7332,-3.5399,-3.6161,-3.5367,-3.3257,-3.381,-3.3622,-3.2833,-3.2683,-3.2134,-3.137,-3.0701,-2.9812,0.0,0.0,0.0,0.0,0.0,-2.6746,-2.6476,0.0,0.0,0.0,0.0,0.0,0.0,-1.4007,-1.4835,-1.5566,-1.6026,-1.7519,-1.9004,-2.0194,-2.1153,-2.1836,-2.2246,-2.1914,-2.123,-2.0195,-2.0917,-2.197,-2.3257,-2.459,-2.5684,-2.6523,-2.7376,-2.791,-2.8301,-2.8301,-2.8301,-2.8301,-2.8301,-2.8301,-2.8301,-2.8301,-2.8301,-2.8301,-2.8301,-2.8535,-2.8906,-2.8867,-2.8594,-2.8066,-2.6582,-2.6317,-2.6777,-2.6025,-2.5586,-2.5262,-2.4727,0.0,0.0,0.0,0.0,0.0,0.0,0.0,0.0,0.0,0.0,0.0,0.0,0.0,0.0,0.0,0.0,0.0,0.0,0.0,0.0,0.0,0.0,0.0,0.0,-3.2411,-3.5314,-3.77,-3.8342,-3.8752,-3.9275,-3.9474,-4.0044,-4.1268,-4.1426,-4.1451,-4.1376,-4.0927,-4.0576,-4.0526,-4.0049,0.0,0.0,0.0,-3.8622,-3.6839,-3.7133,-3.6024,-3.3542,-3.4133,-3.3981,-3.3241,-3.3334,-3.3259,-3.3131,-3.2765,-3.2619,-3.2487,-3.1576,-3.0715,-2.9901,-2.914,-2.7882,-2.6556,-2.7229,-2.7452,-2.741,0.0,0.0,0.0,0.0,0.0,0.0,-1.4087,-1.4835,-1.5566,-1.6026,-1.7266,-1.8223,-1.8477,-1.957,-2.0469,-2.0938,-2.0547,-2.0644,-2.1445,-2.2262,-2.334,-2.4648,-2.5937,-2.6875,-2.7454,-2.791,-2.8203,-2.8301,-2.8301,-2.8301,-2.8301,-2.8301,-2.8301,-2.8301,-2.8301,-2.8301,-2.8301,-2.8301,-2.8535,-2.8887,-2.8555,-2.8164,-2.7793,-2.7793,-2.7051,-2.5966,-2.6191,-2.6426,-2.6523,-2.5742,-2.5791,-2.6074,-2.4922,-2.4102,0.0,0.0,0.0,0.0,0.0,0.0,0.0,0.0,0.0,0.0,0.0,0.0,0.0,0.0,0.0,0.0,0.0,0.0,0.0,-2.9327,-3.3412,-3.6692,-3.7564,-3.9114,-4.0331,-4.0809,-4.1698,-4.2182,-4.2032,-4.2409,-4.2484,-4.2032,-4.148,-4.0924,-4.0551,-4.0425,-4.0149,-3.9697,-3.853,-3.7748,-3.7363,-3.6279,-3.4847,-3.3197,0.0,0.0,-3.0866,-3.1642,-3.142,-3.0364,-3.0284,-3.0043,-2.9681,-2.9467,-2.894,-2.8172,-2.7994,-2.7523,-2.6836,-2.6705,-2.6359,-2.6062,0.0,0.0,0.0,0.0,0.0,0.0,-1.4075,-1.4687,-1.5332,-1.6007,-1.6816,-1.7539,-1.7969,-1.8574,-1.9043,-1.9277,-1.9277,-2.0117,-2.207,-2.3184,-2.4551,-2.6339,-2.7187,-2.7851,-2.8281,-2.8301,-2.8301,-2.8301,-2.8301,-2.8301,-2.8301,-2.8301,-2.8301,-2.8301,-2.8516,-2.8496,-2.832,-2.875,-2.9043,-2.9219,-2.9023,-2.8809,-2.8648,-2.8379,-2.7891,-2.7324,-2.7344,-2.7207,-2.6953,-2.6523,-2.623,-2.5918,-2.5321,-2.4473,-2.3789,0.0,0.0,0.0,0.0,0.0,0.0,0.0,0.0,0.0,0.0,0.0,0.0,0.0,0.0,-2.6875,-2.7539,0.0,-2.9941,-3.1016,-3.4084,-3.6519,-3.698,-3.8402,-4.0208,-4.2307,-4.2337,-4.2389,-4.2955,-4.3212,-4.3162,-4.2665,-4.2057,-4.163,-4.1354,-4.0827,-4.04,-4.0124,-3.8441,-3.7133,-3.6433,-3.4958,-3.3473,-3.1977,-3.2473,-3.1917,-3.0585,-3.1034,-3.0877,-3.0215,-2.998,-2.9766,-2.9531,-2.9101,-2.8555,-2.7988,-2.7988,-2.7461,-2.668,-2.6465,-2.6113,-2.5693,0.0,0.0,0.0,0.0,0.0,0.0,0.0,-1.4512,-1.5087,-1.587,-1.6328,-1.6836,-1.7441,-1.7578,-1.7695,-1.7871,-1.8461,-1.9789,-2.1943,-2.3635,-2.5333,-2.711,-2.7902,-2.8457,-2.8789,-2.8457,-2.8301,-2.8301,-2.8301,-2.834,-2.8418,-2.8418,-2.8457,-2.8555,-2.8887,-2.8848,-2.8594,-2.9277,-2.9531,-2.9453,-2.9453,-2.9453,-2.9355,-2.8496,-2.8437,-2.875,-2.8418,-2.7637,-2.6777,-2.6855,-2.6074,-2.5145,-2.5321,-2.4727,-2.4043,-2.4043,-2.3613,0.0,0.0,0.0,0.0,0.0,0.0,0.0,0.0,-2.6211,-2.6777,-2.7812,-2.8555,-2.9258,-2.9998,-3.1074,-3.2109,-3.2812,-3.4635,-3.6058,-3.6289,-3.714,-3.8999,-4.2461,-4.1987,-4.2117,-4.3919,-4.394,-4.3664,-4.3313,-4.274,-4.2313,-4.2213,-4.1329,-4.0752,-4.0526,-3.834,-3.658,-3.5288,-3.3586,-3.2092,-3.0898,-3.0898,-3.0898,-3.0898,-3.0898,-3.0898,-3.0859,-3.0391,-3.0195,-3.0137,-2.9277,-2.8711,-2.8398,-2.832,-2.7617,-2.6621,-2.6543,-2.6191,-2.5693,0.0,0.0,0.0,0.0,0.0,0.0,0.0,0.0,-1.4941,-1.543,-1.5889,-1.6065,-1.5742,-1.6055,-1.6633,-1.7383,-1.8867,-2.0021,-2.0703,-2.345,-2.512,-2.5307,-2.7252,-2.832,-2.8359,-2.832,-2.8301,-2.8301,-2.8301,-2.8476,-2.8848,-2.8848,-2.9062,-2.9489,-2.9473,-2.9528,-2.9489,-2.9587,-2.9355,-2.8984,-2.8984,-2.8984,-2.8906,-2.8047,-2.7988,-2.8359,-2.832,-2.7246,-2.5888,-2.6328,-2.584,-2.5262,-2.5996,-2.5644,-2.4969,-2.4969,-2.4127,-2.3286,-2.3613,-2.4023,-2.4707,-2.6269,-2.6191,-2.6668,0.0,-3.0176,-2.9609,-3.125,-3.168,-3.1758,-3.1855,-3.2617,-3.3242,-3.334,-3.5062,-3.6268,-3.5932,-3.6011,-3.6932,-3.9258,-4.0644,-4.2407,-4.5078,-4.4392,-4.3991,-4.4418,-4.3463,-4.2715,-4.2238,-4.2087,-4.153,-4.0551,-3.7754,-3.5959,-3.5288,-3.255,-3.1054,-3.0898,-3.0898,-3.0898,-3.0898,-3.0898,-3.0898,-3.0859,-3.0391,-3.0195,-3.0137,-2.9277,-2.8887,-2.8809,-2.8437,-2.7969,-2.7532,-2.709,-2.6426,-2.5693,0.0,0.0,0.0,0.0,0.0,0.0,0.0,0.0,0.0,-1.5733,-1.5723,-1.5703,-1.5811,-1.5723,-1.584,-1.6211,-1.8027,-1.956,-2.0523,-2.3654,-2.5769,-2.6527,-2.8009,-2.88,-2.8652,-2.8418,-2.8418,-2.8652,-2.8418,-2.8633,-2.9297,-2.8789,-2.8789,-2.9199,-2.9199,-2.9062,-2.8867,-2.9609,-2.9551,-2.8945,-2.9199,-2.9141,-2.8789,-2.7695,-2.7246,-2.7187,-2.7187,-2.6387,0.0,-2.5566,-2.5419,-2.5184,-2.5556,-2.5195,-2.4687,-2.4687,-2.4316,-2.4043,-2.4727,-2.541,-2.6094,-2.6836,-2.7891,-2.9141,-3.0664,-3.1055,-3.1426,-3.2637,-3.3301,-3.3633,-3.3633,-3.4355,-3.4863,-3.4609,-3.5295,-3.569,-3.5208,-3.4705,-3.5314,-3.7754,-3.7665,-3.8866,-4.2753,-4.3524,-4.3765,-4.3664,-4.3237,-4.2526,-4.133,-4.0981,-4.0057,-3.8327,-3.6204,-3.4769,-3.4035,-3.2183,-3.1133,-3.0898,-3.0898,-3.0898,-3.0898,-3.0898,-3.0898,-3.0879,-3.0684,-3.0312,-2.9805,-2.9453,-2.9004,-2.8535,-2.8359,-2.8027,-2.7689,-2.7461,-2.7012,-2.6395,0.0,0.0,0.0,0.0,0.0,0.0,0.0,0.0,0.0,0.0,-1.5605,-1.5527,-1.587,-1.5605,-1.541,-1.541,-1.7135,-1.865,-1.9621,-2.2906,-2.5276,-2.6346,-2.7805,-2.8604,-2.8574,-2.8398,-2.8437,-2.875,-2.8437,-2.8672,-2.9375,-2.875,-2.8691,-2.9101,-2.9101,-2.8926,-2.8711,-2.9629,-2.959,-2.8945,-2.9141,-2.8887,-2.8262,-2.6973,-2.6211,-2.584,-2.584,-2.5215,-2.4375,-2.4492,-2.4453,-2.4414,-2.4832,-2.4668,-2.4473,-2.4707,-2.4687,-2.4746,-2.5371,-2.6269,-2.7148,-2.7734,-2.9492,-3.1133,-3.1387,-3.2187,-3.3066,-3.3809,-3.4453,-3.4824,-3.457,-3.5156,-3.5566,-3.5254,-3.5195,-3.5171,-3.5156,-3.4142,-3.4182,-3.6295,-3.5232,-3.5676,-3.917,-4.1109,-4.1997,-4.1728,-4.1728,-4.1191,-3.9989,-3.958,-3.862,-3.6969,-3.5457,-3.419,-3.3266,-3.2094,-3.1309,-3.0898,-3.0898,-3.0898,-3.0898,-3.0898,-3.0898,-3.0898,-3.0898,-3.0449,-2.9726,-2.9665,-2.9141,-2.8457,-2.834,-2.8105,-2.7885,-2.7885,-2.7422,-2.6797,0.0,0.0,0.0,0.0,0.0,0.0,0.0,0.0,0.0,0.0,0.0,0.0,0.0,-1.541,-1.541,-1.541,-1.6641,-1.7438,-1.7395,-2.0677,-2.2764,-2.3136,-2.5648,-2.7266,-2.7748,-2.8086,-2.8301,-2.832,-2.8301,-2.8516,-2.8945,-2.8906,-2.9141,-2.9551,-2.9551,-2.9607,-2.9531,-2.9626,-2.9336,-2.8887,-2.8496,-2.7832,-2.6934,-2.5625,-2.4863,-2.4473,-2.4473,-2.3652,-2.2656,-2.3023,-2.2886,-2.2812,-2.4043,-2.4434,-2.459,-2.5401,-2.5391,-2.5106,-2.5125,-2.6035,-2.7519,-2.959,-3.0801,-3.2031,-3.4101,-3.459,-3.4766,-3.5234,-3.5351,-3.5117,-3.4258,-3.4453,-3.4726,-3.4726,-3.4726,-3.5072,-3.6121,-3.4622,-3.3647,-3.4411,-3.418,-3.4133,-3.4677,-3.656,-3.8024,-3.8512,-3.8439,-3.8342,-3.8283,-3.826,-3.7977,-3.7426,-3.5929,-3.4652,-3.367,-3.2234,-3.1309,-3.0898,-3.0898,-3.0898,-3.0898,-3.0898,-3.0898,-3.0898,-3.0898,-3.0625,-3.0137,-2.9726,-2.9297,-2.8867,-2.8457,-2.8281,-2.8281,-2.8281,-2.748,-2.6406,0.0,0.0,0.0,0.0,0.0,0.0,0.0,0.0,0.0,0.0,0.0,0.0,0.0,0.0,0.0,0.0,-1.6317,-1.7166,-1.7731,-2.0487,-2.2248,-2.2637,-2.4918,-2.6094,-2.5986,-2.604,-2.6473,-2.7441,-2.7168,-2.7539,-2.8496,-2.8223,-2.832,-2.873,-2.873,-2.873,-2.873,-2.9023,-2.873,-2.8066,-2.793,-2.7363,-2.6465,-2.5137,-2.4375,-2.3965,0.0,-2.3257,-2.2867,-2.2773,-2.2769,-2.2906,-2.3105,-2.3296,-2.3744,-2.4961,-2.5243,-2.5497,-2.7168,-2.8359,-2.9648,-3.1797,-3.2988,-3.3965,-3.5273,-3.5371,-3.5117,-3.4961,-3.4258,-3.3574,-3.3281,-3.3105,-3.3301,-3.4141,-3.4785,-3.5198,-3.5246,-3.4936,-3.4477,-3.3862,-3.3168,-3.2847,-3.297,-3.5294,-3.7486,-3.9312,-3.8455,-3.7946,-3.8201,-3.7183,-3.59,-3.439,-3.4124,-3.3415,-3.2254,-3.2097,-3.1601,-3.0898,-3.0898,-3.0898,-3.0898,-3.0898,-3.0898,-3.0898,-3.0898,-3.0625,-3.0156,-2.9746,-2.9316,-2.8887,-2.8457,-2.8301,-2.8301,-2.8301,-2.7851,-2.7187,0.0,0.0,0.0,0.0,0.0,0.0,0.0,0.0,0.0,0.0,0.0,0.0,0.0,0.0,0.0,0.0,0.0,-1.659,-1.7467,-1.9394,-2.082,-2.1562,-2.3359,-2.4297,-2.416,-2.4214,-2.4716,-2.5625,-2.5527,-2.5879,-2.668,-2.6769,-2.6926,-2.7148,-2.7305,-2.7383,-2.7402,-2.7676,-2.7285,-2.6504,-2.6504,-2.5898,-2.4902,-2.3887,-2.3437,0.0,-2.2852,-2.2847,-2.3062,-2.2789,-2.2867,-2.3042,-2.2812,-2.3242,-2.3984,-2.4871,-2.5654,-2.6719,-2.9004,-3.0254,-3.1426,-3.3594,-3.4551,-3.5098,-3.5664,-3.5469,-3.4844,-3.3789,-3.2793,-3.1914,-3.1309,-3.0976,-3.1309,-3.291,-3.3516,-3.4177,-3.5306,-3.4877,-3.4501,-3.4526,-3.3156,-3.2236,-3.2418,-3.3717,-3.5337,-3.7054,-3.6513,-3.6239,-3.6456,-3.5665,-3.4528,-3.3027,-3.3437,-3.3105,-3.1992,-3.2109,-3.1738,-3.0898,-3.1055,-3.1035,-3.0898,-3.0898,-3.0898,-3.0898,-3.0898,-3.0625,-3.0156,-2.9746,-2.9316,-2.8887,-2.8457,-2.8301,-2.8301,-2.8301,-2.8027,-2.765,0.0,0.0,0.0,0.0,0.0,0.0,0.0,0.0,0.0,0.0,0.0,0.0,0.0,0.0,0.0,0.0,0.0,0.0,-1.6609,-1.75,-1.8516,-1.9727,-2.1055,-2.1934,-2.2305,-2.2711,-2.2945,-2.2964,-2.3437,-2.3672,-2.3711,-2.4643,-2.5036,-2.5008,-2.5526,-2.5673,-2.5596,-2.5664,-2.5176,-2.4375,-2.4355,-2.3613,-2.2461,-2.2051,-2.2148,-2.2461,-2.207,-2.2441,-2.3101,-2.3101,-2.312,-2.3159,-2.3179,-2.4102,-2.5204,-2.5282,-2.6758,-2.8809,-3.0566,-3.1699,-3.2871,-3.4961,-3.5449,-3.541,-3.5371,-3.4922,-3.3945,-3.1855,-3.1016,-3.0156,-2.8496,-2.8223,-2.8965,-3.1133,-3.1269,-3.2475,-3.6284,-3.4639,-3.3865,-3.6018,-3.3999,-3.25,-3.2851,-3.2148,-3.1855,-3.2266,-3.2969,-3.3418,-3.3603,-3.3951,-3.3906,-3.3476,-3.3867,-3.3652,-3.2793,-3.2363,-3.1719,-3.0918,-3.1309,-3.1269,-3.0898,-3.0898,-3.0898,-3.0898,-3.0898,-3.0625,-3.0156,-2.9746,-2.9316,-2.8887,-2.8457,-2.8301,-2.8301,-2.8301,-2.8047,-2.7637,0.0,0.0,0.0,0.0,0.0,0.0,0.0,0.0,0.0,0.0,0.0,0.0,0.0,0.0,0.0,0.0,0.0,0.0,-1.6222,-1.7051,-1.7695,-1.8008,-1.9258,-1.9844,-1.9592,-2.0313,-2.0898,-2.123,-2.168,-2.2051,-2.2425,-2.3579,-2.3777,-2.3247,-2.536,-2.5554,-2.4343,-2.5375,-2.5103,-2.3926,-2.3613,-2.3086,-2.2461,-2.2051,-2.2148,-2.25,-2.2383,-2.2695,-2.3101,-2.3101,-2.351,-2.4141,-2.4473,-2.5254,-2.6309,-2.7559,-2.9023,-3.0664,-3.2715,-3.4121,-3.5332,-3.6523,-3.6328,-3.5684,-3.5019,-3.3555,-3.1894,-3.0371,-2.8711,-2.7402,-2.6953,-2.7402,-2.8535,-3.0703,-3.2559,-3.4309,-3.6003,-3.6416,-3.6367,-3.5686,-3.5303,-3.4824,-3.4258,-3.4023,-3.3926,-3.4043,-3.3379,-3.3925,-3.6074,-3.5102,-3.4336,-3.3926,-3.4023,-3.3652,-3.2793,-3.2051,-3.1582,-3.1348,-3.1152,-3.0996,-3.0898,-3.0898,-3.0898,-3.0898,-3.0898,-3.0625,-3.0156,-2.9746,-2.9316,-2.8887,-2.8457,-2.8301,-2.8301,-2.8301,-2.8223,-2.8066,0.0,0.0,0.0,0.0,0.0,0.0,0.0,0.0,0.0,0.0,0.0,0.0,0.0,0.0,0.0,0.0,0.0,0.0,0.0,-1.6457,-1.6829,-1.6829,-1.7676,-1.8144,-1.8052,-1.8344,-1.8828,-1.9453,-1.9687,-2.0001,-2.0469,-2.157,-2.183,-2.1447,-2.3309,-2.3593,-2.2738,-2.3714,-2.3491,0.0,0.0,-2.1934,-2.1367,-2.1328,-2.1699,-2.2246,-2.2246,-2.2871,-2.3705,-2.4095,-2.468,-2.5449,-2.6445,-2.7363,-2.8398,-3.0117,-3.1406,-3.2754,-3.4902,-3.6016,-3.6738,-3.7402,-3.666,-3.5371,-3.3926,-3.2207,-3.0293,-2.8047,-2.6691,-2.5625,-2.5059,-2.582,-2.7278,-2.9394,-3.1426,-3.3437,-3.5449,-3.6191,-3.6504,-3.6504,-3.6387,-3.6035,-3.5351,-3.5273,-3.5215,-3.5019,-3.4141,-3.431,-3.5994,-3.5409,-3.4726,-3.4082,-3.4258,-3.3848,-3.2812,-3.25,-3.207,-3.1523,-3.1465,-3.125,-3.0898,-3.0898,-3.0898,-3.0898,0.0,-3.0742,-3.0449,-2.9824,-2.9434,-2.9141,-2.8535,-2.8301,-2.8301,-2.8301,-2.8301,-2.8262,0.0,0.0,0.0,0.0,0.0,0.0,0.0,0.0,0.0,0.0,-1.6392,0.0,0.0,0.0,0.0,0.0,0.0,0.0,0.0,0.0,-1.6163,-1.6085,-1.6484,-1.6882,-1.7285,-1.6973,-1.7155,-1.793,-1.7988,-1.8169,-1.8539,-1.9465,-1.9858,-1.9785,-2.0878,-2.1253,-2.1094,-2.1645,-2.143,-2.0644,-2.0996,-2.0684,-2.0039,0.0,-2.1153,-2.1894,-2.2012,-2.3008,-2.4414,-2.5479,-2.6309,-2.709,-2.875,-2.9922,-3.1055,-3.2793,-3.3867,-3.4941,-3.6992,-3.7559,-3.7598,-3.7793,-3.6562,-3.4707,-3.2422,-3.0801,-2.8867,-2.5693,-2.4891,-2.4394,-2.3296,-2.4141,-2.5723,-2.8008,-2.9492,-3.1582,-3.5078,-3.5273,-3.5781,-3.7773,-3.7363,-3.6777,-3.6387,-3.6309,-3.6094,-3.5684,-3.5215,-3.4941,-3.4883,-3.5254,-3.5078,-3.418,-3.4394,-3.4004,-3.2891,-3.3184,-3.2793,-3.1699,-3.1953,-3.1699,-3.0976,-3.0918,-3.0898,-3.0898,-3.0898,-3.0859,-3.0742,-2.998,-2.959,-2.9414,-2.8672,-2.834,-2.8301,-2.8301,-2.8301,-2.8301,0.0,0.0,0.0,0.0,0.0,0.0,0.0,0.0,0.0,0.0,-1.7763,-1.6658,0.0,0.0,0.0,0.0,0.0,0.0,0.0,0.0,0.0,-1.6105,-1.6484,-1.6746,-1.6804,-1.7129,-1.7344,-1.75,-1.7832,-1.8047,-1.8125,-1.9327,-1.9535,-1.8922,-2.1358,-2.1597,-2.0214,-2.1454,-2.144,-2.0605,-2.0683,-2.0625,-2.0507,-2.0566,0.0,0.0,-2.2676,-2.3062,-2.3666,-2.5966,-2.7793,-2.9258,-3.0625,-3.2148,-3.375,-3.5488,-3.6348,-3.7051,-3.8476,-3.8867,-3.8633,-3.7656,-3.6094,-3.4082,-3.123,-2.9023,-2.6992,-2.4941,-2.3691,-2.2988,-2.3081,-2.3906,-2.5469,-2.834,-3.0195,-3.25,-3.5957,-3.668,-3.7246,-3.834,-3.834,-3.8223,-3.8144,-3.7812,-3.7422,-3.6992,-3.6562,-3.6172,-3.5801,-3.5859,-3.5508,-3.4609,-3.3965,-3.3535,-3.332,-3.3047,-3.2793,-3.2578,-3.1934,-3.1562,-3.1406,-3.1055,-3.0898,-3.0898,-3.0898,0.0,-3.0312,-3.0156,-2.9668,-2.9023,-2.8867,-2.8594,-2.8301,-2.8301,-2.8301,-2.8301,0.0,0.0,0.0,0.0,0.0,0.0,0.0,-2.0429,-2.0061,-2.025,-1.9175,-1.7729,-1.5959,-1.5547,-1.5488,0.0,0.0,0.0,0.0,0.0,0.0,-1.6406,-1.659,-1.6804,-1.707,-1.7051,-1.7266,-1.7715,0.0,-1.7793,-1.8008,-1.8648,-1.8799,-1.8672,-2.0252,-2.0573,-1.9941,-2.0887,-2.1011,-2.0605,-2.0605,-2.0605,-2.0605,-2.0605,0.0,0.0,-2.2789,-2.3374,-2.4017,-2.5732,-2.7637,-2.9609,-3.1816,-3.3535,-3.5098,-3.6816,-3.7461,-3.7949,-3.9473,-3.9726,-3.9258,-3.7949,-3.5996,-3.3535,-3.0293,-2.7838,-2.5723,-2.3555,-2.2793,-2.2441,-2.2146,-2.3354,-2.4961,-2.6641,-2.8555,-3.0976,-3.4199,-3.5215,-3.6269,-3.8027,-3.8437,-3.8476,-3.8262,-3.8047,-3.7656,-3.7012,-3.6777,-3.6387,-3.5723,-3.5254,-3.4805,-3.4394,-3.375,-3.3418,-3.3418,-3.3223,-3.291,-3.2461,-3.2051,-3.1621,-3.1191,-3.0976,-3.0898,-3.0898,-3.0898,-3.0762,-3.0547,-3.0293,-2.9961,-2.9531,-2.9101,-2.8789,-2.8594,-2.8379,-2.8301,-2.8301,0.0,0.0,0.0,0.0,0.0,0.0,0.0,-2.075,-2.043,-2.0908,-1.9985,-1.8535,-1.6451,-1.582,-1.5586,0.0,0.0,0.0,0.0,0.0,0.0,0.0,0.0,0.0,-1.75,0.0,0.0,-1.8008,-1.7676,0.0,0.0,0.0,0.0,0.0,-1.9238,-1.9668,-2.0078,-2.0449,-2.0605,0.0,0.0,-2.0605,-2.0625,0.0,0.0,0.0,0.0,-2.353,-2.4251,-2.5254,-2.6777,-2.8691,-3.1348,-3.3535,-3.541,-3.6934,-3.7715,-3.8418,-4.0078,-4.0215,-3.9551,-3.8144,-3.5781,-3.291,-2.9551,-2.7129,-2.4922,-2.2519,-2.2207,-2.2168,-2.1504,-2.2676,-2.4023,-2.4969,-2.6582,-2.8906,-3.2207,-3.3476,-3.5,-3.75,-3.8262,-3.8437,-3.8105,-3.7969,-3.7617,-3.6855,-3.6562,-3.6133,-3.5566,-3.4785,-3.4316,-3.4219,-3.3789,-3.3516,-3.3418,-3.3418,-3.3086,-3.2441,-3.2344,-3.1953,-3.1289,-3.1113,-3.1035,-3.1016,-3.0937,-3.0898,0.0,-3.0488,-3.0293,-3.0137,-2.9453,-2.9141,-2.9004,-2.8574,-2.8437,-2.8418,0.0,0.0,0.0,0.0,0.0,0.0,0.0,-1.9153,-1.9698,-1.9519,-1.9396,-1.8627,-1.6821,-1.6269,-1.6172,0.0,0.0,0.0,0.0,0.0,0.0,0.0,0.0,0.0,0.0,0.0,0.0,-1.8008,-1.7969,0.0,0.0,0.0,0.0,0.0,0.0,-2.0098,-2.0546,-2.0586,0.0,0.0,0.0,0.0,0.0,0.0,0.0,0.0,0.0,-2.314,-2.3413,-2.4707,-2.5527,-2.6289,-2.7734,-3.0957,-3.4375,-3.5351,-3.6992,-3.8809,-4.0156,-4.0215,-3.9492,-3.7773,-3.5117,-3.2109,-2.9043,-2.668,-2.4629,-2.2832,-2.2187,-2.1914,-2.1836,-2.166,-2.2305,-2.4734,-2.5566,-2.7441,-3.1641,-3.3301,-3.4883,-3.709,-3.8066,-3.8555,-3.8516,-3.8164,-3.7734,-3.7266,-3.6172,-3.5644,-3.5937,-3.5527,-3.5078,-3.4648,-3.4238,-3.3828,-3.3418,-3.3418,-3.3379,-3.3301,-3.293,-3.2695,-3.2598,-3.1816,-3.1465,-3.1445,-3.1055,-3.0898,0.0,-3.084,-3.0586,-3.0195,-3.0117,-2.9844,-2.9453,-2.9023,-2.8867,-2.8809,0.0,0.0,0.0,0.0,0.0,0.0,-1.8855,-1.8881,-1.9023,-2.0078,-1.9418,-1.862,-1.791,-1.7266,-1.675,-1.6367,0.0,0.0,0.0,0.0,0.0,0.0,0.0,0.0,0.0,0.0,-1.8008,-1.8008,-1.8008,0.0,0.0,0.0,0.0,0.0,0.0,-1.9785,-2.0195,-2.0488,0.0,0.0,0.0,0.0,0.0,0.0,0.0,0.0,0.0,0.0,-2.3179,-2.373,-2.4199,-2.4609,-2.4863,-2.7012,-3.0019,-3.2969,-3.5176,-3.7109,-3.916,-4.0,-3.9785,-3.7793,-3.4844,-3.1699,-2.8926,-2.6211,-2.3965,-2.2754,-2.2168,-2.1797,-2.1543,-2.1307,-2.1619,-2.2949,-2.3516,-2.4941,-2.8223,-2.9785,-3.1777,-3.498,-3.6348,-3.7441,-3.8476,-3.7949,-3.7266,-3.6582,-3.6055,-3.584,-3.6016,-3.5117,-3.4512,-3.4336,-3.3906,-3.3594,-3.3418,-3.3418,-3.3301,-3.3047,-3.2871,-3.2656,-3.2402,-3.1797,-3.1523,-3.1504,-3.1074,-3.0898,0.0,-3.0898,-3.0781,-3.0586,-3.0312,-3.0098,-2.9902,-2.9473,-2.9316,-2.9258,0.0,0.0,0.0,0.0,0.0,-1.6518,-1.8502,-1.8238,-1.8299,-1.9624,-1.9109,-1.8559,-1.8422,-1.7812,-1.722,-1.6711,-1.6555,0.0,0.0,0.0,0.0,0.0,0.0,0.0,0.0,0.0,-1.8008,-1.8008,-1.8008,-1.8008,0.0,0.0,-1.8188,-1.8617,0.0,0.0,0.0,0.0,0.0,0.0,0.0,0.0,0.0,0.0,0.0,0.0,0.0,0.0,0.0,0.0,0.0,-2.3535,-2.3198,-2.4199,-2.6172,-2.9961,-3.2773,-3.5078,-3.7129,-3.8516,-3.8926,-3.7012,-3.4043,-3.0976,-2.8633,-2.5859,-2.3555,-2.2695,-2.2168,-2.1758,-2.1268,-2.1093,-2.123,-2.1797,-2.2246,-2.3457,-2.6191,-2.7676,-2.9726,-3.3105,-3.4551,-3.5937,-3.7656,-3.75,-3.6992,-3.6269,-3.6094,-3.5957,-3.584,-3.4824,-3.4258,-3.4258,-3.3848,-3.3555,-3.3418,-3.3418,-3.3281,-3.2988,-3.2988,-3.2754,-3.2344,-3.1914,-3.1641,-3.1504,-3.1074,-3.0898,0.0,-3.0898,-3.0898,-3.0859,-3.0527,-3.041,-3.0351,-2.9922,-2.9766,-2.9687,0.0,0.0,0.0,0.0,0.0,0.0,-1.6056,-1.6848,-1.7416,-1.7435,-1.8125,-1.8442,-1.8066,-1.7637,-1.7559,-1.7949,-1.7617,0.0,0.0,0.0,0.0,0.0,0.0,0.0,0.0,0.0,-1.8008,-1.8008,-1.8008,-1.8008,-1.8008,-1.8008,-1.8188,-1.8617,0.0,0.0,0.0,0.0,0.0,0.0,0.0,0.0,0.0,0.0,0.0,0.0,0.0,0.0,0.0,0.0,0.0,0.0,0.0,-2.312,-2.3647,-2.6309,-2.9805,-3.3008,-3.3887,-3.5391,-3.6387,-3.5059,-3.2461,-2.9766,-2.8119,-2.5664,-2.3555,-2.2695,-2.2168,-2.1758,-2.1268,-2.0879,-2.0899,-2.1738,-2.2246,-2.3555,-2.6582,-2.8105,-2.9726,-3.1934,-3.293,-3.4141,-3.5879,-3.6797,-3.7129,-3.6699,-3.6269,0.0,-3.543,-3.4941,-3.4687,-3.4687,-3.4277,-3.3867,-3.3418,-3.3418,-3.3418,-3.3418,-3.3418,-3.3184,-3.2773,-3.2344,-3.1934,-3.1504,-3.1074,-3.0898,0.0,-3.0898,-3.0898,-3.0898,-3.0879,-3.0879,-3.082,-3.0351,-3.0195,-3.0137,0.0,0.0,0.0,0.0,0.0,0.0,0.0,-1.6848,-1.7383,-1.7383,-1.7871,-1.8227,-1.8383,-1.8066,-1.7988,-1.8364,-1.7793,0.0,0.0,0.0,0.0,0.0,0.0,0.0,0.0,-1.873,-1.8887,-1.8887,-1.8887,-1.8887,-1.8867,-1.8539,-1.8481,-1.8617,-1.9102,-1.9355,0.0,0.0,0.0,0.0,0.0,0.0,-2.1035,0.0,0.0,0.0,0.0,0.0,0.0,0.0,0.0,0.0,0.0,0.0,0.0,-2.4075,-2.6699,-2.9609,-3.1035,-3.2266,-3.291,-3.1894,-2.9824,-2.7734,-2.6602,-2.4785,-2.3218,-2.2964,-2.2383,-2.1836,-2.1699,-2.1114,-2.1075,-2.2562,-2.2871,-2.3647,-2.5791,-2.7754,-2.9726,-3.1974,-3.4726,-3.6719,-3.7266,-3.7051,-3.6816,-3.668,-3.6269,-3.584,-3.541,-3.4961,-3.457,-3.4277,-3.3848,-3.3555,-3.3418,-3.3418,-3.3418,-3.3418,-3.3418,-3.3203,-3.2773,-3.2363,-3.1934,-3.1504,-3.1074,-3.0898,0.0,-3.0898,-3.0898,-3.0898,-3.0898,-3.0898,-3.0879,-3.0723,-3.0664,-3.0605,0.0,0.0,0.0,0.0,0.0,0.0,0.0,-1.6711,-1.7187,-1.7396,-1.7754,-1.813,-1.8559,-1.8227,-1.8242,-1.8792,-1.8242,0.0,0.0,0.0,0.0,0.0,0.0,0.0,-1.8598,-1.9062,-1.9375,-1.9531,-1.9531,-1.9531,-1.9512,-1.9238,-1.9007,-1.887,-1.9336,-1.9531,0.0,0.0,0.0,0.0,0.0,0.0,-2.0996,0.0,0.0,0.0,0.0,0.0,0.0,0.0,0.0,0.0,0.0,0.0,0.0,0.0,-2.4473,-2.6328,-2.8047,-2.9394,-3.0137,-2.9434,-2.7891,-2.6348,-2.5644,-2.4231,-2.3101,-2.3101,-2.248,-2.1894,-2.1894,-2.1212,-2.1075,-2.2503,-2.2676,-2.3437,-2.5664,-2.7402,-2.9375,-3.1875,-3.5019,-3.6894,-3.6719,-3.668,-3.668,-3.668,-3.6269,-3.5762,-3.5156,-3.4863,-3.4434,-3.3848,-3.3555,-3.3418,-3.3418,-3.3262,-3.3184,-3.3184,-3.3184,-3.2871,-3.2305,-3.2207,-3.1836,-3.1269,-3.0996,0.0,0.0,-3.0898,-3.0898,-3.0898,-3.0898,-3.0898,-3.0898,-3.0898,-3.0898,-3.0859,0.0,0.0,0.0,0.0,0.0,0.0,0.0,-1.6465,-1.6914,-1.7324,-1.7754,-1.813,-1.8559,-1.8247,-1.8379,-1.918,0.0,0.0,0.0,0.0,0.0,0.0,0.0,0.0,-1.8734,-1.9199,-1.9629,-2.0059,-2.0059,-2.0059,-2.0059,-2.0019,-1.9785,-1.9394,-1.9785,-1.9961,-1.998,-2.0391,-2.0605,-2.0605,-2.0605,-2.0625,0.0,0.0,0.0,0.0,0.0,0.0,0.0,0.0,0.0,0.0,0.0,0.0,0.0,0.0,0.0,0.0,0.0,-2.6719,-2.7832,-2.7441,-2.6445,-2.5449,-2.5019,-2.4004,0.0,-2.3101,-2.248,-2.1894,-2.1973,-2.123,-2.0977,-2.1914,-2.207,-2.3086,-2.6016,-2.7363,-2.9176,-3.2051,-3.4219,-3.5293,-3.4844,-3.5898,-3.6641,-3.668,-3.6269,-3.5644,-3.4746,-3.4707,-3.4297,-3.3457,-3.3398,-3.3379,-3.3379,-3.2988,-3.2773,-3.2754,-3.2754,-3.2324,-3.1523,-3.1934,-3.168,0.0,-3.0898,0.0,0.0,-3.0898,-3.0898,-3.0898,-3.0898,-3.0898,-3.0898,-3.0898,-3.0898,-3.0898,0.0,0.0,0.0,0.0,0.0,0.0,0.0,0.0,0.0,0.0,-1.7754,-1.813,-1.8559,-1.852,-1.8539,0.0,0.0,0.0,0.0,0.0,0.0,0.0,0.0,0.0,-2.0136,-2.0547,-2.0996,-2.1426,-2.1426,-2.1426,-2.1406,-2.1074,-2.0684,-2.0312,-2.041,-2.0449,-2.0449,-2.0566,-2.0605,-2.0605,-2.0605,-2.0762,0.0,0.0,0.0,0.0,-2.248,-2.2773,0.0,0.0,0.0,0.0,0.0,0.0,0.0,0.0,-2.3101,-2.3179,-2.3588,0.0,-2.429,-2.4173,-2.3919,-2.3686,0.0,-2.3315,-2.3101,-2.3101,-2.248,-2.209,-2.2672,-2.1834,-2.168,-2.3516,-2.3828,-2.4531,-2.6582,-2.959,-3.2344,-3.4394,-3.5664,-3.6191,-3.5742,-3.5996,-3.6309,-3.6641,-3.6269,-3.5644,-3.4746,-3.4707,-3.4297,-3.3457,-3.3105,-3.2949,-3.2949,-3.2851,-3.2637,-3.2324,-3.2324,-3.2031,-3.1523,-3.1621,-3.1387,-3.0898,0.0,0.0,-3.0898,-3.0898,-3.0898,-3.0898,-3.0898,-3.0898,-3.0898,-3.0898,-3.0898,-3.0898,0.0,0.0,0.0,0.0,0.0,0.0,0.0,0.0,0.0,0.0,0.0,-1.8344,-1.8578,-1.8598,0.0,0.0,0.0,0.0,0.0,0.0,0.0,0.0,0.0,-1.9785,-2.0254,-2.0859,-2.1445,-2.1894,-2.207,-2.2168,-2.2168,-2.1934,-2.1484,-2.0859,-2.0703,-2.0605,-2.0605,-2.0605,-2.0605,-2.0605,-2.0605,0.0,0.0,0.0,0.0,0.0,-2.2441,-2.2773,0.0,-2.3101,-2.3101,-2.3101,0.0,0.0,0.0,0.0,-2.3101,-2.3101,-2.3101,-2.3237,-2.3437,-2.3437,-2.3437,-2.3437,-2.3437,-2.3237,-2.3101,-2.3101,-2.2617,-2.2305,-2.273,-2.2129,-2.2109,-2.3848,-2.4121,-2.5078,-2.7812,-3.0684,-3.3144,-3.4863,-3.5684,-3.6074,-3.6035,-3.6016,-3.6035,-3.6074,-3.5859,-3.5351,-3.4453,-3.4219,-3.3809,-3.3164,-3.2734,-3.2598,-3.2793,-3.2402,-3.209,-3.1875,-3.1875,-3.1641,-3.123,-3.1426,-3.1289,-3.0898,0.0,0.0,-3.0898,-3.0898,-3.0898,-3.0898,-3.0898,-3.0898,-3.0898,-3.0898,-3.0898,-3.0859,0.0,0.0,0.0,0.0,0.0,0.0,0.0,0.0,0.0,0.0,0.0,0.0,0.0,0.0,0.0,0.0,0.0,0.0,0.0,0.0,0.0,0.0,-1.9805,-2.0,-2.0215,-2.0917,-2.1582,-2.207,-2.2441,-2.2617,-2.2617,-2.2617,-2.2107,-2.1268,-2.0859,-2.0664,-2.0605,-2.0605,-2.0605,-2.0605,-2.0605,0.0,0.0,0.0,0.0,0.0,0.0,0.0,0.0,-2.3101,-2.3101,-2.3101,-2.3101,0.0,0.0,0.0,0.0,0.0,-2.3179,-2.3652,-2.4023,-2.375,-2.375,-2.3769,-2.3711,-2.3398,-2.3101,-2.3101,-2.2769,-2.2559,-2.2676,-2.2422,-2.2598,-2.3887,-2.4355,-2.5859,-2.9551,-3.1387,-3.2949,-3.4512,-3.5176,-3.5547,-3.5703,-3.584,-3.5742,-3.5312,-3.5293,-3.4941,-3.4121,-3.3652,-3.3223,-3.2812,-3.2324,-3.2246,-3.2598,-3.1875,-3.1484,-3.1426,-3.1426,-3.123,-3.0898,-3.1269,-3.123,-3.0898,0.0,0.0,-3.0898,-3.0898,-3.0898,-3.0898,-3.0898,-3.0898,-3.0898,-3.0898,-3.0898,-3.082,0.0,0.0,0.0,0.0,0.0,0.0,0.0,0.0,0.0,0.0,0.0,0.0,0.0,0.0,0.0,0.0,0.0,0.0,0.0,0.0,0.0,-2.0878,-2.0235,-2.043,-2.1562,-2.1719,-2.2168,-2.2906,-2.2964,-2.3003,-2.3003,-2.3003,-2.2598,-2.1758,-2.1328,-2.0918,-2.0605,-2.0605,-2.0605,-2.0605,-2.0605,0.0,0.0,0.0,0.0,0.0,0.0,0.0,0.0,-2.3101,-2.3101,-2.3101,-2.3101,0.0,0.0,0.0,0.0,0.0,-2.3594,-2.4551,-2.5031,-2.3569,-2.3516,-2.3691,-2.3276,-2.314,-2.3101,-2.3101,-2.2769,-2.2734,-2.3457,-2.3535,-2.3926,-2.5187,-2.6953,-2.9101,-3.1914,-3.2832,-3.3594,-3.459,-3.543,-3.5508,-3.4473,-3.5059,-3.5293,-3.4844,-3.4805,-3.459,-3.4101,-3.3652,-3.3223,-3.2812,-3.2031,-3.1641,-3.1719,-3.1582,-3.1348,-3.0996,-3.0996,-3.0957,-3.0898,-3.0957,-3.0957,-3.0898,0.0,-3.0898,-3.0898,-3.0898,-3.0898,-3.0898,-3.0898,-3.0898,-3.0898,-3.0898,-3.0898,-3.0781,0.0,0.0,0.0,0.0,0.0,0.0,0.0,0.0,0.0,0.0,0.0,0.0,0.0,0.0,0.0,0.0,0.0,0.0,0.0,0.0,-2.0762,-2.1171,-2.08,-2.1016,-2.1875,-2.2109,-2.2422,-2.2769,-2.2984,-2.3101,-2.3081,-2.2676,-2.2246,-2.1855,-2.1172,-2.0762,-2.0605,-2.0605,-2.0605,-2.0605,0.0,0.0,0.0,0.0,0.0,0.0,0.0,0.0,0.0,0.0,-2.2906,-2.3101,-2.3101,0.0,0.0,0.0,0.0,0.0,-2.3379,-2.4043,-2.4551,-2.3939,-2.4512,-2.4961,-2.4043,-2.3783,-2.3783,-2.3783,-2.3672,-2.3652,-2.4062,-2.4531,-2.5488,-2.748,-2.9219,-3.0898,-3.2559,-3.2969,-3.3398,-3.4258,-3.4726,-3.4824,-3.4453,-3.4785,-3.4824,-3.4394,-3.4141,-3.3828,-3.3398,-3.2754,-3.2305,-3.2109,-3.1504,-3.1191,-3.1191,-3.1191,-3.1074,-3.0898,-3.0898,-3.0898,-3.0898,-3.0898,-3.0898,-3.0898,0.0,-3.0898,-3.0898,-3.0898,-3.0898,-3.0898,-3.0898,-3.0898,-3.0898,-3.0898,-3.0586,-3.0156,0.0,0.0,0.0,0.0,0.0,0.0,0.0,0.0,0.0,0.0,0.0,0.0,0.0,0.0,0.0,0.0,0.0,0.0,0.0,-2.086,-2.1074,-2.1483,-2.1502,-2.1699,-2.2031,-2.2344,-2.2559,-2.2656,-2.2945,-2.3101,-2.3081,-2.2383,-2.1973,-2.1855,-2.1212,-2.0801,-2.0605,-2.0723,-2.0703,-2.0605,0.0,0.0,0.0,0.0,0.0,0.0,0.0,0.0,0.0,0.0,0.0,0.0,0.0,0.0,0.0,-2.3101,-2.3101,-2.312,-2.3218,-2.3691,-2.4121,-2.4238,-2.5019,-2.5644,-2.5137,-2.4863,-2.4805,-2.5117,-2.5098,-2.5,-2.4902,-2.5684,-2.7148,-2.9629,-3.1035,-3.2148,-3.3105,-3.3242,-3.3476,-3.4141,-3.4219,-3.4297,-3.4531,-3.4453,-3.4219,-3.3809,-3.3379,-3.2988,-3.2656,-3.1934,-3.1523,-3.1523,-3.1113,-3.0898,-3.0898,-3.0898,-3.0898,-3.0898,-3.0898,-3.0898,-3.0898,-3.0898,-3.0898,-3.0898,-3.0898,-3.0898,-3.0898,-3.0898,-3.0898,-3.0898,-3.0898,-3.0898,-3.0898,-3.0898,-3.0469,-2.9902,0.0,0.0,0.0,0.0,0.0,0.0,0.0,0.0,0.0,0.0,0.0,0.0,0.0,0.0,0.0,0.0,0.0,0.0,0.0,-2.1562,-2.1973,-2.2402,-2.2422,-2.2441,-2.2461,-2.25,-2.2652,-2.3042,-2.3081,-2.3101,-2.3081,-2.2676,-2.2266,-2.1894,-2.1816,-2.1368,-2.0625,-2.1016,-2.0937,-2.0605,-2.0605,0.0,0.0,0.0,0.0,0.0,0.0,0.0,0.0,0.0,0.0,0.0,0.0,0.0,-2.3101,-2.3101,-2.3101,-2.3179,-2.3633,-2.4355,-2.4832,-2.4023,-2.3906,-2.4473,-2.6387,-2.6161,-2.5977,-2.7187,-2.7109,-2.6719,-2.6309,-2.7266,-2.8828,-3.1016,-3.2129,-3.3144,-3.4394,-3.4551,-3.459,-3.4648,-3.4648,-3.4512,-3.416,-3.375,-3.334,-3.291,-3.25,-3.2246,-3.2207,-3.1777,-3.1523,-3.1523,-3.1113,-3.0898,-3.0898,-3.0898,-3.0898,-3.0898,-3.0898,-3.0898,-3.0898,-3.0898,-3.0898,-3.0898,-3.0898,-3.0898,-3.0898,-3.0898,-3.0898,-3.0898,-3.0898,-3.0898,-3.0898,-3.0898,-3.0859,-3.0742,0.0,0.0,0.0,0.0,0.0,0.0,0.0,0.0,0.0,0.0,0.0,0.0,0.0,0.0,0.0,0.0,0.0,0.0,0.0,-2.1387,-2.1797,-2.248,-2.2519,-2.2637,-2.2847,-2.2847,-2.2945,-2.3101,-2.3101,-2.3101,-2.3081,-2.2441,-2.2168,-2.2246,-2.1466,-2.1231,-2.1367,-2.0977,-2.0879,-2.0957,-2.0723,-2.0605,0.0,0.0,0.0,0.0,0.0,0.0,0.0,0.0,-2.2402,-2.275,-2.3023,-2.3101,-2.3101,-2.3101,-2.3101,-2.314,-2.334,-2.4199,-2.4969,-2.4336,-2.459,-2.5352,-2.6699,-2.7168,-2.7617,-2.8687,-2.8711,-2.8476,-2.8047,-2.8574,-2.9707,-3.1621,-3.2637,-3.3535,-3.4551,-3.4707,-3.4609,-3.4336,-3.4062,-3.373,-3.332,-3.2891,-3.2578,-3.2422,-3.2012,-3.1758,-3.1758,-3.1367,-3.1133,-3.1133,-3.0976,-3.0898,-3.0898,-3.0898,-3.0898,-3.0898,-3.0898,-3.0898,-3.0898,-3.0898,-3.0898,-3.0898,-3.0898,-3.0898,-3.0898,-3.0898,-3.0898,-3.0898,-3.0898,-3.0898,-3.0898,-3.0898,-3.0703,-3.0469,0.0,0.0,0.0,0.0,0.0,0.0,0.0,0.0,0.0,0.0,0.0,0.0,0.0,0.0,0.0,0.0,0.0,0.0,-2.1561,-2.1717,-2.2048,-2.2633,-2.2672,-2.2808,-2.3081,-2.3101,-2.3101,-2.3101,-2.3101,-2.3101,-2.3081,-2.2422,-2.2246,-2.248,-2.1582,-2.1445,-2.1855,-2.1387,-2.1191,-2.1171,-2.0898,-2.0684,0.0,0.0,0.0,0.0,0.0,0.0,0.0,0.0,-2.2051,-2.2559,-2.2808,-2.2984,-2.3101,-2.3101,-2.3101,-2.3101,-2.3101,-2.3789,-2.4453,-2.4414,-2.5031,-2.6083,-2.7676,-2.8379,-2.9062,-3.0332,-3.0273,-2.9844,-2.9394,-2.9453,-3.0194,-3.1955,-3.2754,-3.3476,-3.4199,-3.4414,-3.4238,-3.3555,-3.332,-3.3066,-3.2637,-3.2207,-3.1953,-3.1953,-3.1562,-3.1328,-3.1328,-3.1055,-3.0898,-3.0898,-3.0898,-3.0898,-3.0898,-3.0898,-3.0898,-3.0898,-3.0898,-3.0898,-3.0898,-3.0898,-3.0898,-3.0898,-3.0898,-3.0898,-3.0898,-3.0898,-3.0898,-3.0898,-3.0898,-3.0587,-3.0079,-3.0079,-2.9889,-2.9602,0.0,0.0,0.0,0.0,0.0,0.0,0.0,0.0,0.0,0.0,0.0,0.0,0.0,0.0,0.0,0.0,0.0,0.0,-2.248,-2.2847,-2.3081,-2.3101,-2.3101,-2.3101,-2.3101,-2.3101,-2.3101,-2.3101,-2.3101,-2.3101,-2.3081,-2.2672,-2.2519,-2.2519,-2.2519,-2.2285,-2.1934,-2.2344,-2.2012,-2.121,-2.121,-2.0977,-2.0605,0.0,0.0,0.0,0.0,0.0,0.0,0.0,-2.1756,-2.25,-2.2519,-2.2769,-2.3101,-2.3101,-2.3101,-2.3101,-2.3101,-2.3101,-2.3315,-2.4219,-2.505,-2.6493,-2.9512,-2.9883,-3.0195,-3.2344,-3.1777,-3.0762,-3.0293,-2.9863,-3.0194,-3.1935,-3.2519,-3.293,-3.3359,-3.3789,-3.3594,-3.2385,-3.2539,-3.2617,-3.2207,-3.1758,-3.1504,-3.1504,-3.1133,-3.0898,-3.0898,-3.0879,-3.0879,-3.0898,-3.0879,-3.0879,-3.0898,-3.0898,-3.0898,-3.0898,-3.0879,-3.0879,-3.0898,-3.0898,-3.0898,-3.0898,-3.0898,-3.0898,-3.0898,-3.0898,-3.0898,-3.0898,-3.0898,-2.9844,-2.8426,-2.8367,-2.8367,-2.817,0.0,0.0,0.0,0.0,0.0,0.0,0.0,0.0,0.0,0.0,0.0,0.0,0.0,0.0,0.0,0.0,0.0,0.0,-2.248,-2.2617,-2.2789,-2.3081,-2.3101,-2.3101,-2.3101,-2.3101,-2.3101,-2.3101,-2.3101,-2.3101,-2.3081,-2.2672,-2.2676,-2.2886,-2.2344,-2.2324,-2.2691,-2.2266,-2.209,-2.2109,-2.1816,-2.1426,-2.1035,0.0,0.0,0.0,0.0,0.0,0.0,0.0,0.0,0.0,-2.2422,-2.2769,-2.3101,-2.3101,-2.3101,-2.3101,-2.3101,-2.3809,-2.4551,-2.4805,-2.6211,-2.793,-2.9414,-3.0137,-3.0937,-3.248,-3.1777,-3.0859,-3.0703,-3.0312,-3.0293,-3.1133,-3.1621,-3.2051,-3.248,-3.2656,-3.2598,-3.2207,-3.2012,-3.1855,-3.1719,-3.1328,-3.1074,-3.1074,-3.0957,-3.0898,-3.0898,-3.0586,-3.0547,-3.0879,-3.0566,-3.0566,-3.0879,-3.0898,-3.0898,-3.0879,-3.0566,-3.0566,-3.0898,-3.0898,-3.0898,-3.0898,-3.0898,-3.0898,-3.0898,-3.0898,-3.0898,-3.0762,-2.9589,-2.8842,-2.823,-2.7134,-2.6712,-2.6651,0.0,0.0,0.0,0.0,0.0,0.0,0.0,0.0,0.0,0.0,-2.0547,-2.0937,0.0,0.0,0.0,0.0,0.0,0.0,-2.2691,-2.2711,-2.2828,-2.3081,-2.3101,-2.3101,-2.3101,-2.3101,-2.3101,-2.3101,-2.3101,-2.3101,-2.3081,-2.2847,-2.2847,-2.3081,-2.2617,-2.2676,-2.3062,-2.2598,-2.2441,-2.248,-2.2246,-2.1777,-2.119,0.0,0.0,0.0,0.0,0.0,0.0,0.0,0.0,0.0,-2.2129,-2.2559,-2.2886,-2.3042,-2.2984,-2.2886,-2.3042,-2.3828,-2.4773,-2.541,-2.709,-2.8906,-3.0293,-3.1269,-3.2109,-3.2891,-3.2168,-3.1348,-3.1172,-3.0625,-3.041,-3.1035,-3.1348,-3.1621,-3.1875,-3.207,-3.2051,-3.1699,-3.1582,-3.1445,-3.1289,-3.0879,-3.0703,-3.0879,-3.0566,-3.043,-3.0605,-3.0195,-3.0078,-3.0351,-3.0098,-3.0078,-3.0371,-3.0371,-3.0371,-3.0371,-3.0078,-3.0098,-3.0371,-3.0371,-3.0449,-3.0605,-3.043,-3.0566,-3.0859,-3.0508,-3.0566,-3.0723,-2.8747,-2.7677,-2.7071,-2.5321,-2.4671,-2.4627,0.0,0.0,0.0,0.0,0.0,0.0,0.0,0.0,0.0,0.0,-2.0839,-2.1171,0.0,0.0,0.0,0.0,0.0,0.0,0.0,-2.3101,-2.3101,-2.3101,-2.3101,-2.3101,-2.3101,-2.3101,-2.3101,-2.3101,-2.3101,-2.3101,-2.3101,-2.3101,-2.3101,-2.3101,-2.3101,-2.3101,-2.3101,-2.3101,-2.2867,-2.2559,-2.2559,-2.2048,-2.1307,-2.1268,0.0,0.0,0.0,0.0,0.0,0.0,0.0,0.0,-2.1699,-2.2109,-2.2539,-2.2867,-2.2711,-2.2559,-2.2964,-2.3496,-2.4277,-2.6055,-2.7832,-2.9687,-3.1719,-3.2754,-3.3301,-3.3301,-3.2676,-3.1992,-3.1582,-3.082,-3.0527,-3.1328,-3.1465,-3.1465,-3.1465,-3.1797,-3.1758,-3.0976,-3.1191,-3.125,-3.0859,-3.041,-3.0312,-3.0742,-3.0019,-2.9726,-3.0117,-2.9746,-2.9587,-2.9626,-2.9587,-2.9587,-2.9626,-2.9626,-2.9626,-2.9626,-2.9587,-2.9587,-2.9626,-2.9626,-2.9785,-3.0117,-2.9726,-3.0039,-3.0762,-2.9922,-3.0002,-3.0374,-2.8022,-2.6336,-2.5136,-2.32,-2.2498,-2.2289,0.0,0.0,0.0,0.0,0.0,0.0,0.0,0.0,0.0,0.0,0.0,0.0,0.0,0.0,0.0,0.0,0.0,0.0,0.0,-2.3101,-2.3101,-2.3101,-2.3101,-2.3101,-2.3101,-2.3101,-2.3101,-2.3101,-2.3101,-2.3101,-2.3101,-2.3101,-2.3101,-2.3101,-2.3101,-2.3101,-2.3101,-2.3101,-2.3042,-2.2964,-2.2964,-2.2652,-2.2207,-2.1875,-2.1484,0.0,0.0,0.0,0.0,0.0,0.0,0.0,-2.1307,-2.168,-2.2031,-2.2129,-2.209,-2.2187,-2.2886,-2.3647,-2.4785,-2.6875,-2.918,-3.1172,-3.1992,-3.2305,-3.2441,-3.2441,-3.2031,-3.1621,-3.1543,-3.1094,-3.0801,-3.0996,-3.1035,-3.1035,-3.1035,-3.1113,-3.1094,-3.0918,-3.0644,-3.0449,-3.0351,-2.9961,-2.9746,-2.9844,-2.9744,-2.9665,-2.9707,-2.9297,-2.9219,-2.9607,-2.9238,-2.9219,-2.9626,-2.9626,-2.9626,0.0,-2.9219,-2.9238,-2.9626,-2.9626,-2.9685,-2.9707,-2.9665,-2.9863,-3.0312,-2.9785,-2.924,-2.8388,-2.6244,-2.4551,-2.3125,-2.1657,-2.0978,-2.078,0.0,0.0,0.0,0.0,0.0,0.0,0.0,0.0,0.0,0.0,0.0,0.0,0.0,0.0,0.0,0.0,0.0,0.0,0.0,0.0,-2.3101,-2.3101,-2.3101,-2.3101,-2.3101,-2.3101,-2.3101,-2.3101,-2.3101,-2.3101,-2.3101,-2.3101,-2.3101,-2.3101,-2.3101,-2.3101,-2.3101,-2.3101,-2.3101,-2.3101,-2.3101,-2.2847,-2.248,-2.2266,-2.1914,-2.1523,-2.1289,0.0,0.0,0.0,0.0,0.0,0.0,0.0,-2.1934,-2.2129,-2.2051,-2.2031,-2.2676,-2.3769,-2.5391,-2.8184,-3.0215,-3.1621,-3.207,-3.2012,-3.1797,-3.1601,-3.1543,-3.1445,-3.125,-3.1035,-3.082,-3.0586,-3.0566,-3.0488,-3.0293,-3.0254,-3.0254,-3.0254,-3.0039,-2.9902,-2.9902,-2.9512,-2.9355,-2.9551,-2.9199,-2.9043,-2.9238,-2.8848,-2.873,-2.8945,-2.873,-2.873,-2.8965,-2.8965,-2.8965,-2.8945,-2.873,-2.873,-2.8965,-2.916,-2.9258,-2.9238,-2.9043,-2.9316,-2.9844,-2.9219,-2.8463,-2.7431,-2.5229,-2.3578,-2.2304,-2.0777,-2.0067,-1.9907,0.0,0.0,0.0,0.0,0.0,0.0,0.0,0.0,0.0,0.0,0.0,0.0,0.0,0.0,0.0,0.0,0.0,0.0,0.0,0.0,0.0,-2.3101,-2.3101,-2.3101,-2.3101,-2.3101,-2.3101,-2.3101,-2.3101,-2.3218,-2.3413,-2.3276,-2.3198,-2.3198,-2.3198,-2.3159,-2.3101,-2.3101,-2.3101,-2.3101,-2.3101,-2.2886,-2.2617,-2.2539,-2.2305,-2.1973,-2.1914,-2.1894,-2.1894,-2.1894,0.0,0.0,0.0,0.0,-2.1836,-2.2187,-2.1992,-2.1758,-2.2266,-2.3828,-2.6084,-2.9101,-3.0527,-3.1269,-3.1641,-3.1445,-3.1074,-3.0742,-3.0996,-3.1152,-3.0742,-3.0664,-3.0547,-3.0156,-3.0098,-2.9961,-2.9685,-2.9626,-2.9626,-2.9626,-2.9512,-2.9453,-2.9453,-2.9062,-2.8965,-2.9372,-2.8633,-2.834,-2.8691,-2.8301,-2.8066,-2.8066,-2.8066,-2.8066,-2.8066,-2.8066,-2.8066,-2.8066,-2.8144,-2.8144,-2.8086,-2.8594,-2.8809,-2.8789,-2.8437,-2.873,-2.9394,-2.8613,-2.7729,-2.6601,-2.4592,-2.2931,-2.154,-2.0347,-1.9653,-1.9452,0.0,0.0,0.0,0.0,0.0,0.0,0.0,0.0,0.0,0.0,-2.084,-2.1914,0.0,0.0,0.0,0.0,0.0,0.0,0.0,0.0,0.0,-2.3101,-2.3101,-2.3101,-2.3101,-2.3101,-2.3101,-2.3101,-2.3101,-2.3711,-2.4832,-2.4043,-2.3711,-2.3711,-2.3711,-2.3496,-2.3101,-2.3101,-2.3101,-2.3101,-2.3101,-2.3062,-2.2964,-2.2656,-2.248,-2.2383,-2.2012,-2.1894,-2.1894,-2.1894,-2.1894,0.0,0.0,0.0,-2.1288,-2.1346,-2.1094,-2.0957,-2.1738,-2.4043,-2.6582,-2.8144,-2.9199,-2.9844,-2.9902,-2.992,-2.9824,-2.9766,-3.0078,-3.0234,-2.9824,-2.9746,-2.9726,-2.9668,-2.9648,-2.9629,-2.9626,-2.9626,-2.9626,-2.9626,-2.9238,-2.9004,-2.9004,-2.8633,-2.8398,-2.8457,-2.8027,-2.7826,-2.7885,-2.7422,-2.7187,-2.7187,-2.7187,-2.7187,-2.7187,-2.7187,-2.7187,-2.7187,-2.7578,-2.7559,-2.7207,-2.8008,-2.8379,-2.8379,-2.832,-2.8555,-2.8965,-2.8496,-2.6939,-2.4798,-2.4099,-2.2127,-1.9829,-2.0047,-1.9826,-1.9551,0.0,0.0,0.0,0.0,0.0,0.0,0.0,0.0,0.0,0.0,0.0,-2.207,0.0,0.0,0.0,0.0,0.0,0.0,0.0,0.0,0.0,-2.3101,-2.3101,-2.3101,-2.3101,-2.3101,-2.3101,-2.3101,-2.3101,-2.3881,-2.5449,-2.5312,-2.5254,-2.5215,-2.4727,-2.4258,-2.3783,-2.3296,-2.3101,-2.3101,-2.3101,-2.3101,-2.3081,-2.2886,-2.2828,-2.2789,-2.2656,-2.2578,-2.2578,-2.2578,-2.2578,-2.2578,-2.2578,0.0,0.0,0.0,-2.1465,-2.1584,-2.2656,-2.4102,-2.5644,-2.7187,-2.8223,-2.8848,-2.8848,-2.9043,-2.9062,-2.8648,-2.8706,-2.8945,-2.9528,-2.9626,-2.9492,-2.9238,-2.9199,-2.9121,-2.8887,-2.8848,-2.8769,-2.8589,-2.834,-2.8125,-2.7871,-2.7695,-2.7578,-2.7578,-2.7402,-2.7305,-2.7305,-2.7129,-2.7012,-2.7012,-2.7012,-2.7012,-2.7012,-2.7012,-2.7012,-2.7012,-2.7207,-2.7324,-2.7402,-2.7773,-2.793,-2.7949,-2.8184,-2.8398,-2.8555,-2.8359,-2.7172,-2.5284,-2.4223,-2.2492,-2.0586,-2.0123,-1.9826,-1.9666,0.0,0.0,0.0,0.0,0.0,0.0,0.0,0.0,0.0,0.0,0.0,0.0,0.0,0.0,0.0,0.0,0.0,0.0,0.0,0.0,0.0,-2.3101,-2.3101,-2.3101,-2.3101,-2.3101,-2.3101,-2.3101,-2.3101,-2.4095,-2.6025,-2.6387,-2.6836,-2.7305,-2.626,-2.5293,-2.4531,-2.3744,-2.3413,-2.3393,-2.3062,-2.3003,-2.3081,-2.2984,-2.3003,-2.3101,-2.3101,-2.3101,-2.3101,-2.3101,-2.3101,-2.3101,-2.3101,-2.2808,0.0,0.0,0.0,-2.1934,-2.2871,-2.3535,-2.4277,-2.5684,-2.6758,-2.748,-2.748,-2.7891,-2.8105,-2.748,-2.7422,-2.7793,-2.875,-2.8926,-2.8848,-2.8633,-2.8496,-2.832,-2.8008,-2.7969,-2.7851,-2.7539,-2.75,-2.7363,-2.7051,-2.7012,-2.7012,-2.7012,-2.6914,-2.6855,-2.6855,-2.6758,-2.6699,-2.6699,-2.6582,-2.6582,-2.6699,-2.6699,-2.6699,-2.6699,-2.6797,-2.6973,-2.7187,-2.7571,-2.7598,-2.7519,-2.8066,-2.8301,-2.8301,-2.8301,-2.7222,-2.5371,-2.4267,-2.2645,-2.096,-2.0092,-1.976,-1.9693,0.0,0.0,0.0,0.0,0.0,0.0,0.0,0.0,0.0,0.0,0.0,0.0,-2.2539,-2.2847,-2.3101,-2.3101,-2.3101,0.0,0.0,0.0,0.0,-2.3101,-2.3101,0.0,-2.3101,-2.3101,-2.3101,-2.3101,-2.3101,-2.4407,-2.6953,-2.6973,-2.8066,-2.9922,-2.8262,-2.6652,-2.5047,-2.4551,-2.4355,-2.4238,-2.3027,-2.275,-2.3042,-2.2695,-2.275,-2.3101,-2.3101,-2.3101,-2.3101,-2.3101,-2.3101,-2.3101,-2.3101,-2.2808,-2.25,0.0,0.0,0.0,-2.1307,-2.1931,-2.2734,-2.3179,-2.4297,-2.5282,-2.5282,-2.5898,-2.6504,-2.6465,-2.6777,-2.707,-2.7129,-2.7148,-2.7285,-2.7676,-2.7383,-2.7109,-2.709,-2.709,-2.707,-2.7051,-2.7051,-2.7031,-2.7012,-2.7012,-2.7012,-2.7012,-2.6641,-2.6426,-2.6426,-2.6035,-2.5752,-2.5752,-2.5391,-2.5371,-2.5752,-2.5752,-2.5752,-2.5752,-2.623,-2.6211,-2.583,-2.7109,-2.7441,-2.709,-2.793,-2.8301,-2.8301,-2.8301,-2.6554,-2.3933,-2.3822,-2.204,-1.9515,-1.9752,-1.9626,-1.9484,0.0,0.0,0.0,0.0,0.0,0.0,0.0,0.0,0.0,0.0,0.0,0.0,0.0,-2.3003,-2.3101,-2.3101,-2.3101,0.0,0.0,0.0,0.0,-2.3101,-2.3101,-2.3101,-2.3101,-2.3101,-2.3101,-2.3101,-2.3418,-2.4473,-2.6161,-2.6758,-2.7422,-2.8144,-2.7812,-2.7168,-2.623,-2.4961,-2.4258,-2.3945,-2.3179,-2.2964,-2.3023,-2.2383,-2.2539,-2.3062,-2.2789,-2.2867,-2.3101,-2.3101,-2.3101,-2.3101,-2.3101,-2.2984,-2.2808,-2.2598,-2.2109,-2.166,-2.166,-2.1875,-2.2207,-2.2637,-2.3301,-2.3893,-2.3828,-2.4492,-2.5039,-2.4785,-2.5059,-2.543,-2.5723,-2.6445,-2.6973,-2.6855,-2.6934,-2.6914,-2.6641,-2.6836,-2.6914,-2.6641,-2.6602,-2.6504,-2.6161,-2.5937,-2.5879,-2.6172,-2.5527,-2.5234,-2.5527,-2.5117,-2.5019,-2.5293,-2.4883,-2.4727,-2.4836,-2.5156,-2.5312,-2.5312,-2.5762,-2.6035,-2.6172,-2.6641,-2.707,-2.7461,-2.7754,-2.8047,-2.8228,-2.7276,-2.6264,-2.5096,-2.3151,-2.1756,-2.0716,-1.9874,-1.9573,-1.9639,0.0,0.0,0.0,0.0,0.0,0.0,0.0,0.0,-2.2402,-2.2676,0.0,0.0,0.0,0.0,-2.3101,-2.3101,-2.3101,-2.3101,-2.3101,-2.3101,-2.3101,-2.3101,-2.3101,-2.3101,-2.3101,-2.3101,-2.3159,-2.3315,-2.3652,-2.4531,-2.5977,-2.6543,-2.7031,-2.7441,-2.7305,-2.707,-2.6719,-2.5566,-2.4844,-2.4375,-2.3452,-2.3354,-2.3711,-2.3008,-2.3262,-2.39,-2.3516,-2.3457,-2.3471,-2.3198,-2.3003,-2.2906,-2.3042,-2.3101,-2.3023,-2.2637,-2.2305,-2.207,-2.1934,-2.1777,-2.1777,-2.2187,-2.2402,-2.2519,-2.2457,-2.3164,-2.3691,-2.3418,-2.3809,-2.4336,-2.4766,-2.5566,-2.6094,-2.5977,-2.6055,-2.6055,-2.5762,-2.5977,-2.6035,-2.5762,-2.5723,-2.5625,-2.5284,-2.5019,-2.498,-2.5226,-2.4746,0.0,-2.4824,-2.457,-2.4492,-2.4675,-2.4492,-2.4355,-2.4199,-2.4785,-2.5106,-2.5125,-2.5527,-2.5849,-2.6172,-2.6328,-2.6699,-2.7246,-2.6949,-2.7386,-2.8174,-2.6717,-2.5772,-2.5096,-2.2589,-2.1301,-2.0759,-1.9764,-1.9492,-1.9626,0.0,0.0,0.0,0.0,0.0,0.0,0.0,0.0,-2.2227,-2.2984,0.0,0.0,0.0,0.0,0.0,-2.3101,-2.3101,-2.3101,-2.3101,-2.3101,-2.3101,-2.3101,0.0,0.0,-2.312,-2.312,-2.3335,-2.3809,-2.3809,-2.4668,-2.6328,-2.6348,-2.7012,-2.8144,-2.6934,-2.6387,-2.6367,-2.6348,-2.6113,-2.5557,-2.3822,-2.3945,-2.5106,-2.457,-2.4894,-2.5635,-2.5195,-2.4766,-2.4316,-2.3393,-2.2847,-2.2617,-2.2964,-2.3101,-2.3023,-2.2656,-2.2539,-2.2441,0.0,0.0,0.0,-2.1758,-2.1543,-2.1171,-2.1171,-2.1875,-2.248,-2.2461,-2.3144,-2.3848,-2.4258,-2.4336,-2.4492,-2.4969,-2.4668,-2.4414,-2.4394,-2.4414,-2.4414,-2.4414,-2.4414,-2.4414,-2.4414,-2.4414,-2.4414,-2.4414,-2.4394,-2.4375,-2.4394,-2.4394,-2.4199,-2.3789,-2.418,-2.4199,-2.3769,-2.4609,-2.5086,-2.5106,-2.5508,-2.5674,-2.5693,-2.6172,-2.6367,-2.6306,-2.5381,-2.6169,-2.8028,-2.659,-2.5096,-2.3599,-2.2081,-2.0644,-1.943,-1.943,-1.943,-1.943,0.0,0.0,0.0,0.0,0.0,-2.2789,-2.2906,-2.2828,-2.2828,0.0,0.0,0.0,-2.3081,-2.3101,-2.3101,-2.3101,-2.3101,-2.3101,-2.3101,-2.3101,-2.3101,-2.3101,-2.3437,-2.3613,-2.3613,-2.3906,-2.4121,-2.4238,-2.4238,-2.4492,-2.4961,-2.5293,-2.5673,-2.6026,-2.6269,-2.6211,-2.5849,-2.5566,-2.5742,-2.6074,-2.4648,-2.4844,-2.584,-2.4141,-2.4387,-2.5538,-2.4531,-2.4453,-2.4746,-2.3906,-2.3535,-2.3398,-2.3159,-2.3101,-2.3081,-2.2964,-2.2925,-2.2828,-2.2461,0.0,0.0,0.0,0.0,0.0,-2.0742,-2.1191,-2.1504,-2.1172,-2.1797,-2.2344,-2.2107,-2.2383,-2.2734,-2.3144,-2.3887,-2.4316,-2.4004,-2.4219,-2.4414,-2.4414,-2.4414,-2.4414,-2.4414,-2.4141,-2.4102,0.0,-2.3803,-2.3633,-2.3945,-2.3965,-2.3769,-2.3296,-2.373,-2.375,-2.3276,-2.3867,-2.4297,-2.4609,-2.5039,-2.543,-2.5693,-2.581,-2.5511,-2.4854,-2.459,-2.4451,-2.4296,-2.2982,-2.2354,-2.2081,-2.0587,-1.9764,-1.943,-1.943,-1.943,-1.943,0.0,0.0,0.0,0.0,0.0,-2.3101,-2.3101,-2.3101,-2.3101,0.0,0.0,0.0,-2.3354,-2.353,-2.3627,-2.3627,-2.3471,-2.3418,-2.3418,-2.3418,-2.3418,-2.3418,-2.3828,-2.4043,-2.4043,-2.4297,-2.4512,-2.4687,-2.4687,-2.4785,-2.4933,-2.5234,-2.5352,-2.5371,-2.5684,-2.5801,-2.5654,-2.5254,-2.5469,-2.6055,-2.5273,-2.5644,-2.6523,-2.5449,-2.5762,-2.668,-2.5742,-2.5723,-2.5986,-2.4531,-2.3809,-2.3437,-2.3008,-2.2945,-2.3101,-2.3101,-2.3101,-2.3042,-2.2789,-2.2461,-2.2129,-2.2009,0.0,0.0,-2.0644,-2.0625,-2.0566,-2.0117,-2.0586,-2.1035,-2.0977,-2.1172,-2.1484,-2.1914,-2.2555,-2.3184,-2.3477,-2.373,-2.3842,-2.3842,-2.3842,-2.3842,-2.3842,-2.3652,-2.3613,-2.3822,-2.3374,-2.3198,-2.3496,-2.3516,-2.3398,-2.3101,-2.3379,-2.3398,-2.3101,-2.3574,-2.3906,-2.416,-2.459,-2.5019,-2.5449,-2.5449,-2.4933,-2.4025,-2.3452,-2.2637,-2.165,-2.049,-2.0591,-2.1294,-1.9927,-1.943,-1.943,-1.943,-1.943,-1.943,0.0,0.0,-2.3101,-2.3101,-2.314,-2.3159,-2.3159,-2.3159,-2.3179,0.0,-2.3237,-2.3413,-2.3945,-2.4258,-2.4434,-2.4492,-2.4102,-2.3867,-2.3867,-2.3867,-2.3867,-2.3867,-2.4258,-2.4492,-2.4492,-2.4531,-2.4746,-2.5184,-2.5145,-2.5273,-2.5615,-2.5615,-2.5615,-2.5596,-2.5293,-2.5371,-2.5654,-2.5312,-2.5352,-2.5615,-2.5713,-2.6317,-2.7246,-2.75,-2.7891,-2.8223,-2.7806,-2.7669,-2.7395,-2.5215,-2.3926,-2.3101,-2.2715,-2.2789,-2.3101,-2.3101,-2.3101,-2.3101,-2.3101,-2.2789,-2.2598,-2.2925,-2.2146,0.0,-2.0781,-2.0332,-1.9922,-1.9453,-1.9687,-2.0098,-2.0468,-2.0566,-2.0742,-2.1112,-2.119,-2.16,-2.2789,-2.2964,-2.2984,-2.3023,-2.3023,-2.3042,-2.3081,-2.3101,-2.3101,-2.3101,-2.3101,-2.3101,-2.3101,-2.3101,-2.3101,-2.3101,-2.3101,-2.3101,-2.3101,-2.3516,-2.375,-2.3789,-2.416,-2.4609,-2.5106,-2.5106,-2.4602,-2.3633,-2.2265,-2.1071,-1.9947,-1.8905,-1.9445,-2.0859,-1.9814,-1.943,-1.943,-1.943,-1.943,-1.943,0.0,-2.3101,-2.3101,-2.3101,-2.3437,-2.3672,-2.3672,-2.3672,-2.3789,-2.4121,-2.416,-2.4473,-2.5226,-2.4738,-2.4551,-2.4902,-2.4551,-2.4297,-2.4297,-2.4297,-2.4297,-2.4297,-2.4707,-2.4941,-2.4941,-2.5293,-2.5479,-2.5557,-2.5254,-2.5165,-2.5195,-2.5195,-2.5195,-2.5215,-2.5488,-2.5615,-2.5674,-2.5644,-2.5449,-2.5254,-2.5977,-2.7187,-2.8437,-2.75,-2.7617,-2.8203,-2.7422,-2.7363,-2.7434,-2.5595,-2.4375,-2.3594,-2.312,-2.3023,-2.3101,-2.3101,-2.3101,-2.3101,-2.3101,-2.2789,-2.2539,-2.2617,-2.2187,0.0,-2.1211,-2.0995,-2.0722,-1.9961,-2.0137,-2.039,-2.0098,-2.037,-2.0742,-2.1112,-2.119,-2.1405,-2.2051,-2.2129,-2.2246,-2.2598,-2.2637,-2.273,-2.3062,-2.3101,-2.3101,-2.3101,-2.3101,-2.3101,-2.3101,-2.3101,-2.3101,-2.3101,-2.3101,-2.3101,-2.3101,-2.3179,-2.3437,-2.3789,-2.3867,-2.4316,-2.5106,-2.5106,-2.4602,-2.3633,-2.2265,-2.0928,-1.9591,-1.8534,-1.8603,-1.9328,-1.9367,-1.943,-1.943,-1.943,-1.943,-1.943,-2.3101,-2.3101,-2.3159,-2.3418,-2.3633,-2.3867,-2.4062,-2.4102,-2.4336,-2.5,-2.5449,-2.5723,-2.5693,-2.5527,-2.541,-2.541,-2.5,-2.4746,-2.4746,-2.4746,-2.4746,-2.4746,-2.5176,-2.541,-2.541,-2.5625,-2.5693,-2.5693,-2.5508,-2.541,-2.541,-2.541,-2.5176,-2.4766,-2.5449,-2.544,-2.505,-2.5499,-2.5859,-2.6074,-2.6523,-2.709,-2.7656,-2.7656,-2.793,-2.8203,-2.7578,-2.707,-2.6562,-2.5703,-2.4824,-2.3984,-2.3296,-2.3237,-2.3418,-2.3159,-2.3101,-2.295,-2.2359,-2.2077,-2.1907,-2.1907,-2.1607,0.0,0.0,-2.0326,-1.9897,-1.9143,-1.863,-1.8557,-1.9443,-1.9353,-1.9449,-2.0391,-2.0527,-2.0723,-2.1212,-2.1602,-2.1973,-2.2168,-2.2207,-2.2285,-2.25,-2.2519,-2.2555,-2.2812,-2.2789,-2.2867,-2.3081,-2.3101,-2.3101,-2.3101,-2.3101,-2.3101,-2.3101,-2.3101,-2.3198,-2.3457,-2.3457,-2.3809,-2.4434,-2.4648,-2.3898,-2.2341,-2.1879,-2.0538,-1.8579,-1.8184,-1.8169,-1.8475,-1.8971,-1.9239,-1.943,-1.943,-1.943,-1.943,-2.3101,-2.3101,-2.3198,-2.3594,-2.3789,-2.4023,-2.4355,-2.4492,-2.4883,-2.581,-2.6523,-2.6719,-2.622,-2.625,-2.623,-2.6113,-2.5312,-2.5047,-2.541,-2.5137,-2.4988,-2.4988,-2.5449,-2.5615,-2.544,-2.5596,-2.5693,-2.5693,-2.5693,-2.5693,-2.5693,-2.5693,-2.5304,-2.4707,-2.5284,-2.5312,-2.4844,-2.5421,-2.6083,-2.6777,-2.6953,-2.6914,-2.6875,-2.791,-2.8242,-2.8125,-2.7695,-2.6816,-2.581,-2.5713,-2.5148,-2.4414,-2.3588,-2.3574,-2.373,-2.3413,-2.3218,-2.2882,-2.1768,-2.141,-2.1392,-2.132,-2.0944,-2.0465,0.0,0.0,0.0,-1.854,-1.7562,-1.7359,-1.9333,-1.8976,-1.8713,-1.9732,-1.998,-2.0061,0.0,-2.1013,0.0,-2.1758,-2.168,-2.174,-2.1875,-2.1953,-2.2065,-2.2163,-2.245,-2.2773,-2.3081,-2.3101,-2.3101,-2.3101,-2.3101,-2.3101,-2.3101,-2.3101,-2.3101,-2.3101,-2.3101,-2.3379,-2.3809,-2.4219,-2.3278,-2.1427,-2.1595,-2.0282,-1.7964,-1.7956,-1.7942,-1.8049,-1.8637,-1.9025,-1.9279,-1.9279,-1.9319,-1.943,-2.3101,-2.3101,-2.312,-2.3159,-2.3803,-2.4355,-2.4414,-2.4746,-2.5449,-2.6699,-2.6641,-2.6855,-2.7891,-2.6699,-2.625,-2.7344,-2.5293,-2.4746,-2.668,-2.5352,-2.4492,-2.4492,-2.5245,-2.5323,-2.459,-2.5284,-2.5693,-2.5693,-2.5693,-2.5693,-2.5693,-2.5693,-2.5635,-2.5518,-2.5273,-2.5527,-2.6152,-2.581,-2.5752,-2.5908,-2.6699,-2.7441,-2.8086,-2.8242,-2.8066,-2.7728,-2.7246,-2.6758,-2.625,-2.581,-2.541,-2.4902,-2.4414,-2.4043,-2.3848,-2.418,-2.3686,-2.2959,-2.2135,-2.1815,-2.1679,-2.1392,-2.0657,-2.0096,-2.0509,0.0,-1.9003,-1.9667,0.0,-1.9833,-2.0835,0.0,0.0,-2.0001,-2.0234,-2.0062,-1.874,-1.981,-2.0859,-2.1229,-2.0957,-2.1055,-2.1816,-2.2227,-2.2059,-2.1158,-2.2312,-2.3042,-2.3101,-2.3101,-2.3101,-2.3101,-2.3101,-2.3101,-2.3101,-2.3101,-2.3101,-2.3101,-2.3101,-2.3379,-2.3809,-2.4219,-2.3787,-2.2717,-2.1996,-2.0794,-1.928,-1.8135,-1.7796,-1.8022,-1.841,-1.8718,-1.8971,-1.8971,-1.9145,-1.943,-2.3101,-2.3101,-2.3257,-2.3744,-2.418,-2.459,-2.505,-2.6387,-2.7324,-2.7383,-2.834,-2.9004,-2.9023,-2.8398,-2.7891,-2.7728,-2.6445,-2.584,-2.62,-2.5352,-2.4902,-2.5128,-2.5479,-2.5518,-2.5148,-2.5499,-2.5693,-2.5693,-2.5693,-2.5693,-2.5693,-2.5693,-2.5421,-2.4933,-2.5039,-2.5047,-2.4922,-2.5488,-2.583,-2.6172,-2.6777,-2.7383,-2.791,-2.7656,-2.7285,-2.6894,-2.6719,-2.6367,-2.5937,0.0,-2.5391,-2.5293,-2.4355,-2.4277,-2.4473,-2.4141,-2.3965,-2.3577,-2.2318,-2.1979,0.0,0.0,0.0,0.0,-1.9962,0.0,-1.7969,0.0,0.0,0.0,0.0,0.0,0.0,0.0,-1.9392,-1.9595,-1.8798,0.0,-1.919,-1.8954,0.0,0.0,-2.1114,-2.1289,-2.1322,-2.11,-2.1665,-2.2204,-2.2711,-2.273,-2.2847,-2.3081,-2.3101,-2.3101,-2.3101,-2.3101,-2.3101,-2.3101,-2.3101,-2.3198,-2.3393,-2.3304,-2.2582,-2.1465,-2.0758,-1.9731,-1.8408,-1.7845,-1.7662,-1.7796,-1.7916,-1.8357,-1.8918,-1.8918,-1.9118,-1.943,-2.3257,-2.3179,-2.3296,-2.3919,-2.4258,-2.4766,-2.5713,-2.7226,-2.8164,-2.8027,-2.9277,-3.0117,-2.9941,-2.9609,-2.916,-2.8648,-2.75,-2.668,-2.6289,-2.5625,-2.5176,-2.5039,-2.5605,-2.5684,-2.5167,-2.5499,-2.5693,-2.5693,-2.5693,-2.5693,-2.5693,-2.5693,-2.5343,-2.4785,-2.5117,-2.498,-2.457,-2.5508,-2.6172,-2.6582,-2.6894,-2.7129,-2.7337,-2.6973,-2.666,-2.6367,-2.625,-2.5996,-2.5635,-2.5371,-2.5469,0.0,-2.4629,-2.459,-2.4785,-2.4297,-2.4102,-2.377,-2.2529,0.0,0.0,0.0,0.0,0.0,0.0,0.0,0.0,0.0,0.0,0.0,0.0,0.0,-1.7324,-1.7709,0.0,-1.8737,-1.8112,-1.8018,-1.7948,-1.7785,0.0,0.0,0.0,-1.9662,-2.0008,-2.0286,-2.0702,-2.139,-2.2438,-2.2519,-2.2652,-2.3081,-2.3101,-2.295,-2.2624,-2.295,-2.2775,-2.2138,-2.2448,-2.2448,-2.2113,-2.1964,-2.1162,-1.9893,-1.9699,-1.8864,-1.7582,-1.7582,-1.7582,-1.7582,-1.7582,-1.8076,-1.8811,-1.8811,-1.9038,-1.943,-2.3691,-2.3437,-2.3101,-2.314,-2.3822,-2.4863,-2.6172,-2.6426,-2.7051,-2.8672,-2.8574,-2.9004,-3.0664,-2.9707,-2.9434,-3.0684,-2.8105,-2.6758,-2.7611,-2.6426,-2.498,-2.3364,-2.5254,-2.5586,-2.3887,-2.5098,-2.5693,-2.5693,-2.5693,-2.5693,-2.5693,-2.5693,-2.5674,-2.5654,-2.5654,-2.5937,-2.6309,-2.6348,-2.6602,-2.6992,-2.7012,-2.6777,-2.6426,-2.6406,-2.6406,-2.6328,-2.5918,0.0,0.0,-2.5674,-2.5674,0.0,0.0,0.0,0.0,0.0,0.0,0.0,0.0,0.0,0.0,-2.053,0.0,0.0,0.0,0.0,-1.7669,0.0,0.0,0.0,0.0,-1.8758,-1.8485,-1.7715,-1.7728,0.0,0.0,-1.6585,-1.7721,-1.8838,-1.802,0.0,0.0,-1.7192,-1.8071,0.0,-1.9417,-2.0903,-2.2395,-2.2519,-2.2652,-2.3081,-2.3101,-2.2536,-2.1391,-2.2536,-2.1943,-1.9633,-2.0792,-2.0747,-1.965,-2.0334,-1.9894,-1.8587,-1.9292,-1.8864,-1.7582,-1.7582,-1.7582,-1.7582,-1.7582,-1.7956,-1.8504,-1.8504,-1.8865,-1.943,-2.3711,-2.3672,-2.375,-2.4316,-2.4414,-2.4961,-2.6562,-2.7519,-2.8691,-3.041,-3.1016,-3.1816,-3.3262,-3.3008,-3.2461,-3.1797,-3.0527,-2.9414,-2.8555,-2.7559,-2.6621,-2.5742,-2.6406,-2.6406,-2.5527,-2.5937,-2.6172,-2.6172,-2.583,-2.5693,-2.5693,-2.5693,-2.5693,-2.5693,-2.5693,-2.5488,-2.5137,-2.6016,-2.6133,-2.5781,-2.6367,-2.668,-2.6777,0.0,-2.6211,-2.5937,-2.5752,-2.5693,0.0,-2.5693,-2.5693,-2.5635,-2.5391,-2.5098,-2.4824,-2.4668,-2.4336,0.0,0.0,0.0,-2.3218,-2.2684,0.0,0.0,0.0,0.0,0.0,0.0,0.0,0.0,0.0,-1.7505,-1.7644,-1.6355,-1.6758,-1.6944,0.0,-1.608,-1.6108,-1.5794,-1.6026,-1.6396,0.0,0.0,0.0,0.0,-1.7846,0.0,-2.0885,-2.0983,-2.1237,-2.188,-2.1898,-2.1346,-2.0116,-2.0494,-2.0314,-1.9497,-1.9889,-1.9906,-1.9513,-1.9115,-1.8786,-1.8489,-1.8173,-1.7863,-1.7582,-1.7582,-1.7582,-1.7582,-1.7582,-1.7956,-1.849,-1.849,-1.8865,-1.943,-2.416,-2.4121,-2.418,-2.4746,-2.5,-2.5644,-2.7226,-2.8691,-3.0137,-3.1562,-3.2617,-3.3672,-3.4824,-3.4805,-3.4258,-3.3164,-3.2402,-3.1172,-2.9277,-2.8945,-2.8144,-2.6621,-2.7148,-2.6973,-2.5937,-2.623,-2.6309,-2.6152,-2.6035,-2.5977,-2.5977,-2.5752,-2.5693,-2.5693,-2.6005,-2.5625,-2.4727,-2.6055,-2.6113,-2.5391,-2.625,-2.668,-2.6758,0.0,-2.6309,-2.6103,0.0,-2.5693,-2.5693,-2.5693,-2.5693,-2.5635,-2.5391,-2.5195,-2.5067,-2.4727,-2.4531,-2.4355,-2.4082,-2.4004,0.0,-2.3312,-2.2574,0.0,-2.1454,0.0,-2.0729,0.0,0.0,0.0,0.0,-1.7451,-1.7392,-1.6355,-1.6352,-1.6235,0.0,-1.539,-1.5022,-1.4327,-1.4755,-1.5377,-1.5914,-1.5928,-1.6099,-1.6532,-1.6517,-1.7383,0.0,0.0,-1.9912,-2.0639,-2.0657,-2.007,-1.8856,-1.9268,-1.9085,-1.8211,-1.8626,-1.8626,-1.818,-1.768,-1.7629,-1.7846,-1.7364,-1.7367,-1.7582,-1.7582,-1.7582,-1.7582,-1.7582,-1.7956,-1.849,-1.849,-1.8865,-1.943,-2.5019,-2.4824,-2.459,-2.4609,-2.5625,-2.6875,-2.8164,-2.9805,-3.123,-3.2168,-3.3398,-3.4512,-3.543,-3.5098,-3.4805,-3.4766,-3.3613,-3.1992,-2.9902,-3.0488,-2.9434,-2.6044,-2.748,-2.7344,-2.5282,-2.6016,-2.623,-2.5752,-2.6191,-2.6406,-2.6406,-2.5977,-2.5732,-2.5791,-2.668,-2.6309,-2.5204,-2.6465,-2.6523,-2.5752,-2.6621,-2.6738,-2.6406,-2.6367,-2.6641,-2.6914,-2.5986,-2.5693,-2.5693,-2.5693,-2.5693,-2.5693,-2.5693,-2.543,-2.5106,-2.5106,-2.4766,-2.4414,-2.4394,-2.4394,-2.4002,-2.252,0.0,0.0,0.0,0.0,-2.1749,0.0,0.0,0.0,0.0,0.0,-1.7684,-1.7591,-1.6369,-1.5204,-1.4643,-1.4549,-1.4536,-1.4536,-1.4282,-1.4001,-1.3666,-1.3921,-1.4393,-1.5182,-1.5476,-1.6385,0.0,0.0,-1.8649,-1.9356,-1.9389,-1.881,-1.7638,-1.8718,-1.8118,-1.5832,-1.7044,-1.6998,-1.5798,-1.6126,-1.6406,-1.67,-1.7045,-1.734,-1.7555,-1.7569,-1.7582,-1.7582,-1.7582,-1.7956,-1.849,-1.8517,-1.8891,-1.943,-2.541,-2.625,-2.6934,-2.7246,-2.7324,-2.7826,-2.9043,-3.0176,-3.166,-3.3769,-3.4902,-3.5957,-3.7148,-3.6894,-3.6367,-3.5742,-3.4785,-3.3711,-3.25,-3.1758,-3.0664,-2.9121,-2.8867,-2.8203,-2.7082,-2.7278,-2.7129,-2.6699,-2.6484,-2.6543,-2.6836,-2.6426,-2.6387,-2.6719,-2.7246,-2.6602,-2.5204,-2.6465,-2.6523,-2.5713,-2.5927,-2.6387,-2.6777,0.0,-2.6367,-2.6914,-2.5986,-2.5693,-2.5693,-2.5693,-2.5693,-2.5693,-2.5693,-2.543,-2.5106,-2.5106,-2.4766,-2.4355,-2.4043,-2.3945,-2.3913,-2.3832,-2.3549,-2.3305,0.0,0.0,0.0,0.0,0.0,0.0,0.0,0.0,0.0,-1.6433,-1.5765,-1.5351,-1.519,-1.499,-1.4843,-1.4843,-1.4589,-1.4376,-1.4295,-1.3933,-1.3939,-1.4365,-1.4241,-1.4933,-1.6734,0.0,0.0,-1.7764,-1.8041,-1.7544,-1.6292,-1.6608,-1.6419,-1.5784,-1.6103,-1.6103,-1.5784,-1.5912,-1.6099,-1.6393,-1.6687,-1.6981,-1.7326,-1.7541,-1.7582,-1.7582,-1.7582,-1.7956,-1.8544,-1.8985,-1.9296,-1.943,-2.5918,-2.7207,-2.834,-2.8769,-2.9277,-2.9939,-3.0663,-3.1289,-3.2383,-3.418,-3.5527,-3.6367,-3.6504,-3.6992,-3.6953,-3.6094,-3.5215,-3.4258,-3.3223,-3.248,-3.1426,-2.998,-2.9453,-2.8555,-2.7129,-2.7109,0.0,-2.6415,-2.6211,-2.6523,-2.7285,-2.6484,-2.6426,-2.7031,-2.7266,-2.6738,-2.5684,-2.623,-2.6289,-2.5996,-2.5771,-2.5986,0.0,-2.5869,-2.5986,-2.6387,-2.5869,-2.5693,-2.5693,-2.5693,-2.5693,-2.5693,-2.5693,-2.5566,-2.5352,-2.5352,-2.5195,-2.4902,-2.4473,-2.4355,-2.4355,-2.4414,-2.4102,-2.3751,-2.3651,-2.389,-2.3666,0.0,0.0,0.0,0.0,0.0,0.0,-1.6008,-1.5698,-1.5538,-1.5418,-1.5257,-1.515,-1.515,-1.4897,-1.471,-1.471,-1.4188,-1.3854,-1.3895,-1.3854,-1.4322,0.0,0.0,0.0,-1.6404,-1.6942,-1.6793,-1.5832,-1.6037,-1.6037,-1.5784,-1.5784,-1.5784,-1.5784,-1.5784,-1.5992,-1.6286,-1.658,-1.6874,-1.7219,-1.7514,-1.7582,-1.7609,-1.7876,-1.8183,-1.8557,-1.9158,-1.943,-1.943,-2.6699,-2.8047,-2.9277,-2.959,-3.1094,-3.2305,-3.248,-3.291,-3.3496,-3.4316,-3.582,-3.6387,-3.5254,-3.6367,-3.6914,-3.6172,-3.5254,-3.4219,-3.3125,-3.2832,-3.1875,-3.0057,-2.9744,-2.8652,-2.668,-2.6523,-2.6289,-2.5849,-2.5752,-2.6406,-2.7689,-2.6406,-2.6289,-2.709,-2.709,-2.6855,-2.6445,-2.5937,-2.5957,-2.6269,-2.5957,-2.5732,-2.5693,-2.581,-2.5791,-2.5693,-2.5752,-2.5732,-2.5693,-2.5693,-2.5693,-2.5693,-2.5693,-2.5693,-2.5693,-2.5693,-2.5693,-2.5596,-2.5195,-2.5106,-2.498,-2.459,-2.418,-2.3647,-2.284,-2.313,-2.3259,-2.1979,-2.1593,-2.1331,0.0,0.0,0.0,-1.5961,-1.5784,0.0,0.0,0.0,-1.5458,-1.5458,-1.5204,0.0,0.0,-1.4512,-1.4015,-1.368,-1.3935,0.0,0.0,0.0,0.0,-1.5337,-1.6152,-1.638,-1.5904,0.0,-1.638,-1.5939,-1.5824,-1.5784,-1.5784,-1.5784,-1.5965,-1.6233,-1.6526,-1.682,-1.7166,-1.7408,-1.7569,-1.7702,-1.8223,-1.8477,-1.8611,-1.9118,-1.9332,-1.943,-2.834,-2.959,-3.0449,-3.0137,-3.1523,-3.3047,-3.4101,-3.4941,-3.5644,-3.6152,-3.709,-3.7617,-3.7383,-3.7012,-3.6719,-3.6562,-3.541,-3.4609,-3.4375,-3.3047,-3.2109,-3.1798,-3.0389,-2.9062,-2.7988,-2.7266,-2.6855,0.0,-2.6044,-2.6406,-2.7689,-2.6719,-2.6738,-2.7559,-2.7559,-2.7305,-2.6855,-2.6025,-2.5732,-2.583,-2.6152,-2.6055,-2.5771,-2.6523,-2.6348,-2.5732,-2.6152,-2.6055,-2.5693,-2.5693,-2.5693,-2.5693,-2.5693,-2.5693,-2.5693,-2.5693,-2.5693,-2.5596,-2.5195,-2.5106,-2.5106,-2.5028,-2.4629,-2.409,-2.3147,-2.2786,-2.2171,-2.0606,-1.9477,-1.8674,-1.8381,0.0,0.0,0.0,0.0,0.0,0.0,0.0,-1.5752,-1.5752,-1.5498,-1.5231,0.0,-1.4643,-1.4322,-1.4028,-1.4055,0.0,0.0,0.0,0.0,0.0,-1.5658,0.0,0.0,0.0,-1.6131,-1.654,-1.6059,-1.5784,-1.5784,-1.5784,-1.5811,-1.5925,-1.6219,-1.6513,-1.6807,-1.7152,-1.7515,-1.7916,-1.8035,-1.8368,-1.8865,-1.8958,-1.9158,-1.943,-3.0098,-3.0605,-3.1094,-3.1758,-3.3125,-3.4492,-3.5566,-3.6836,-3.7344,-3.6445,-3.6875,-3.7012,-3.6328,-3.6699,-3.6816,-3.6367,-3.5332,-3.4609,-3.4394,-3.2988,-3.207,-3.1836,-3.0586,-2.9394,-2.832,-2.7246,-2.6797,-2.7012,0.0,-2.6289,-2.7969,-2.6894,-2.6953,-2.7988,-2.7806,-2.7539,-2.7305,0.0,0.0,-2.6406,-2.6387,-2.6387,-2.6395,-2.6855,-2.6758,-2.6406,-2.6387,-2.625,-2.6035,-2.5771,-2.5693,-2.5693,-2.5693,-2.5693,-2.5693,-2.5693,-2.5693,-2.5635,-2.5469,-2.541,-2.541,-2.541,-2.4536,-2.3396,-2.2306,-2.1707,-2.0901,-1.932,-1.8497,-1.7835,-1.6914,-1.6197,0.0,0.0,0.0,0.0,0.0,0.0,-1.5731,-1.5618,-1.5484,-1.5284,0.0,0.0,0.0,0.0,0.0,0.0,0.0,0.0,0.0,0.0,0.0,0.0,0.0,0.0,0.0,-1.6246,-1.5917,-1.5784,-1.5784,-1.5784,-1.5912,-1.6072,-1.6366,-1.666,-1.6954,-1.73,-1.7635,-1.8009,-1.8223,-1.8544,-1.8945,-1.9092,-1.9239,-1.943,-3.1758,-3.1738,-3.2012,-3.3437,-3.4785,-3.5898,-3.6562,-3.8027,-3.8457,-3.6777,-3.6777,-3.6504,-3.5371,-3.6406,-3.6855,-3.6094,-3.5293,-3.4668,-3.4238,-3.3086,-3.2207,-3.168,-3.082,-2.9746,-2.8457,-2.7168,-2.668,0.0,0.0,0.0,0.0,-2.6953,-2.7051,-2.8008,-2.7826,0.0,0.0,0.0,-2.666,-2.6875,-2.6719,-2.6797,-2.7031,-2.7226,-2.7129,-2.6855,-2.6602,-2.6406,-2.6191,-2.581,-2.5693,-2.5693,-2.5693,-2.5693,-2.5693,-2.5693,-2.5693,-2.5693,-2.5693,-2.5479,-2.5333,-2.5645,-2.4201,-2.2561,-2.1873,-2.095,-1.9859,-1.8502,-1.7875,-1.7237,-1.6014,-1.5784,0.0,0.0,0.0,0.0,0.0,0.0,-1.5725,-1.5431,-1.5444,-1.5324,-1.491,0.0,0.0,0.0,0.0,0.0,-1.4188,0.0,0.0,0.0,0.0,-1.6353,-1.5971,0.0,-1.6353,-1.5971,-1.5838,-1.5784,-1.5784,-1.5851,-1.6046,-1.6286,-1.658,-1.6914,-1.7313,-1.7555,-1.7903,-1.8195,-1.849,-1.8758,-1.9052,-1.9279,-1.943,-1.943,-3.3086,-3.3535,-3.3945,-3.4492,-3.5684,-3.6582,-3.666,-3.7793,-3.8555,-3.8359,-3.8027,-3.7617,-3.7109,-3.6855,-3.6543,-3.6055,-3.5605,-3.5137,-3.4668,-3.3809,-3.2949,-3.2148,-3.1289,-3.0215,-2.8887,-2.7617,-2.6973,0.0,0.0,-2.5977,0.0,-2.6836,-2.7031,0.0,0.0,0.0,0.0,-2.6836,-2.6758,-2.6504,-2.7297,-2.7324,-2.7109,-2.7871,-2.7461,-2.6484,-2.6836,-2.6465,-2.5752,-2.5693,-2.5693,-2.5693,-2.5693,-2.5693,-2.5693,-2.5693,-2.5693,-2.5693,-2.5693,-2.4805,-2.4196,-2.5382,-2.3764,-2.2097,-2.3231,-2.1476,-1.946,-1.878,-1.7236,-1.5953,-1.5832,-1.5784,-1.5784,0.0,0.0,0.0,0.0,0.0,-1.5725,-1.5431,0.0,-1.5425,-1.4643,-1.5044,0.0,0.0,-1.4509,0.0,0.0,0.0,0.0,-1.5008,0.0,-1.6139,-1.662,-1.6152,-1.6152,-1.662,-1.6037,-1.5784,-1.5784,-1.6112,-1.6246,-1.6286,-1.658,-1.7021,-1.7569,-1.7876,-1.8275,-1.8838,-1.8878,-1.9065,-1.939,-1.9417,-1.943,-1.943,-3.4863,-3.4687,-3.4824,-3.6055,-3.6484,-3.6934,0.0,-3.8457,-3.8867,-3.8613,-3.8203,-3.7851,-3.7695,-3.707,-3.6601,-3.6426,-3.5781,-3.5312,-3.5137,-3.4062,-3.3164,-3.2578,-3.1719,-3.0762,-2.9707,-2.8437,-2.7773,0.0,0.0,0.0,0.0,0.0,0.0,0.0,0.0,-2.6719,-2.6406,-2.6562,-2.6699,-2.6816,-2.7474,-2.7715,-2.7812,-2.8164,-2.7812,-2.7148,-2.7051,-2.6641,-2.6094,-2.5771,-2.5693,-2.5693,-2.5693,-2.5693,-2.5693,-2.5693,-2.5693,-2.5693,-2.5693,-2.4707,-2.3998,-2.5382,-2.3035,-2.0794,-2.2165,-2.0385,-1.8226,-1.761,-1.6573,-1.5784,-1.5784,-1.5784,-1.5784,0.0,0.0,0.0,0.0,0.0,0.0,-1.519,0.0,-1.5364,-1.4843,-1.515,0.0,0.0,0.0,0.0,0.0,0.0,0.0,-1.5231,0.0,-1.5939,-1.6179,-1.5904,-1.5904,-1.6179,-1.5939,-1.5925,-1.6099,-1.6219,-1.6522,-1.6871,-1.7101,-1.7475,-1.7876,-1.7942,-1.8342,-1.8918,-1.8918,-1.9105,-1.943,-1.943,-1.943,-1.943,-3.6269,-3.5898,-3.5976,-3.7578,-3.7519,-3.7578,-3.8594,-3.8906,-3.8906,-3.8613,-3.8203,-3.7871,-3.7754,-3.7207,-3.6758,-3.6504,-3.5918,-3.5527,-3.541,-3.4394,-3.3555,-3.3008,-3.2168,0.0,-3.043,-2.9258,-2.8613,-2.8476,-2.7754,0.0,0.0,0.0,0.0,0.0,-2.6621,-2.6504,-2.6387,-2.6523,-2.6738,-2.707,-2.7617,-2.8027,-2.8301,-2.8301,-2.8027,-2.7669,-2.7324,-2.6855,-2.6348,-2.6035,-2.5791,-2.5693,-2.5693,-2.5693,-2.5693,-2.5693,-2.543,-2.5118,-2.5118,-2.385,-2.2818,-2.4196,-2.176,-1.9443,-2.1158,-1.9427,-1.7288,-1.67,-1.6179,-1.5784,-1.5784,-1.5784,-1.5784,-1.5784,0.0,0.0,0.0,-1.5784,0.0,-1.515,-1.5351,-1.5378,-1.5048,-1.5297,0.0,0.0,0.0,0.0,0.0,0.0,0.0,0.0,0.0,0.0,0.0,-1.5784,-1.5784,-1.5784,-1.5784,-1.5979,-1.6335,-1.6496,-1.6857,-1.734,-1.7582,-1.7889,-1.8129,-1.8209,-1.8542,-1.9052,-1.9052,-1.9185,-1.943,-1.943,-1.943,-1.943,-3.7031,-3.7266,-3.7676,-3.8945,-3.8828,-3.8691,-3.9121,-3.8848,-3.8574,-3.8574,-3.8203,-3.7773,-3.7344,-3.7305,-3.6953,-3.6094,-3.6016,-3.584,-3.543,-3.4941,-3.4297,0.0,0.0,-3.1758,-3.0898,-3.0019,-2.9355,-2.8906,0.0,0.0,-2.7031,0.0,-2.7246,-2.7689,-2.7207,-2.6777,-2.6426,-2.6836,-2.7012,-2.709,-2.7949,-2.8281,-2.8301,-2.8301,-2.8027,-2.7728,-2.7708,-2.7161,-2.6387,-2.6387,-2.6094,-2.5693,-2.5693,-2.5693,-2.5693,-2.5693,-2.4756,-2.3732,-2.3732,-2.171,-1.9989,-2.1405,-1.9664,-1.8272,-2.0634,-1.9134,-1.7045,-1.6455,-1.6046,-1.5784,-1.5784,-1.5784,-1.5784,-1.5784,0.0,0.0,0.0,-1.5784,0.0,-1.5431,-1.5645,-1.5605,-1.5062,-1.5484,0.0,0.0,0.0,0.0,0.0,0.0,0.0,-1.5391,-1.5671,0.0,-1.5784,-1.5784,-1.5784,-1.5784,-1.5784,-1.5979,-1.6335,-1.6924,-1.7353,-1.7595,-1.7849,-1.8155,-1.8504,-1.8798,-1.9092,-1.9359,-1.9359,-1.9417,-1.943,-1.943,-1.943,-1.943,-3.7969,-3.8164,-3.8301,-3.8711,-3.8672,-3.8613,-3.875,-3.8652,-3.8574,-3.8574,-3.8457,-3.8086,-3.7383,-3.7051,-3.6758,0.0,-3.5937,-3.5527,0.0,-3.4687,-3.4023,-3.3437,-3.2617,-3.1894,-3.1328,-3.0449,-2.9785,-2.9355,0.0,0.0,0.0,-2.7891,-2.7656,-2.7226,-2.707,-2.6934,-2.6836,-2.6953,-2.7187,-2.748,-2.7754,-2.8047,-2.8301,-2.8301,-2.8027,-2.7728,-2.7728,-2.7109,-2.6387,-2.6387,-2.6094,-2.5693,-2.5693,-2.5693,-2.5528,-2.4609,-2.4048,-2.3484,-2.2567,-2.0998,-1.9937,-2.1355,-1.9612,-1.7959,-1.9512,-1.816,-1.6549,-1.6362,-1.6032,-1.5784,-1.5784,-1.5784,-1.5784,-1.5784,-1.5784,0.0,0.0,0.0,-1.5725,-1.5431,-1.5658,-1.5671,-1.5297,-1.5605,0.0,0.0,0.0,0.0,0.0,0.0,0.0,0.0,-1.5778,0.0,-1.5784,-1.6032,-1.6126,-1.6126,-1.6326,-1.658,-1.6938,-1.7313,-1.7502,-1.7595,-1.7862,-1.8223,-1.8517,-1.8811,-1.9092,-1.943,-1.943,-1.943,-1.943,-1.943,-1.943,-1.943,-3.8437,-3.8574,-3.8633,-3.8789,-3.8672,-3.8633,-3.8789,-3.8672,-3.8516,-3.8359,-3.834,-3.8008,-3.7148,-3.6836,0.0,-3.6445,-3.5801,-3.5391,-3.5391,-3.457,-3.3945,-3.3672,-3.2695,-3.2031,-3.1758,-3.0898,0.0,-3.0059,-2.9783,-2.9297,-2.8769,-2.8437,-2.8086,-2.7715,-2.7402,-2.7266,-2.7266,-2.7266,-2.7422,-2.7728,-2.7832,-2.8066,-2.8301,-2.8301,-2.8125,-2.7963,-2.7963,-2.7461,-2.6836,-2.668,-2.6445,-2.6142,-2.6035,-2.5613,-2.4963,-2.3985,-2.3335,-2.2667,-2.1288,-1.9886,-1.9072,-1.9922,-1.885,-1.7764,-1.8323,-1.7238,-1.6139,-1.6246,-1.6032,-1.5784,-1.5784,-1.5784,-1.5784,-1.5784,-1.5784,-1.5784,-1.5784,0.0,-1.5765,0.0,0.0,0.0,0.0,-1.5678,-1.5784,0.0,0.0,0.0,0.0,0.0,0.0,-1.5784,-1.5784,0.0,-1.5784,-1.6126,-1.6321,-1.6273,-1.6673,-1.7018,-1.7219,-1.7569,-1.7756,-1.7782,-1.8196,-1.8477,-1.8677,-1.8971,-1.9199,-1.943,-1.943,-1.943,-1.943,-1.943,-1.943,-1.943,-3.8496,-3.8574,-3.8691,0.0,-3.8828,0.0,-3.9101,-3.8828,-3.8418,-3.7988,-3.793,-3.7598,-3.6758,-3.668,-3.6484,-3.6055,0.0,0.0,0.0,-3.4512,-3.4023,-3.4023,-3.2832,-3.2229,-3.2229,-3.1328,-3.0898,-3.0898,-3.0059,-2.9648,-2.959,-2.8789,-2.8594,-2.8887,-2.8105,-2.7787,-2.7767,-2.7728,-2.7728,-2.7787,-2.8105,-2.8262,-2.8301,-2.8301,-2.8301,-2.8301,-2.8301,-2.8027,-2.765,-2.7168,-2.7012,-2.6883,-2.6423,-2.5327,-2.4188,-2.3727,-2.2634,-2.1237,-1.9834,-1.8551,-1.7582,-1.7582,-1.7569,-1.7475,-1.7233,-1.6473,-1.5939,-1.6192,-1.6019,-1.5784,-1.5784,-1.5784,-1.5784,-1.5784,-1.5784,-1.5784,-1.5784,0.0,-1.5784,0.0,0.0,0.0,0.0,-1.5784,-1.5784,0.0,0.0,0.0,0.0,0.0,-1.5798,-1.5784,-1.5798,-1.5811,-1.5811,-1.6179,-1.6388,-1.6415,-1.6991,-1.7259,-1.7286,-1.7809,-1.8022,-1.8049,-1.8621,-1.8918,-1.8945,-1.9239,-1.943,-1.943,-1.943,-1.943,-1.943,-1.943,-1.943,-1.943,0.0,0.0,-3.8613,-3.8711,-3.8633,-3.8613,-3.8711,-3.8633,-3.8418,-3.7988,-3.793,-3.7598,-3.6758,-3.668,-3.6484,-3.6055,-3.5312,-3.4863,-3.4863,-3.4062,-3.3574,-3.3574,-3.2676,-3.2229,-3.2229,-3.1328,-3.0898,-3.0898,-3.0684,-3.0391,-3.0039,-2.9844,-2.9453,-2.8906,-2.8711,-2.8437,-2.8125,-2.7865,-2.7904,-2.8125,-2.791,-2.8008,-2.8301,-2.8301,-2.8301,-2.8301,-2.8301,-2.8027,-2.765,-2.7168,-2.7012,-2.673,-2.5136,-2.4481,-2.4089,-2.298,-2.1412,-1.9782,-1.8447,-1.7832,-1.7582,-1.7582,-1.7474,-1.7219,-1.6874,-1.6473,-1.6126,-1.5965,-1.5872,-1.5784,-1.5784,-1.5784,-1.5784,-1.5784,-1.5784,-1.5784,-1.5784,-1.5784,0.0,0.0,-1.5784,-1.5784,-1.5784,-1.5784,-1.5925,0.0,0.0,0.0,0.0,-1.6166,-1.6059,-1.5784,-1.6046,-1.6166,-1.6166,-1.6737,-1.7099,-1.7275,-1.7649,-1.7836,-1.7849,-1.821,-1.8384,-1.841,-1.8771,-1.8918,-1.8945,-1.9239,-1.943,-1.943,-1.943,-1.943,-1.943,-1.943,-1.943,-1.943,-3.8496,-3.8418,-3.834,-3.8535,-3.8574,-3.8574,-3.8574,-3.8574,-3.834,-3.7715,-3.7637,-3.7324,-3.6465,-3.6367,-3.6191,-3.5762,-3.5098,-3.4707,-3.4707,-3.3906,-3.3418,-3.3418,-3.2617,-3.2229,-3.2229,-3.1328,-3.0898,-3.0898,-3.0898,-3.0762,-3.0508,-3.0293,-2.9844,-2.9199,-2.9004,-2.8691,-2.8281,-2.8047,-2.8086,-2.8281,-2.8047,-2.8086,-2.8301,-2.8301,-2.8301,-2.8262,-2.8066,-2.7988,-2.7851,-2.7226,-2.7266,-2.724,-2.531,-2.4208,-2.3393,-2.1978,-2.0631,-1.9317,-1.7937,-1.7582,-1.7582,-1.7582,-1.742,-1.7166,-1.6941,-1.658,-1.6233,-1.6072,-1.5925,-1.5784,-1.5784,-1.5784,-1.5784,-1.5784,-1.5784,-1.5784,-1.5784,-1.5784,0.0,-1.5784,-1.5784,-1.5784,-1.5784,-1.5784,-1.5899,-1.6059,-1.5925,0.0,-1.6259,-1.6321,-1.6206,-1.6032,-1.6313,-1.6473,-1.6473,-1.6978,-1.742,-1.7796,-1.7916,-1.8062,-1.8263,-1.8557,-1.8691,-1.8704,-1.8998,-1.9132,-1.9132,-1.9305,-1.943,-1.943,-1.943,-1.943,-1.943,-1.943,-1.943,-1.943,-3.8398,-3.8223,-3.8144,-3.8516,-3.8574,-3.8574,-3.8574,-3.8516,-3.8184,-3.7402,-3.7246,-3.6894,-3.6113,-3.6016,-3.5859,-3.543,-3.4961,-3.4668,-3.4609,-3.3867,-3.3418,-3.3418,-3.2617,-3.2229,-3.2229,-3.1328,-3.0898,-3.0898,-3.0898,-3.0898,-3.0879,-3.0488,-3.0078,-2.9648,-2.9219,-2.8789,-2.8379,-2.832,-2.8301,-2.8301,-2.8301,-2.8301,-2.8301,-2.8301,-2.8301,-2.8242,-2.7891,-2.7988,-2.8164,-2.7383,-2.748,-2.7649,-2.5684,-2.3922,-2.2333,-2.0831,-1.9861,-1.9078,-1.7898,-1.7582,-1.7582,-1.7582,-1.7447,-1.7259,-1.7206,-1.6777,-1.6326,-1.6335,-1.6032,-1.5784,-1.5784,-1.5784,-1.5784,-1.5784,-1.5784,-1.5784,-1.5784,0.0,-1.5798,-1.5885,-1.5899,-1.5912,-1.5904,-1.5965,-1.5979,-1.6019,-1.5944,-1.6086,-1.6442,-1.6446,-1.6496,-1.6455,-1.6647,-1.682,-1.6914,-1.7154,-1.7569,-1.8062,-1.8102,-1.8262,-1.8571,-1.8851,-1.8985,-1.8998,-1.9252,-1.943,-1.943,-1.943,-1.943,-1.943,-1.943,-1.943,-1.943,-1.943,-1.9457,-1.9426,-3.8008,-3.8262,-3.8496,-3.8555,-3.8574,-3.8574,-3.8574,-3.8262,-3.7851,-3.7363,-3.6992,-3.6582,-3.6074,-3.6016,-3.5859,-3.543,-3.4961,-3.4551,-3.4199,-3.3691,-3.3418,-3.3418,-3.2617,-3.2229,-3.2229,-3.1328,-3.0898,-3.0898,-3.0898,-3.0898,-3.0898,-3.082,-3.0547,-3.0078,-2.9668,-2.9238,-2.8789,-2.8437,-2.8301,-2.8301,-2.8301,-2.8301,-2.8301,-2.8301,-2.8301,-2.8281,-2.8223,-2.8242,-2.8223,-2.7734,-2.7058,-2.6082,-2.4173,-2.2535,-2.1068,-1.9361,-1.8564,-1.8131,-1.7702,-1.7582,-1.7582,-1.7582,-1.7555,-1.7501,-1.7259,-1.6938,-1.6567,-1.6375,-1.6032,-1.5784,-1.5784,-1.5784,-1.5784,-1.5784,-1.5784,-1.5784,-1.5784,0.0,-1.5925,-1.6179,-1.6206,-1.6299,-1.654,-1.6567,-1.6673,-1.6978,-1.6714,-1.67,-1.7045,-1.73,-1.7261,-1.7072,-1.7112,-1.7328,-1.7782,-1.7836,-1.8076,-1.8424,-1.8664,-1.8811,-1.8865,-1.9158,-1.9292,-1.9305,-1.9403,-1.943,-1.943,-1.943,-1.943,-1.943,-1.943,-1.943,-1.943,-1.943,-1.9519,-1.9693,-3.8223,-3.8242,-3.8301,-3.8535,-3.8574,-3.8574,-3.8574,-3.8398,-3.8047,-3.7383,-3.7129,-3.6758,-3.6094,-3.6016,-3.5742,-3.5078,-3.4824,-3.4414,-3.3769,-3.3535,-3.3418,-3.3418,-3.2832,-3.2285,-3.1816,-3.1211,-3.0898,-3.0898,-3.0898,-3.0898,-3.0898,-3.0898,-3.0644,-3.0176,-2.9766,-2.9336,-2.8887,-2.8476,-2.8301,-2.8301,-2.8301,-2.8301,-2.8301,-2.8301,-2.8301,-2.8262,-2.8027,-2.8105,-2.8116,-2.6858,-2.633,-2.5682,-2.3125,-2.1785,-2.0811,-1.9001,-1.8156,-1.7769,-1.7622,-1.7582,-1.7582,-1.7582,-1.7582,-1.7502,-1.7259,-1.7099,-1.682,-1.6366,-1.6166,-1.6019,-1.5811,-1.5784,-1.5885,-1.6046,-1.5939,0.0,0.0,-1.6072,-1.6112,-1.6259,-1.6406,-1.6553,-1.6687,-1.67,-1.6767,-1.6901,-1.678,-1.6834,-1.7192,-1.7474,-1.7515,-1.7434,-1.7542,-1.7769,-1.7995,-1.821,-1.8357,-1.849,-1.8784,-1.9011,-1.9172,-1.9305,-1.943,-1.943,-1.943,-1.943,-1.943,-1.943,-1.943,-1.943,-1.943,-1.943,-1.9444,-1.9546,-1.9679,-1.98,-3.834,-3.8164,-3.8066,-3.8496,-3.8574,-3.8574,-3.8574,-3.8398,-3.8047,-3.7383,-3.7129,-3.6758,-3.6094,-3.6016,-3.5703,-3.4922,-3.4766,-3.4375,-3.3613,-3.3476,-3.3418,-3.3418,-3.3008,-3.2402,-3.1543,-3.1211,-3.0996,-3.0898,-3.0898,-3.0898,-3.0898,-3.0898,-3.0703,-3.0332,-2.9805,-2.9394,-2.9043,-2.8516,-2.8301,-2.8301,-2.8301,-2.8301,-2.8247,-2.7906,-2.778,-2.7688,-2.7043,-2.6959,-2.7004,-2.5523,-2.5016,-2.4654,-2.2307,-2.1195,-2.0496,-1.8999,-1.821,-1.7782,-1.7702,-1.7689,-1.7689,-1.7689,-1.7635,-1.7528,-1.7353,-1.7246,-1.7072,-1.6616,-1.6469,-1.6299,-1.6072,-1.6032,-1.6086,-1.6246,0.0,0.0,0.0,-1.6321,-1.6375,-1.6509,-1.674,-1.6941,-1.7007,-1.7074,-1.7114,-1.7114,-1.7114,-1.7221,-1.7501,-1.7742,-1.7929,-1.7996,-1.8023,-1.8062,-1.8195,-1.8477,-1.8624,-1.8704,-1.8918,-1.9145,-1.943,-1.943,-1.943,-1.943,-1.943,-1.943,-1.943,-1.943,-1.943,-1.943,-1.9439,-1.9466,-1.9506,-1.9786,-1.9947,-2.0027,-3.7891,-3.7949,-3.8066,-3.8496,-3.8574,-3.8574,-3.8574,-3.791,-3.7363,-3.7305,-3.6601,-3.6094,-3.6035,-3.6016,-3.584,-3.5391,-3.4941,-3.4512,-3.4062,-3.3652,-3.3418,-3.3418,-3.3008,-3.2402,-3.1543,-3.1484,-3.1269,-3.0898,-3.0898,-3.0898,-3.0898,-3.0898,-3.0879,-3.0801,-2.9941,-2.9551,-2.9473,-2.8633,-2.8301,-2.8301,-2.8301,-2.8301,-2.8121,-2.6771,-2.6264,-2.61,-2.462,-2.4139,-2.41,-2.3956,-2.3023,-2.1911,-2.1699,-2.063,-1.9438,-1.8971,-1.8664,-1.8357,-1.8035,-1.7955,-1.7955,-1.7955,-1.7796,-1.7569,-1.7555,-1.7393,-1.7192,-1.7152,-1.686,-1.666,-1.6647,-1.6633,-1.6567,-1.6362,0.0,0.0,-1.6321,-1.6321,-1.6522,-1.7072,-1.7393,-1.7635,-1.7862,-1.8196,-1.8357,-1.8357,-1.8357,-1.837,-1.8384,-1.8664,-1.8958,-1.9283,-1.8464,-1.8249,-1.8851,-1.8878,-1.9038,-1.9305,-1.9319,-1.9403,-1.943,-1.943,-1.943,-1.943,-1.943,-1.943,-1.943,-1.943,-1.943,-1.9399,-1.9666,-1.9773,-1.98,-2.0094,-2.0374,-2.0575,-3.7891,-3.8144,-3.8379,-3.8555,-3.8359,-3.8164,-3.8164,-3.7676,-3.7207,-3.6953,-3.6621,-3.6328,-3.6055,-3.6016,-3.5859,-3.543,-3.4961,-3.4531,-3.4101,-3.3672,-3.3418,-3.3418,-3.3008,-3.2519,-3.1934,-3.166,-3.1309,-3.0898,-3.0898,-3.0898,-3.0898,-3.0898,-3.0898,-3.0859,-2.9961,-2.9626,-2.9567,-2.8652,-2.8301,-2.8301,-2.8301,-2.7726,-2.6879,-2.6318,-2.548,-2.4599,-2.3989,-2.3822,-2.3654,-2.2758,-2.2081,-2.1415,-2.0529,-1.9866,-1.9305,-1.9011,-1.8838,-1.8731,-1.8568,-1.8464,-1.8277,-1.8035,-1.8103,-1.805,-1.7675,-1.7649,-1.7595,-1.7273,-1.7112,-1.7032,-1.7032,-1.6834,-1.6794,-1.7048,0.0,-1.6607,-1.6844,-1.6871,-1.7018,-1.742,-1.7689,-1.7983,-1.829,-1.8424,-1.849,-1.849,-1.849,-1.849,-1.849,-1.8597,-1.8878,-1.9359,-1.8865,-1.8691,-1.8918,-1.9105,-1.9158,-1.9092,-1.9279,-1.943,-1.943,-1.943,-1.943,-1.943,-1.943,-1.943,-1.943,-1.943,-1.943,-1.943,-1.9492,-1.9639,-1.984,-2.012,-2.0414,-2.0681,-3.7891,-3.8164,-3.8359,-3.8359,-3.8125,-3.7871,-3.7754,-3.7363,-3.6992,-3.6719,-3.6543,-3.6348,-3.6055,-3.6016,-3.5859,-3.543,-3.4961,-3.4531,-3.4101,-3.3672,-3.3418,-3.3418,-3.3144,-3.2734,-3.2187,-3.1875,-3.1445,-3.0898,-3.0898,-3.0898,-3.0898,-3.0898,-3.0898,-3.0859,-3.0098,-2.9766,-2.9726,-2.9004,-2.8691,-2.8637,-2.8128,-2.725,-2.6189,-2.5214,-2.4072,-2.3039,-2.2605,-2.2435,-2.2266,-2.1259,-2.0916,-2.0759,-1.9707,-1.943,-1.9332,-1.9118,-1.9065,-1.9065,-1.9065,-1.8918,-1.8691,-1.8397,-1.841,-1.8384,-1.7969,-1.8036,-1.8063,-1.7662,-1.7621,-1.7621,-1.7621,-1.7408,-1.7368,-1.7675,-1.7395,-1.7194,-1.7408,-1.7435,-1.7542,-1.7836,-1.8143,-1.8342,-1.8611,-1.8718,-1.8771,-1.8771,-1.8771,-1.8771,-1.8771,-1.8771,-1.8945,-1.9417,-1.9172,-1.9065,-1.9065,-1.9265,-1.9265,-1.9065,-1.9265,-1.943,-1.943,-1.943,-1.943,-1.943,-1.9466,-1.9506,-1.9506,-1.9599,-1.9639,-1.9653,-1.9746,-1.9907,-2.0107,-2.0401,-2.0641,-2.0842,-3.7832,-3.793,-3.793,-3.793,-3.793,-3.7773,-3.7363,-3.6934,-3.666,-3.668,-3.6289,-3.6016,-3.6016,-3.6016,-3.5859,-3.543,-3.4961,-3.4531,-3.4101,-3.3672,-3.3418,-3.3418,-3.3418,-3.3027,-3.2187,-3.2229,-3.1758,-3.0898,-3.0898,-3.0898,-3.0898,-3.0898,-3.0898,-3.0859,-3.041,-3.0195,-3.0176,-2.9746,-2.9626,-2.9458,-2.7767,-2.6963,-2.6323,-2.3221,-2.1812,-2.143,-1.9938,-1.943,-1.943,-1.943,-1.943,-1.943,-1.943,-1.943,-1.943,-1.943,-1.943,-1.943,-1.943,-1.943,-1.9292,-1.8998,-1.8704,-1.8504,-1.849,-1.849,-1.849,-1.849,-1.849,-1.849,-1.849,-1.849,-1.8397,-1.8049,-1.7995,-1.7995,-1.7995,-1.7995,-1.8102,-1.8464,-1.8744,-1.8918,-1.8931,-1.9199,-1.943,-1.943,-1.943,-1.943,-1.943,-1.943,-1.943,-1.943,-1.943,-1.943,-1.943,-1.943,-1.943,-1.943,-1.943,-1.943,-1.943,-1.943,-1.943,-1.9386,-1.9666,-1.98,-1.9826,-2.0107,-2.0227,-2.0207,-2.0561,-2.0668,-2.0708,-2.1002,-2.1109,-2.1109,-3.7461,-3.7715,-3.8027,-3.832,-3.7891,-3.7539,-3.7715,-3.6875,-3.6328,-3.6641,-3.6289,-3.6016,-3.6016,-3.6016,-3.5859,-3.543,-3.5273,-3.4863,-3.4121,-3.3672,-3.3418,-3.3418,-3.3418,-3.3164,-3.2617,-3.2324,-3.1894,-3.1328,-3.1035,-3.0898,-3.0898,-3.0898,-3.0898,-3.0859,-3.041,-3.0195,-3.0176,-2.9746,-2.9626,-2.957,-2.9047,-2.7448,-2.5324,-2.4382,-2.2583,-2.0543,-2.0153,-1.9973,-1.9973,-1.9973,-1.984,-1.9639,-1.9439,-1.9506,-1.9626,-1.9484,-1.943,-1.943,-1.943,-1.943,-1.9292,-1.8998,-1.9011,-1.8998,-1.8584,-1.8651,-1.8731,-1.8531,-1.849,-1.8557,-1.8758,-1.8624,-1.8531,-1.8637,-1.849,-1.8357,-1.8357,-1.8357,-1.8464,-1.8758,-1.8865,-1.8998,-1.9212,-1.9319,-1.943,-1.943,-1.943,-1.943,-1.943,-1.943,-1.943,-1.943,-1.943,-1.943,-1.943,-1.943,-1.943,-1.943,-1.943,-1.943,-1.943,-1.943,-1.943,-1.943,-1.9452,-1.9613,-1.9813,-1.9893,-2.0054,-2.0241,-2.0334,-2.0494,-2.0681,-2.0775,-2.0935,-2.1109,-3.7266,-3.7637,-3.8008,-3.8281,-3.7891,-3.7519,-3.7441,-3.6777,-3.6309,-3.6406,-3.6191,-3.6016,-3.6016,-3.6016,-3.5859,-3.543,-3.5078,-3.4648,-3.4101,-3.3672,-3.3418,-3.3418,-3.3418,-3.3223,-3.2812,-3.2539,-3.2129,-3.1523,-3.1269,-3.1055,-3.0898,-3.0898,-3.0898,-3.0879,-3.0586,-3.0469,-3.0449,-3.0195,-3.0098,-3.0041,-2.9374,-2.7539,-2.5109,-2.4418,-2.2512,-2.0167,-2.0167,-2.0167,-2.0167,-2.0167,-2.012,-1.9947,-1.976,-1.9826,-1.9933,-1.976,-1.9706,-1.9706,-1.9706,-1.9706,-1.9666,-1.9492,-1.9399,-1.9279,-1.8918,-1.8971,-1.9052,-1.8878,-1.8838,-1.8891,-1.9065,-1.8958,-1.8891,-1.9078,-1.8958,-1.8838,-1.8838,-1.8838,-1.8905,-1.9078,-1.9092,-1.9172,-1.9403,-1.943,-1.943,-1.943,-1.943,-1.943,-1.943,-1.943,-1.943,-1.943,-1.943,-1.943,-1.943,-1.943,-1.943,-1.943,-1.943,-1.9484,-1.9533,-1.9426,-1.9492,-1.9706,-1.9706,-1.988,-2.016,-2.0267,-2.0414,-2.0575,-2.0575,-2.0695,-2.0842,-2.0842,-2.0962,-2.1109,-3.7168,-3.7539,-3.7812,-3.7851,-3.7832,-3.7578,-3.6894,-3.6719,-3.6543,-3.6191,-3.6094,-3.6055,-3.6016,-3.6016,-3.5859,-3.543,-3.4609,-3.4121,-3.4121,-3.373,-3.3457,-3.3418,-3.3418,-3.3242,-3.2851,-3.2812,-3.2402,-3.1582,-3.1543,-3.1309,-3.0898,-3.0898,-3.0898,-3.0898,-3.0898,-3.0898,-3.0898,-3.0898,-3.0898,-3.0762,-2.9216,-2.7421,-2.5489,-2.3944,-2.2097,-2.0307,-2.0307,-2.0307,-2.0307,-2.0281,-2.0233,-2.0247,-2.0193,-2.0193,-2.0267,-2.0241,-2.0167,-2.0167,-2.0167,-2.0167,-2.0167,-2.0167,-1.984,-1.9497,-1.947,-1.947,-1.947,-1.947,-1.9426,-1.9439,-1.9439,-1.9439,-1.9439,-1.947,-1.947,-1.9457,-1.943,-1.943,-1.943,-1.943,-1.943,-1.943,-1.943,-1.943,-1.943,-1.943,-1.943,-1.943,-1.943,-1.943,-1.943,-1.943,-1.943,-1.943,-1.947,-1.947,-1.947,-1.947,-1.947,-1.9559,-1.9826,-1.9559,-1.9733,-2.0167,-2.0167,-2.0401,-2.0695,-2.0962,-2.1082,-2.1109,-2.1109,-2.1109,-2.1109,-2.1109,-2.1109,-2.1109,-3.6797,-3.6875,-3.7051,-3.7383,-3.7168,-3.7109,-3.7578,-3.709,-3.6758,-3.6992,-3.6738,-3.6406,-3.6055,-3.6016,-3.5859,-3.543,-3.4883,-3.457,-3.457,-3.416,-3.3769,-3.3437,-3.3418,-3.3379,-3.3281,-3.2969,-3.2539,-3.2031,-3.168,-3.1309,-3.0898,-3.0898,-3.0898,-3.0898,-3.0898,-3.0898,-3.0898,-3.0898,-3.0898,-3.0879,-3.0509,-2.855,-2.5869,-2.5505,-2.3518,-2.0922,-2.0922,-2.0922,-2.0882,-2.0655,-2.0735,-2.0842,-2.0374,-2.0388,-2.0535,-2.0294,-2.0167,-2.0167,-2.0167,-2.0167,-2.0167,-2.0167,-2.0134,-1.9987,-1.976,-1.9706,-1.9706,-1.9706,-1.988,-2.004,-2.004,-2.004,-1.9973,-1.9746,-1.9706,-1.9626,-1.9457,-1.943,-1.943,-1.943,-1.943,-1.943,-1.943,-1.943,-1.943,-1.943,-1.943,-1.943,-1.943,-1.943,-1.943,-1.943,-1.943,-1.9479,-1.9706,-1.9706,-1.9706,-1.9706,-1.9706,-1.9853,-2.0134,-2.0067,-2.0107,-2.0167,-2.0167,-2.0401,-2.0681,-2.0748,-2.0909,-2.1109,-2.1109,-2.1109,-2.1109,-2.1109,-2.1109,-2.1109,-3.6973,-3.6973,-3.7031,-3.7266,-3.7109,-3.7109,-3.7559,-3.7246,-3.6973,-3.6992,-3.6816,-3.6504,-3.6074,-3.6016,-3.5937,-3.5703,-3.5293,-3.5019,-3.5019,-3.4609,-3.418,-3.375,-3.373,-3.3633,-3.3418,-3.3203,-3.2891,-3.2461,-3.2031,-3.1601,-3.1191,-3.0976,-3.0898,-3.0898,-3.0898,-3.0898,-3.0898,-3.0898,-3.0898,-3.0898,-3.0898,-2.892,-2.5984,-2.5984,-2.3977,-2.1109,-2.1109,-2.1109,-2.1082,-2.0935,-2.0989,-2.1056,-2.0748,-2.0762,-2.0855,-2.0695,-2.0655,-2.0655,-2.0655,-2.0655,-2.0655,-2.0655,-2.0548,-2.0361,-2.008,-2.0,-2.0,-2.0,-2.0134,-2.0167,-2.0167,-2.0167,-2.0127,-2.0027,-1.9893,-1.9746,-1.9599,-1.9452,-1.943,-1.943,-1.9492,-1.9573,-1.9573,-1.9511,-1.943,-1.943,-1.943,-1.943,-1.943,-1.9492,-1.9573,-1.9573,-1.9706,-1.9853,-2.0,-2.0,-2.008,-2.0214,-2.008,-2.016,-2.0441,-2.0294,-2.0388,-2.0641,-2.0508,-2.0615,-2.0882,-2.0882,-2.0975,-2.1109,-2.1109,-2.1109,-2.1109,-2.1109,-2.1109,-2.1109,-3.7168,-3.7129,-3.7109,-3.7168,-3.7129,-3.7109,-3.7187,-3.7187,-3.707,-3.6719,-3.668,-3.6504,-3.6074,-3.6016,-3.6016,-3.6016,-3.5703,-3.5469,-3.5391,-3.5039,-3.4629,-3.4199,-3.4121,-3.3906,-3.3535,-3.3457,-3.3223,-3.2793,-3.2383,-3.1953,-3.1504,-3.1094,-3.0898,-3.0898,-3.0898,-3.0898,-3.0898,-3.0898,-3.0898,-3.0898,-3.0898,-2.892,-2.5984,-2.5984,-2.3977,-2.1109,-2.1109,-2.1109,-2.1109,-2.1109,-2.1109,-2.1109,-2.1109,-2.1109,-2.1109,-2.1109,-2.1109,-2.1109,-2.1109,-2.1109,-2.1109,-2.1109,-2.0922,-2.0681,-2.0441,-2.0347,-2.0307,-2.0307,-2.0347,-2.0326,-2.0326,-2.0326,-2.0374,-2.0321,-2.0107,-1.9933,-1.988,-1.9666,-1.9519,-1.9519,-1.9679,-1.98,-1.98,-1.9586,-1.9439,-1.9439,-1.9439,-1.9439,-1.9439,-1.9666,-1.9826,-1.9867,-2.0107,-2.0254,-2.0307,-2.0307,-2.0454,-2.0748,-2.0494,-2.0508,-2.0735,-2.0494,-2.0655,-2.1096,-2.0855,-2.0882,-2.1109,-2.1109,-2.1109,-2.1109,-2.1109,-2.1109,-2.1109,-2.1109,-2.1109,-2.1109,-3.668,-3.6445,-3.6309,-3.6699,-3.6445,-3.6309,-3.6699,-3.6758,-3.6738,-3.668,-3.668,-3.6504,-3.6074,-3.6016,-3.6016,-3.6016,-3.5976,-3.5781,-3.541,-3.5332,-3.5098,-3.4629,-3.4258,-3.4043,-3.3984,-3.3613,-3.3223,-3.2793,-3.2383,-3.1953,-3.1504,-3.1094,-3.0898,-3.0898,-3.0898,-3.0898,-3.0898,-3.0898,-3.0898,-3.0898,-3.0898,-2.892,-2.5984,-2.5984,-2.3977,-2.1109,-2.1109,-2.1109,-2.1109,-2.1109,-2.1109,-2.1109,-2.1109,-2.1109,-2.1109,-2.1109,-2.1109,-2.1109,-2.1109,-2.1109,-2.1109,-2.1109,-2.1082,-2.1042,-2.1002,-2.0802,-2.0615,-2.0615,-2.0815,-2.0989,-2.0989,-2.0989,-2.0909,-2.0655,-2.0588,-2.0468,-2.0214,-2.0134,-2.012,-2.012,-1.9933,-1.98,-1.98,-1.976,-1.9746,-1.9746,-1.9746,-1.9746,-1.9746,-1.9773,-1.992,-2.0174,-2.0153,-2.0361,-2.0615,-2.0615,-2.0762,-2.1056,-2.1015,-2.1015,-2.1042,-2.1015,-2.1029,-2.1109,-2.1069,-2.1069,-2.1109,-2.1109,-2.1109,-2.1109,-2.1109,-2.1109,-2.1109,-2.1109,-2.1109,-2.1109,-3.6719,-3.6699,-3.6641,-3.6348,-3.6152,-3.6172,-3.6601,-3.668,-3.668,-3.668,-3.668,-3.6504,-3.6074,-3.6016,-3.6016,-3.6016,-3.6016,-3.5937,-3.5762,-3.5742,-3.543,-3.4726,-3.4531,-3.4199,-3.3711,-3.3516,-3.332,-3.3144,-3.2734,-3.2422,-3.2207,-3.1543,-3.125,-3.123,-3.0996,-3.0898,-3.0898,-3.0898,-3.0898,-3.0898,-3.0898,-2.892,-2.5984,-2.5984,-2.3977,-2.1109,-2.1109,-2.1109,-2.1109,-2.1109,-2.1109,-2.1109,-2.1109,-2.1109,-2.1109,-2.1109,-2.1109,-2.1109,-2.1109,-2.1109,-2.1109,-2.1109,-2.1109,-2.1109,-2.1109,-2.1015,-2.0922,-2.0922,-2.1015,-2.1109,-2.1109,-2.1109,-2.1069,-2.0935,-2.0775,-2.0628,-2.0494,-2.0334,-2.0294,-2.0468,-2.0227,-2.0107,-2.0267,-2.0134,-2.004,-2.004,-2.004,-2.004,-2.004,-2.0201,-2.0347,-2.0481,-2.0641,-2.0788,-2.0922,-2.0922,-2.0989,-2.1109,-2.1109,-2.1109,-2.1109,-2.1109,-2.1109,-2.1109,-2.1109,-2.1109,-2.1109,-2.1109,-2.1109,-2.1109,-2.1109,-2.1109,-2.1109,-2.1109,-2.1109,-2.1109]},{"header":{"parameterUnit":"m.s-1","parameterCategory":1,"la1":30.6,"la2":28.766,"lo1":-90.7593,"lo2":-88.6598,"dy":0.0162,"dx":0.0183,"nx":116,"ny":114,"refTime":"2023-05-12T12:00:00:Z","depth":0,"parameterNumber":3,"parameterNumberName":"V-component_of_WINDS"},"data":[0.0,0.0,0.0,0.0,0.0,0.0,0.0,0.0,0.0,0.0,0.0,0.0,0.0,0.0,0.0,0.0,0.0,0.0,0.0,0.0,0.0,0.0,0.0,0.0,0.0,0.0,0.0,0.0,0.0,0.0,0.0,0.0,0.0,0.0,0.0,0.0,0.0,0.0,0.0,0.0,0.0,0.0,0.0,0.0,0.0,0.0,0.0,0.0,0.0,0.0,0.0,0.0,0.0,0.0,0.0,0.0,0.0,0.0,0.0,0.0,0.0,0.0,0.0,0.0,0.0,0.0,0.0,0.0,0.0,0.0,0.0,0.0,0.0,0.0,0.0,0.0,0.0,0.0,0.0,0.0,0.0,0.0,0.0,0.0,0.0,0.0,0.0,0.0,0.0,0.0,0.0,0.0,0.0,0.0,0.0,0.0,0.0,0.0,0.0,0.0,0.0,0.0,0.0,0.0,0.0,0.0,0.0,0.0,0.0,0.0,0.0,0.0,0.0,0.0,0.0,0.0,0.0,0.0,0.0,0.0,0.0,0.0,0.0,0.0,0.0,0.0,0.0,0.0,0.0,0.0,0.0,0.0,0.0,0.0,0.0,0.0,0.0,0.0,0.0,0.0,0.0,0.0,0.0,0.0,0.0,0.0,0.0,0.0,0.0,0.0,0.0,0.0,0.0,0.0,0.0,0.0,0.0,0.0,0.0,0.0,0.0,0.0,0.0,0.0,0.0,0.0,0.0,0.0,0.0,0.0,0.0,0.0,0.0,0.0,0.0,0.0,0.0,0.0,0.0,0.0,0.0,0.0,0.0,0.0,0.0,0.0,0.0,0.0,0.0,0.0,0.0,0.0,0.0,0.0,0.0,0.0,0.0,0.0,0.0,0.0,0.0,0.0,0.0,0.0,0.0,0.0,0.0,0.0,0.0,0.0,0.0,0.0,0.0,0.0,0.0,0.0,0.0,0.0,0.0,0.0,0.0,0.0,0.0,0.0,0.0,0.0,0.0,0.0,0.0,0.0,0.0,0.0,0.0,0.0,0.0,0.0,0.0,0.0,0.0,0.0,0.0,0.0,0.0,0.0,0.0,0.0,0.0,0.0,0.0,0.0,0.0,0.0,0.0,0.0,0.0,0.0,0.0,0.0,0.0,0.0,0.0,0.0,0.0,0.0,0.0,0.0,0.0,0.0,0.0,0.0,0.0,0.0,0.0,0.0,0.0,0.0,0.0,0.0,0.0,0.0,0.0,0.0,0.0,0.0,0.0,0.0,0.0,0.0,0.0,0.0,0.0,0.0,0.0,0.0,0.0,0.0,0.0,0.0,0.0,0.0,0.0,0.0,0.0,0.0,0.0,0.0,0.0,0.0,0.0,0.0,0.0,0.0,0.0,0.0,0.0,0.0,0.0,0.0,0.0,0.0,0.0,0.0,0.0,0.0,0.0,0.0,0.0,0.0,0.0,0.0,0.0,0.0,0.0,0.0,0.0,0.0,0.0,0.0,0.0,0.0,0.0,0.0,0.0,0.0,0.0,0.0,0.0,0.0,0.0,0.0,0.0,0.0,0.0,0.0,0.0,0.0,0.0,0.0,0.0,0.0,0.0,0.0,0.0,0.0,0.0,0.0,0.0,0.0,0.0,0.0,0.0,0.0,0.0,0.0,0.0,0.0,0.0,0.0,0.0,0.0,0.0,0.0,0.0,0.0,0.0,0.0,0.0,0.0,0.0,0.0,0.0,0.0,0.0,0.0,0.0,0.0,0.0,0.0,0.0,0.0,0.0,0.0,0.0,0.0,0.0,0.0,0.0,0.0,0.0,0.0,0.0,0.0,0.0,0.0,0.0,0.0,0.0,0.0,0.0,0.0,0.0,0.0,0.0,0.0,0.0,0.0,0.0,0.0,0.0,0.0,0.0,0.0,0.0,0.0,0.0,0.0,0.0,0.0,0.0,0.0,0.0,0.0,0.0,0.0,0.0,0.0,0.0,0.0,0.0,0.0,0.0,0.0,0.0,0.0,0.0,0.0,0.0,0.0,0.0,0.0,0.0,0.0,0.0,0.0,0.0,0.0,0.0,0.0,0.0,0.0,0.0,0.0,0.0,0.0,0.0,0.0,0.0,0.0,0.0,0.0,0.0,0.0,0.0,0.0,0.0,0.0,0.0,0.0,0.0,0.0,0.0,0.0,0.0,0.0,0.0,0.0,0.0,0.0,0.0,0.0,0.0,0.0,0.0,0.0,0.0,0.0,0.0,0.0,0.0,0.0,0.0,0.0,0.0,0.0,0.0,0.0,0.0,0.0,0.0,0.0,0.0,0.0,0.0,0.0,0.0,0.0,0.0,0.0,0.0,0.0,0.0,0.0,0.0,0.0,0.0,0.0,0.0,0.0,0.0,0.0,0.0,0.0,0.0,0.0,0.0,0.0,0.0,0.0,0.0,0.0,0.0,0.0,0.0,0.0,0.0,0.0,0.0,0.0,0.0,0.0,0.0,0.0,0.0,0.0,0.0,0.0,0.0,0.0,0.0,0.0,0.0,0.0,0.0,0.0,0.0,0.0,0.0,0.0,0.0,0.0,0.0,0.0,0.0,0.0,0.0,0.0,0.0,0.0,0.0,0.0,0.0,0.0,0.0,0.0,0.0,0.0,0.0,0.0,0.0,0.0,0.0,0.0,0.0,0.0,0.0,0.0,0.0,0.0,0.0,0.0,0.0,0.0,0.0,0.0,0.0,0.0,0.0,0.0,0.0,0.0,0.0,0.0,0.0,0.0,0.0,0.0,0.0,0.0,0.0,0.0,0.0,0.0,0.0,0.0,0.0,0.0,0.0,0.0,0.0,0.0,0.0,0.0,0.0,0.0,0.0,0.0,0.0,0.0,0.0,0.0,0.0,0.0,0.0,0.0,0.0,0.0,0.0,0.0,0.0,0.0,0.0,0.0,0.0,0.0,0.0,0.0,0.0,0.0,0.0,0.0,0.0,0.0,0.0,0.0,0.0,0.0,0.0,0.0,0.0,0.0,0.0,0.0,0.0,0.0,0.0,0.0,0.0,0.0,0.0,0.0,0.0,0.0,0.0,0.0,0.0,0.0,0.0,0.0,0.0,0.0,0.0,0.0,0.0,0.0,0.0,0.0,0.0,0.0,0.0,0.0,0.0,0.0,0.0,0.0,0.0,0.0,0.0,0.0,0.0,0.0,0.0,0.0,0.0,0.0,0.0,0.0,0.0,0.0,0.0,0.0,0.0,0.0,0.0,0.0,0.0,0.0,0.0,0.0,0.0,0.0,0.0,0.0,0.0,0.0,0.0,0.0,0.0,0.0,0.0,0.0,0.0,0.0,0.0,0.0,0.0,0.0,0.0,0.0,0.0,0.0,0.0,0.0,0.0,0.0,0.0,0.0,0.0,0.0,0.0,0.0,0.0,0.0,0.0,0.0,0.0,0.0,0.0,0.0,0.0,0.0,0.0,0.0,0.0,0.0,0.0,0.0,0.0,0.0,0.0,0.0,0.0,0.0,0.0,0.0,0.0,0.0,0.0,0.0,0.0,0.0,0.0,0.0,0.0,0.0,0.0,0.0,0.0,0.0,0.0,0.0,0.0,0.0,0.0,0.0,0.0,0.0,0.0,0.0,0.0,0.0,0.0,0.0,0.0,0.0,0.0,0.0,0.0,0.0,0.0,0.0,0.0,0.0,0.0,0.0,0.0,0.0,0.0,0.0,0.0,0.0,0.0,0.0,0.0,0.0,0.0,0.0,0.0,0.0,0.0,0.0,0.0,0.0,0.0,0.0,0.0,0.0,0.0,0.0,0.0,0.0,0.0,0.0,0.0,0.0,0.0,0.0,0.0,0.0,0.0,0.0,0.0,0.0,0.0,0.0,0.0,0.0,0.0,0.0,0.0,0.0,0.0,0.0,0.0,0.0,0.0,0.0,0.0,0.0,0.0,0.0,0.0,0.0,0.0,0.0,0.0,0.0,0.0,0.0,0.0,0.0,0.0,0.0,0.0,0.0,0.0,0.0,0.0,0.0,0.0,0.0,0.0,0.0,0.0,0.0,0.0,0.0,0.0,0.0,0.0,0.0,0.0,0.0,0.0,0.0,0.0,0.0,0.0,0.0,0.0,0.0,0.0,0.0,0.0,0.0,0.0,0.0,0.0,0.0,0.0,0.0,0.0,0.0,0.0,0.0,0.0,0.0,0.0,0.0,0.0,0.0,0.0,0.0,0.0,0.0,0.0,0.0,0.0,0.0,0.0,0.0,0.0,0.0,0.0,0.0,0.0,0.0,0.0,0.0,0.0,0.0,0.0,0.0,0.0,0.0,0.0,0.0,0.0,0.0,0.0,0.0,0.0,0.0,0.0,0.0,0.0,0.0,0.0,0.0,0.0,0.0,0.0,0.0,0.0,0.0,0.0,0.0,0.0,0.0,0.0,0.0,0.0,0.0,0.0,0.0,0.0,0.0,0.0,0.0,0.0,0.0,0.0,0.0,0.0,0.0,0.0,0.0,0.0,0.0,0.0,0.0,0.0,0.0,0.0,0.0,0.0,0.0,0.0,0.0,0.0,0.0,0.0,0.0,0.0,0.0,0.0,0.0,0.0,0.0,0.0,0.0,0.0,0.0,0.0,0.0,0.0,0.0,0.0,0.0,0.0,0.0,0.0,0.0,0.0,0.0,0.0,0.0,0.0,0.0,0.0,0.0,0.0,0.0,0.0,0.0,0.0,0.0,0.0,0.0,0.0,0.0,0.0,0.0,0.0,0.0,0.0,0.0,0.0,0.0,0.0,0.0,0.0,0.0,0.0,0.0,0.0,0.0,0.0,0.0,0.0,0.0,0.0,0.0,0.0,0.0,0.0,0.0,0.0,0.0,0.0,0.0,0.0,0.0,0.0,0.0,0.0,0.0,0.0,0.0,0.0,0.0,0.0,0.0,0.0,0.0,0.0,0.0,0.0,0.0,0.0,0.0,0.0,0.0,0.0,0.0,0.0,0.0,0.0,0.0,0.0,0.0,0.0,0.0,0.0,0.0,0.0,0.0,0.0,0.0,0.0,0.0,0.0,0.0,0.0,0.0,0.0,0.0,0.0,0.0,0.0,0.0,0.0,0.0,0.0,0.0,0.0,0.0,0.0,0.0,0.0,0.0,0.0,0.0,0.0,0.0,0.0,0.0,0.0,0.0,0.0,0.0,0.0,0.0,0.0,0.0,0.0,0.0,0.0,0.0,0.0,0.0,0.0,0.0,0.0,0.0,0.0,0.0,0.0,0.0,0.0,0.0,0.0,0.0,0.0,0.0,0.0,0.0,0.0,0.0,0.0,0.0,0.0,0.0,0.0,0.0,0.0,0.0,0.0,0.0,0.0,0.0,0.0,0.0,0.0,0.0,0.0,0.0,0.0,0.0,0.0,0.0,0.0,0.0,0.0,0.0,0.0,0.0,0.0,0.0,0.0,0.0,0.0,0.0,0.0,0.0,0.0,0.0,0.0,0.0,0.0,0.0,0.0,0.0,0.0,0.0,0.0,0.0,0.0,0.0,0.0,0.0,0.0,0.0,0.0,0.0,0.0,0.0,0.0,0.0,0.0,0.0,0.0,0.0,0.0,0.0,0.0,0.0,0.0,0.0,0.0,0.0,0.0,0.0,0.0,0.0,0.0,0.0,0.0,0.0,0.0,0.0,0.0,0.0,0.0,0.0,0.0,0.0,0.0,0.0,0.0,0.0,0.0,0.0,0.0,0.0,0.0,0.0,0.0,0.0,0.0,0.0,0.0,0.0,0.0,0.0,0.0,0.0,0.0,0.0,0.0,0.0,0.0,0.0,0.0,0.0,0.0,0.0,0.0,0.0,0.0,0.0,0.0,0.0,0.0,0.0,0.0,0.0,0.0,0.0,0.0,0.0,0.0,0.0,0.0,0.0,0.0,0.0,0.0,0.0,0.0,0.0,0.0,0.0,0.0,0.0,0.0,0.0,0.0,0.0,0.0,0.0,0.0,0.0,0.0,0.0,0.0,0.0,0.0,0.0,0.0,0.0,0.0,0.0,0.0,0.0,0.0,0.0,0.0,0.0,0.0,0.0,0.0,0.0,0.0,0.0,0.0,0.0,0.0,0.0,0.0,0.0,2.4238,0.0,0.0,0.0,0.0,0.0,0.0,0.0,0.0,0.0,0.0,0.0,0.0,0.0,0.0,0.0,0.0,0.0,0.0,0.0,0.0,0.0,0.0,0.0,0.0,0.0,0.0,0.0,0.0,0.0,0.0,0.0,0.0,0.0,0.0,0.0,0.0,0.0,0.0,3.9005,3.9377,3.9402,3.9005,3.9402,3.9174,3.8497,0.0,0.0,0.0,0.0,0.0,0.0,0.0,0.0,0.0,0.0,0.0,0.0,0.0,0.0,0.0,0.0,0.0,0.0,0.0,0.0,0.0,0.0,0.0,0.0,0.0,0.0,0.0,0.0,0.0,0.0,0.0,0.0,0.0,0.0,0.0,0.0,0.0,0.0,0.0,0.0,0.0,0.0,0.0,0.0,0.0,0.0,0.0,0.0,0.0,0.0,0.0,0.0,0.0,0.0,0.0,0.0,0.0,0.0,0.0,0.0,0.0,0.0,0.0,0.0,0.0,0.0,0.0,0.0,0.0,0.0,0.0,2.5735,0.0,0.0,0.0,0.0,0.0,0.0,0.0,0.0,0.0,0.0,0.0,0.0,0.0,0.0,0.0,0.0,0.0,0.0,0.0,0.0,0.0,0.0,0.0,3.3322,3.3761,3.4607,3.481,3.5441,0.0,0.0,0.0,0.0,0.0,0.0,3.6592,3.7449,3.8125,3.8599,3.887,3.914,3.9377,3.9377,3.9005,3.8294,3.8633,0.0,0.0,0.0,0.0,0.0,0.0,0.0,0.0,0.0,0.0,0.0,0.0,0.0,0.0,0.0,0.0,0.0,0.0,0.0,0.0,0.0,0.0,0.0,0.0,0.0,0.0,0.0,0.0,0.0,0.0,0.0,0.0,0.0,0.0,0.0,0.0,0.0,0.0,0.0,0.0,0.0,0.0,0.0,0.0,0.0,0.0,0.0,0.0,0.0,0.0,0.0,0.0,0.0,0.0,0.0,0.0,0.0,0.0,0.0,0.0,0.0,0.0,0.0,3.2258,3.2318,3.2228,3.2856,3.2496,3.1329,3.0905,2.9175,2.676,2.8037,0.0,0.0,0.0,0.0,0.0,0.0,0.0,0.0,0.0,0.0,0.0,0.0,0.0,0.0,0.0,0.0,0.0,0.0,0.0,0.0,0.0,3.3017,3.3943,3.5329,3.6096,3.6592,3.6795,0.0,0.0,0.0,0.0,0.0,3.5769,3.7178,3.7618,3.71,3.8362,3.9648,4.0899,4.0899,4.0527,3.9774,3.8565,3.8396,3.9005,0.0,0.0,0.0,0.0,0.0,0.0,0.0,0.0,0.0,0.0,0.0,0.0,0.0,0.0,0.0,0.0,0.0,0.0,0.0,0.0,0.0,0.0,0.0,0.0,0.0,0.0,0.0,0.0,0.0,0.0,0.0,0.0,0.0,0.0,0.0,0.0,0.0,0.0,0.0,0.0,0.0,3.1058,3.0978,0.0,0.0,0.0,0.0,0.0,0.0,0.0,0.0,0.0,0.0,0.0,0.0,0.0,3.3166,3.3163,3.3211,3.3547,3.4113,3.528,3.5549,3.4981,3.5612,3.5489,3.4865,3.5493,0.0,3.0773,2.9157,0.0,0.0,0.0,0.0,0.0,0.0,0.0,0.0,0.0,0.0,0.0,0.0,0.0,0.0,0.0,0.0,0.0,0.0,0.0,0.0,0.0,3.322,3.3977,3.5464,3.6332,3.6626,3.6163,3.6941,0.0,0.0,0.0,3.56,3.56,3.6705,3.7719,3.8667,4.0561,4.1813,4.2455,4.2455,4.2252,4.188,4.0426,3.9478,3.8971,3.8565,0.0,0.0,0.0,0.0,0.0,0.0,0.0,0.0,0.0,0.0,0.0,0.0,0.0,0.0,0.0,0.0,0.0,0.0,0.0,0.0,0.0,0.0,0.0,0.0,0.0,0.0,0.0,0.0,0.0,0.0,0.0,0.0,0.0,0.0,0.0,0.0,0.0,0.0,0.0,3.2629,3.2554,3.1045,3.2764,3.3754,0.0,0.0,0.0,0.0,0.0,0.0,0.0,0.0,0.0,3.4878,3.5878,3.6063,3.5277,3.6342,3.6998,3.7255,3.7853,3.7973,3.7704,3.8374,3.831,3.7708,3.8055,3.7717,3.6653,3.3794,3.294,3.3304,0.0,0.0,0.0,0.0,3.2052,3.3362,0.0,0.0,0.0,0.0,0.0,0.0,0.0,0.0,0.0,0.0,0.0,0.0,3.3457,3.3525,3.4235,3.6276,3.6671,3.6705,3.6479,3.6986,3.6907,3.596,3.5701,3.56,3.56,3.6738,3.8531,4.0941,4.2828,4.4012,4.4525,4.4384,4.4282,4.4215,4.2929,4.1305,3.9478,3.8362,3.8227,3.8667,0.0,0.0,0.0,0.0,0.0,0.0,0.0,0.0,0.0,0.0,0.0,0.0,0.0,0.0,0.0,0.0,0.0,0.0,0.0,0.0,0.0,0.0,0.0,0.0,0.0,0.0,0.0,0.0,0.0,0.0,0.0,0.0,0.0,0.0,0.0,0.0,0.0,3.346,3.3498,3.1554,3.3533,3.4806,0.0,0.0,0.0,0.0,0.0,0.0,3.9075,3.9228,3.8816,3.7793,3.8933,3.9109,3.8147,3.9371,4.0041,4.0187,4.03,4.0337,4.0187,4.0666,4.0546,3.9918,4.0142,4.0566,4.0864,3.7662,3.6167,3.5742,3.4951,3.4919,3.5313,3.4651,3.5004,3.5832,0.0,0.0,0.0,0.0,0.0,0.0,0.0,0.0,0.0,0.0,0.0,3.0465,3.4032,3.3829,3.4878,3.8497,3.7608,3.7371,3.8734,3.6874,3.6028,3.6728,3.6028,3.56,3.56,3.7753,4.0324,4.3206,4.4113,4.5602,4.7635,4.6955,4.6616,4.6583,4.5838,4.3842,4.0967,3.8802,3.7922,3.7956,3.7922,0.0,0.0,0.0,0.0,0.0,0.0,0.0,0.0,0.0,0.0,0.0,0.0,0.0,0.0,0.0,0.0,0.0,0.0,0.0,0.0,0.0,0.0,0.0,0.0,0.0,0.0,0.0,0.0,0.0,0.0,0.0,0.0,0.0,0.0,0.0,0.0,0.0,0.0,3.3253,3.5133,0.0,0.0,0.0,0.0,3.9774,4.0561,4.1279,4.2057,4.2733,4.3111,4.3002,4.2274,4.2077,4.2649,4.1771,4.164,4.2261,4.2851,4.2821,4.2261,4.2291,4.1931,4.137,4.2169,4.22,4.1441,3.8711,3.8869,4.0568,3.7877,3.8045,3.9455,3.6928,3.7147,3.8603,0.0,0.0,0.0,0.0,0.0,0.0,0.0,0.0,2.7435,2.9179,3.0398,3.2361,3.5611,3.6569,3.7719,3.9571,3.9233,3.8759,3.8328,3.755,3.7212,3.7483,3.6772,3.7043,3.8439,3.9783,4.188,4.4891,4.6109,4.7361,4.8612,4.8342,4.8206,4.8173,4.7462,4.6244,4.4553,4.0865,3.9039,3.8464,3.7009,3.7313,0.0,0.0,0.0,0.0,0.0,0.0,0.0,0.0,0.0,0.0,0.0,0.0,0.0,0.0,0.0,0.0,0.0,0.0,0.0,0.0,0.0,0.0,0.0,0.0,0.0,0.0,0.0,0.0,0.0,0.0,0.0,0.0,0.0,0.0,0.0,0.0,0.0,3.8169,4.0271,0.0,4.0687,4.0976,4.1694,4.2902,4.3013,4.3689,4.5099,4.528,4.5096,4.4494,4.3976,4.3744,4.3822,4.3473,4.3389,4.3629,4.3838,4.3629,4.3,4.3,4.2641,4.2051,4.2364,4.2792,4.3142,4.1693,4.1411,4.1682,4.0172,4.0361,4.1388,4.0447,4.052,4.1043,0.0,0.0,0.0,0.0,0.0,0.0,0.0,0.0,2.6691,2.8739,3.0499,3.2903,3.6423,3.7675,3.8836,4.035,3.9571,3.8792,3.8294,3.7313,3.6975,3.7516,3.728,3.8091,4.0054,4.1576,4.3572,4.6075,4.7564,4.8545,4.9018,4.9018,4.9018,4.8984,4.8511,4.7868,4.6955,4.3707,4.1365,3.958,3.7821,3.8159,3.9512,0.0,0.0,0.0,0.0,0.0,0.0,0.0,0.0,0.0,0.0,0.0,0.0,0.0,0.0,0.0,0.0,0.0,0.0,0.0,0.0,0.0,0.0,0.0,0.0,0.0,0.0,0.0,0.0,0.0,0.0,0.0,0.0,0.0,0.0,3.978,4.1136,4.2258,4.3966,4.4619,4.3602,4.3577,4.4005,4.4986,4.5047,4.5702,4.7172,4.7077,4.6694,4.6134,4.5597,4.5133,4.4779,4.4929,4.4646,4.3988,4.4436,4.4197,4.329,4.329,4.309,4.2671,4.2671,4.3015,4.3478,4.2754,4.2615,4.2766,4.2288,4.2504,4.301,4.2684,4.2422,4.221,0.0,0.0,0.0,0.0,0.0,0.0,0.0,2.6459,2.725,2.8807,2.9702,3.1901,3.6321,3.6897,3.8115,4.0967,3.8497,3.7472,3.8903,3.6163,3.5204,3.6795,3.7584,3.8734,4.0248,4.3159,4.5393,4.6853,4.8308,4.9018,4.9018,4.9018,4.9018,4.9018,4.9018,4.8612,4.7872,4.7158,4.4756,4.1373,4.0493,4.0561,4.1136,0.0,0.0,0.0,0.0,0.0,0.0,0.0,0.0,0.0,0.0,0.0,0.0,0.0,0.0,0.0,0.0,0.0,0.0,0.0,0.0,0.0,0.0,0.0,0.0,0.0,0.0,0.0,0.0,0.0,0.0,0.0,0.0,0.0,4.193,4.3284,4.4325,4.5146,4.5848,4.5646,4.404,4.4513,4.5246,4.5921,4.6657,4.7362,4.8105,4.8132,4.8132,4.81,4.7184,4.6399,4.575,4.6131,4.5334,4.3489,4.4706,4.4657,4.3438,4.3369,4.3369,4.3409,4.3409,4.3088,4.2535,4.1836,4.2618,4.4229,4.4233,4.4404,4.4518,4.3489,4.2745,4.2166,0.0,0.0,0.0,0.0,0.0,0.0,2.5363,2.5658,2.6657,2.8739,3.1021,3.3592,3.6491,3.87,4.0324,4.1136,3.9005,3.799,3.8937,3.6163,3.5656,3.8261,3.9614,4.1508,4.4113,4.4959,4.638,4.8409,4.8815,4.9018,4.9018,4.9018,4.9018,4.9018,4.9018,4.8883,4.868,4.8477,4.78,4.6549,4.3098,4.1508,4.1136,0.0,0.0,0.0,0.0,0.0,0.0,0.0,0.0,0.0,0.0,0.0,0.0,0.0,0.0,0.0,0.0,0.0,0.0,0.0,0.0,0.0,0.0,0.0,0.0,0.0,0.0,0.0,0.0,0.0,0.0,0.0,4.2154,4.2736,4.178,4.3368,4.5081,4.6276,4.8491,4.9361,4.7919,4.8152,4.8412,4.8392,4.8316,4.849,4.894,4.8765,4.8363,4.7824,4.6885,4.6562,4.6864,4.6479,4.6369,4.6545,4.5675,4.5645,4.6176,4.4953,4.4743,4.5384,4.5384,4.5687,4.6099,4.5389,4.5799,4.6631,4.4332,4.4245,4.5341,4.5072,4.4537,4.3933,0.0,0.0,0.0,0.0,0.0,0.0,2.482,2.5514,2.6657,2.8281,3.1089,3.3795,3.6062,3.8396,3.9952,4.0257,3.8836,3.7686,3.7144,3.6084,3.666,3.9334,4.117,4.3267,4.5669,4.6312,4.7394,4.9018,4.9018,4.9018,4.9018,4.9018,4.9018,4.9018,4.9018,4.9018,4.9018,4.9018,4.9187,4.9221,4.6616,4.5128,4.4282,4.2618,4.2381,4.2787,4.1711,4.1948,4.2523,4.0899,0.0,0.0,0.0,0.0,0.0,0.0,0.0,0.0,0.0,0.0,0.0,0.0,0.0,0.0,0.0,0.0,0.0,0.0,0.0,0.0,0.0,0.0,0.0,0.0,4.5211,4.585,4.5091,4.6106,4.7331,4.8416,5.0056,5.0659,4.9428,4.9455,4.9524,4.9315,4.887,4.8664,4.8848,4.844,4.7973,4.7577,4.6978,4.6984,4.7479,4.7388,4.7569,4.8057,4.7339,4.7254,4.7718,4.675,4.6597,4.7109,4.6785,4.6974,4.7395,4.6385,4.6683,0.0,0.0,0.0,0.0,0.0,4.4403,4.4064,0.0,0.0,0.0,0.0,0.0,0.0,2.4569,2.576,2.6962,2.7689,3.0345,3.2916,3.489,3.6546,3.7821,3.8531,3.7956,3.6772,3.4979,3.6321,3.8149,4.0383,4.2591,4.4485,4.594,4.7297,4.8342,4.9018,4.9018,4.9018,4.9018,4.9018,4.9018,4.9018,4.9018,4.9018,4.9018,4.9018,4.9424,5.0067,4.9999,4.9526,4.8612,4.6041,4.5698,4.638,4.519,4.4316,4.3646,4.2828,0.0,0.0,0.0,0.0,0.0,0.0,0.0,0.0,0.0,0.0,0.0,0.0,0.0,0.0,0.0,0.0,0.0,0.0,0.0,0.0,0.0,0.0,0.0,0.0,4.7826,4.8941,5.0143,5.0195,5.0275,5.0611,5.0753,5.0455,4.9509,4.9479,4.9509,4.9419,4.8775,4.8356,4.8297,4.7728,0.0,0.0,0.0,4.7588,4.7902,4.8612,4.8907,4.8804,4.9202,4.9212,4.882,4.8615,4.8619,4.8659,4.801,4.7684,4.749,4.6267,4.6516,4.7506,4.6185,4.5724,4.565,4.4108,4.3509,4.3443,0.0,0.0,0.0,0.0,0.0,0.0,2.4523,2.576,2.6962,2.7689,2.9905,3.1562,3.2002,3.3897,3.5453,3.6174,3.5588,3.5757,3.7144,3.8657,4.0426,4.2692,4.4925,4.6549,4.7432,4.8342,4.8849,4.9018,4.9018,4.9018,4.9018,4.9018,4.9018,4.9018,4.9018,4.9018,4.9018,4.9018,4.9424,5.0033,4.9458,4.8781,4.8139,4.8139,4.6853,4.5089,4.5365,4.5771,4.594,4.4587,4.4784,4.5162,4.3166,4.1745,0.0,0.0,0.0,0.0,0.0,0.0,0.0,0.0,0.0,0.0,0.0,0.0,0.0,0.0,0.0,0.0,0.0,0.0,0.0,4.9912,5.0961,5.1797,5.2663,5.25,5.1621,4.9837,5.0472,5.0832,5.0092,5.0541,5.0631,5.0092,4.9434,4.888,4.8327,4.8177,4.7848,4.7309,4.8115,4.8533,4.8583,4.9592,5.0466,5.1241,0.0,0.0,5.1497,5.0149,4.9919,5.0659,5.0525,5.0123,4.952,4.9284,4.8644,4.7827,4.7524,4.7076,4.6481,4.5563,4.486,4.4355,0.0,0.0,0.0,0.0,0.0,0.0,2.444,2.5439,2.6556,2.7655,2.9127,3.0378,3.1123,3.2171,3.2983,3.3389,3.3389,3.4844,3.8227,4.0155,4.2523,4.5505,4.709,4.824,4.8984,4.9018,4.9018,4.9018,4.9018,4.9018,4.9018,4.9018,4.9018,4.9018,4.939,4.9357,4.9052,4.9796,5.0304,5.0608,5.027,4.9898,4.9494,4.9154,4.8308,4.7327,4.7361,4.7124,4.6684,4.594,4.5432,4.4891,4.3747,4.2388,4.1204,0.0,0.0,0.0,0.0,0.0,0.0,0.0,0.0,0.0,0.0,0.0,0.0,0.0,0.0,4.6549,4.7699,0.0,5.186,5.3721,5.415,5.4525,5.5345,5.4463,5.2997,5.0982,5.1818,5.2229,5.1306,5.1498,5.1439,5.0734,5.0122,4.9613,4.9284,4.8656,4.8147,4.7818,4.8435,4.9054,4.9575,5.0627,5.1667,5.2697,5.1841,5.1956,5.2841,5.2034,5.19,5.2334,5.1928,5.1555,5.115,5.0405,4.9458,4.8477,4.8477,4.7564,4.621,4.5838,4.5229,4.4615,0.0,0.0,0.0,0.0,0.0,0.0,0.0,2.5135,2.6066,2.7418,2.8281,2.9161,3.0209,3.0446,3.0649,3.0954,3.2056,3.4537,3.8884,4.1248,4.4101,4.7674,4.8572,4.9289,4.9864,4.9289,4.9018,4.9018,4.9018,4.9086,4.9221,4.9221,4.9289,4.9458,5.0033,4.9965,4.9526,5.071,5.115,5.1014,5.1014,5.1014,5.0845,4.9357,4.9255,4.9796,4.9221,4.7868,4.638,4.6515,4.5162,4.3443,4.3747,4.2828,4.1644,4.1644,4.0899,0.0,0.0,0.0,0.0,0.0,0.0,0.0,0.0,4.5399,4.638,4.8173,4.9458,5.0676,5.1827,5.3822,5.5615,5.6833,5.6658,5.6599,5.71,5.5848,5.4422,5.3024,5.3499,5.3546,5.269,5.2366,5.2037,5.1618,5.0823,5.0315,5.0196,4.9254,4.8566,4.8297,4.8963,4.9661,5.0397,5.1594,5.2627,5.3518,5.3518,5.3518,5.3518,5.3518,5.3518,5.345,5.2638,5.23,5.2198,5.071,4.9729,4.9187,4.9052,4.7834,4.6109,4.5974,4.5365,4.4615,0.0,0.0,0.0,0.0,0.0,0.0,0.0,0.0,2.5879,2.6725,2.7452,2.7756,2.7266,2.7807,2.8737,3.0108,3.2679,3.5842,3.9558,4.198,4.4627,4.7596,4.8537,4.9052,4.912,4.9052,4.9018,4.9018,4.9018,4.9323,4.9965,4.9965,5.0338,5.0948,5.1048,5.1016,5.0948,5.1117,5.0845,5.0202,5.0202,5.0202,5.0067,4.8578,4.8477,4.912,4.9052,4.7192,4.4953,4.5602,4.4756,4.3646,4.5026,4.4418,4.3139,4.3139,4.1685,4.0231,4.0899,4.161,4.2794,4.55,4.5365,4.6307,0.0,5.2266,5.1285,5.4126,5.4871,5.5006,5.5175,5.6494,5.7577,5.7746,5.7496,5.7067,5.6402,5.6119,5.5799,5.5293,5.4429,5.3914,5.3961,5.2905,5.2426,5.2935,5.1798,5.0794,5.0226,5.0046,4.9494,4.8327,5.0102,5.088,5.0397,5.2345,5.3382,5.3518,5.3518,5.3518,5.3518,5.3518,5.3518,5.345,5.2638,5.23,5.2198,5.071,5.0033,4.9898,4.9255,4.8443,4.7567,4.6921,4.5771,4.4615,0.0,0.0,0.0,0.0,0.0,0.0,0.0,0.0,0.0,2.7181,2.7232,2.7199,2.7317,2.7232,2.7435,2.8078,3.1224,3.4398,3.7216,4.1596,4.5202,4.7733,4.9006,4.9632,4.9627,4.9221,4.9221,4.9627,4.9221,4.9593,5.0744,4.9864,4.9864,5.0574,5.0574,5.0338,4.9999,5.1285,5.1183,5.0135,5.0574,5.0473,4.9864,4.797,4.7192,4.709,4.709,4.5703,0.0,4.4282,4.3916,4.3511,4.4153,4.3639,4.276,4.276,4.2117,4.1644,4.2828,4.4012,4.5196,4.6481,4.8308,5.0473,5.3112,5.3788,5.4431,5.6528,5.7679,5.8254,5.8254,5.9505,6.0385,5.9945,5.9771,5.9399,5.8595,5.7758,5.6514,5.4677,5.4168,5.3989,5.3989,5.2916,5.2157,5.2037,5.1528,5.1359,5.1727,5.1406,5.1041,5.0746,5.2187,5.2406,5.1299,5.3166,5.3923,5.3518,5.3518,5.3518,5.3518,5.3518,5.3518,5.3484,5.3145,5.2503,5.1623,5.1014,5.0236,4.9424,4.912,4.8545,4.7838,4.7564,4.6786,4.5833,0.0,0.0,0.0,0.0,0.0,0.0,0.0,0.0,0.0,0.0,2.7029,2.6894,2.7418,2.7029,2.6691,2.6691,2.9754,3.2713,3.5126,4.0179,4.4224,4.6805,4.8402,4.9294,4.9492,4.9187,4.9255,4.9796,4.9255,4.9661,5.0879,4.9796,4.9695,5.0405,5.0405,5.0101,4.9729,5.1319,5.1251,5.0135,5.0473,5.0033,4.8951,4.6718,4.5399,4.4756,4.4756,4.3673,4.2219,4.2422,4.2354,4.2286,4.2902,4.2726,4.2388,4.2794,4.276,4.2861,4.3944,4.55,4.7022,4.8037,5.1082,5.3923,5.4363,5.575,5.7273,5.8558,5.9674,6.0317,5.9877,6.0892,6.1603,6.1061,6.096,6.0613,5.9535,5.8545,5.6888,5.4064,5.3738,5.3773,5.3913,5.3093,5.2444,5.2109,5.2109,5.2485,5.3309,5.2883,5.2671,5.2797,5.3824,5.3667,5.2218,5.3812,5.4228,5.3518,5.3518,5.3518,5.3518,5.3518,5.3518,5.3518,5.3518,5.2739,5.1488,5.1252,5.0473,4.9289,4.9086,4.868,4.8176,4.8176,4.7496,4.6413,0.0,0.0,0.0,0.0,0.0,0.0,0.0,0.0,0.0,0.0,0.0,0.0,0.0,2.6691,2.6691,2.6691,2.8822,3.1378,3.4232,3.7399,4.0753,4.4325,4.6032,4.7225,4.7939,4.8646,4.9018,4.9052,4.9018,4.939,5.0135,5.0067,5.0473,5.1183,5.1183,5.1151,5.115,5.1185,5.0811,5.0033,4.9357,4.8206,4.665,4.4384,4.3064,4.2388,4.2388,4.0967,3.9242,3.9977,3.974,3.9512,4.1644,4.232,4.2591,4.4107,4.3978,4.3375,4.3409,4.5094,4.7665,5.1251,5.3348,5.548,5.9066,5.9911,6.0216,6.1028,6.1231,6.0825,5.9336,5.9674,6.0148,6.0148,6.0148,5.954,5.7806,5.7763,5.6979,5.4406,5.3395,5.3193,5.3912,5.3696,5.3678,5.4242,5.4389,5.4505,5.4547,5.4515,5.4237,5.3574,5.4542,5.4392,5.2979,5.4047,5.4228,5.3518,5.3518,5.3518,5.3518,5.3518,5.3518,5.3518,5.3518,5.3044,5.2198,5.1488,5.0744,4.9999,4.9289,4.8984,4.8984,4.8984,4.7597,4.5737,0.0,0.0,0.0,0.0,0.0,0.0,0.0,0.0,0.0,0.0,0.0,0.0,0.0,0.0,0.0,0.0,2.8333,3.0187,3.2154,3.6027,3.9025,4.0734,4.3708,4.5196,4.4897,4.5677,4.6554,4.753,4.7056,4.7699,4.9357,4.8883,4.9052,4.9763,4.9763,4.9763,4.9763,5.027,4.9763,4.8612,4.8376,4.7394,4.5838,4.3538,4.2219,4.1508,0.0,4.0383,3.9706,3.9445,3.9537,3.9774,4.002,4.0451,4.123,4.3234,4.3612,4.4051,4.7056,4.912,5.1352,5.5074,5.7137,5.8829,6.1095,6.1264,6.0825,6.0554,5.9336,5.8152,5.7645,5.734,5.7679,5.9133,6.025,6.0507,5.9391,5.9755,5.853,5.4059,5.4259,5.3997,5.2128,5.1959,5.2191,5.2645,5.3418,5.4067,5.4557,5.5256,5.568,5.5709,5.6512,5.6026,5.408,5.4899,5.4735,5.3518,5.3518,5.3518,5.3518,5.3518,5.3518,5.3518,5.3518,5.3044,5.2232,5.1522,5.0777,5.0033,4.9289,4.9018,4.9018,4.9018,4.824,4.709,0.0,0.0,0.0,0.0,0.0,0.0,0.0,0.0,0.0,0.0,0.0,0.0,0.0,0.0,0.0,0.0,0.0,2.8807,3.033,3.3592,3.6062,3.7347,4.046,4.2083,4.1847,4.2581,4.3464,4.4384,4.4215,4.4823,4.621,4.6249,4.6519,4.7022,4.7293,4.7428,4.7462,4.7936,4.7259,4.5906,4.5906,4.4857,4.3132,4.1373,4.0595,0.0,3.958,3.9673,4.0045,3.9571,3.9706,4.0011,3.9512,4.0257,4.1542,4.297,4.4322,4.6278,5.0236,5.2401,5.4431,5.8186,5.9844,6.0791,6.1772,6.1434,6.0351,5.8524,5.6799,5.5277,5.4228,5.3653,5.4228,5.7002,5.8051,5.8751,5.9492,5.9654,5.8425,5.5118,5.5317,5.4999,5.3161,5.2671,5.2637,5.3166,5.4388,5.5273,5.5738,5.6663,5.7181,5.7205,5.7915,5.734,5.5412,5.5615,5.4972,5.3518,5.3788,5.3754,5.3518,5.3518,5.3518,5.3518,5.3518,5.3044,5.2232,5.1522,5.0777,5.0033,4.9289,4.9018,4.9018,4.9018,4.8545,4.777,0.0,0.0,0.0,0.0,0.0,0.0,0.0,0.0,0.0,0.0,0.0,0.0,0.0,0.0,0.0,0.0,0.0,0.0,2.884,3.0311,3.207,3.4167,3.6468,3.799,3.8633,3.9436,3.9842,3.9876,4.0595,4.1001,4.1068,4.2469,4.3145,4.3206,4.399,4.4356,4.4445,4.4451,4.3606,4.2219,4.2185,4.0899,3.8903,3.8193,3.8362,3.8903,3.8227,3.887,4.0113,4.0113,4.0146,4.0214,4.0248,4.1745,4.3544,4.368,4.6346,4.9898,5.2942,5.4905,5.6934,6.0554,6.14,6.1332,6.1264,6.0486,5.8795,5.5175,5.3721,5.2232,4.9357,4.8883,5.0168,5.3923,5.416,5.4994,5.8349,5.7934,5.7349,5.7641,5.6724,5.6292,5.69,5.5683,5.5175,5.5886,5.7103,5.7881,5.791,5.8656,5.8727,5.7983,5.866,5.8287,5.6799,5.6055,5.4938,5.3551,5.4228,5.416,5.3518,5.3518,5.3518,5.3518,5.3518,5.3044,5.2232,5.1522,5.0777,5.0033,4.9289,4.9018,4.9018,4.9018,4.8578,4.7868,0.0,0.0,0.0,0.0,0.0,0.0,0.0,0.0,0.0,0.0,0.0,0.0,0.0,0.0,0.0,0.0,0.0,0.0,2.8027,2.9533,3.0649,3.119,3.3355,3.437,3.402,3.5272,3.6197,3.6772,3.755,3.8193,3.8744,3.9242,3.967,4.0164,4.0486,4.1194,4.2057,4.2127,4.1881,4.1441,4.0899,3.9986,3.8903,3.8193,3.8362,3.8971,3.8768,3.9309,4.0113,4.0113,4.0823,4.1813,4.2388,4.3741,4.5568,4.7733,5.027,5.3112,5.6664,5.9099,6.1197,6.326,6.2922,6.1806,6.0655,5.8118,5.5243,5.2604,4.9729,4.7462,4.6684,4.7462,4.9424,5.3179,5.6393,5.9126,6.1122,6.26,6.2674,6.0583,6.0536,6.0317,5.9336,5.893,5.8761,5.8964,5.7814,5.745,5.8295,5.9295,5.9471,5.8761,5.893,5.8287,5.6799,5.5513,5.4702,5.4296,5.3957,5.3687,5.3518,5.3518,5.3518,5.3518,5.3518,5.3044,5.2232,5.1522,5.0777,5.0033,4.9289,4.9018,4.9018,4.9018,4.8883,4.8612,0.0,0.0,0.0,0.0,0.0,0.0,0.0,0.0,0.0,0.0,0.0,0.0,0.0,0.0,0.0,0.0,0.0,0.0,0.0,2.8432,2.9075,2.9075,3.0615,3.1427,3.1345,3.1853,3.2611,3.3694,3.41,3.473,3.5453,3.6165,3.6693,3.7053,3.7852,3.8594,3.9285,3.9662,3.9386,0.0,0.0,3.799,3.7009,3.6941,3.7584,3.8531,3.8531,3.9614,4.1162,4.1839,4.2855,4.4079,4.5805,4.7394,4.9187,5.2164,5.4397,5.6731,6.0452,6.2381,6.3632,6.4783,6.3497,6.1264,5.8761,5.5784,5.2469,4.8578,4.6114,4.4384,4.3403,4.4722,4.7128,5.0913,5.4431,5.7915,6.14,6.2685,6.3226,6.3226,6.3024,6.2415,6.1231,6.1095,6.0994,6.0655,5.9133,5.8538,5.917,6.0112,6.0148,5.9032,5.9336,5.8626,5.6833,5.6292,5.5547,5.46,5.4499,5.4126,5.3518,5.3518,5.3518,5.3518,0.0,5.3247,5.2739,5.1657,5.098,5.0473,4.9424,4.9018,4.9018,4.9018,4.9018,4.8951,0.0,0.0,0.0,0.0,0.0,0.0,0.0,0.0,0.0,0.0,2.6881,0.0,0.0,0.0,0.0,0.0,0.0,0.0,0.0,0.0,2.7925,2.779,2.8552,2.9314,2.9939,2.9397,2.9788,3.1055,3.1157,3.1549,3.2192,3.3461,3.4136,3.4269,3.5621,3.6352,3.6535,3.7209,3.6747,3.5667,3.6366,3.5825,3.4709,0.0,3.6546,3.7922,3.8125,3.9851,4.2286,4.4242,4.5568,4.6921,4.9796,5.1826,5.3788,5.6799,5.866,6.052,6.4072,6.5053,6.5121,6.5459,6.3328,6.0114,5.6156,5.3348,4.9999,4.439,4.3003,4.2252,4.0451,4.1813,4.4553,4.8511,5.1082,5.4702,6.0757,6.1095,6.1975,6.5425,6.4715,6.37,6.3024,6.2888,6.2516,6.1806,6.0994,6.052,6.0419,6.1061,6.0757,5.9201,5.9573,5.8896,5.6968,5.7476,5.6799,5.4905,5.5344,5.4905,5.3653,5.3551,5.3518,5.3518,5.3518,5.345,5.3247,5.1928,5.1251,5.0947,4.9661,4.9086,4.9018,4.9018,4.9018,4.9018,0.0,0.0,0.0,0.0,0.0,0.0,0.0,0.0,0.0,0.0,2.7029,2.6854,0.0,0.0,0.0,0.0,0.0,0.0,0.0,0.0,0.0,2.7824,2.8552,2.9077,2.9179,2.9668,3.004,3.0311,3.0886,3.1258,3.1393,3.1771,3.2193,3.2692,3.3125,3.39,3.4923,3.5095,3.5332,3.56,3.5735,3.5633,3.543,3.5532,0.0,0.0,3.9276,4.0045,4.1094,4.5089,4.8139,5.0676,5.3044,5.5683,5.8457,6.1467,6.2956,6.4174,6.6643,6.732,6.6914,6.5222,6.2516,5.9032,5.4093,5.027,4.6752,4.32,4.1035,3.9817,4.0079,4.1407,4.4113,4.9086,5.23,5.6292,6.2279,6.3531,6.4512,6.6406,6.6406,6.6203,6.6068,6.5493,6.4816,6.4072,6.3328,6.2651,6.2009,6.211,6.1501,5.9945,5.8829,5.8084,5.7712,5.7239,5.6799,5.6427,5.531,5.4668,5.4397,5.3788,5.3518,5.3518,5.3518,0.0,5.2503,5.2232,5.1386,5.027,4.9999,4.9526,4.9018,4.9018,4.9018,4.9018,0.0,0.0,0.0,0.0,0.0,0.0,0.0,2.6865,2.7866,2.8786,2.8765,2.8304,2.7366,2.6928,2.6826,0.0,0.0,0.0,0.0,0.0,0.0,2.8416,2.8807,2.9179,2.9567,2.9533,2.9905,3.0683,0.0,3.0818,3.119,3.1267,3.1677,3.2341,3.2807,3.3573,3.4539,3.4935,3.5316,3.56,3.56,3.56,3.56,3.56,0.0,0.0,3.9571,4.0587,4.1704,4.4682,4.7868,5.1285,5.5108,5.8084,6.0791,6.3768,6.4884,6.573,6.8368,6.8808,6.7996,6.573,6.2347,5.8084,5.2469,4.8338,4.4553,4.0798,3.9478,3.887,3.8454,4.0553,4.3234,4.6143,4.9458,5.3653,5.9235,6.0994,6.2821,6.5865,6.6576,6.6643,6.6271,6.5899,6.5222,6.4106,6.37,6.3024,6.1873,6.1061,6.0283,5.9573,5.8457,5.7881,5.7881,5.7543,5.7002,5.6224,5.5513,5.4769,5.4025,5.3653,5.3518,5.3518,5.3518,5.3281,5.2909,5.2469,5.1894,5.115,5.0405,4.9864,4.9526,4.9154,4.9018,4.9018,0.0,0.0,0.0,0.0,0.0,0.0,0.0,2.8234,2.9518,3.028,3.0337,2.9735,2.821,2.7402,2.6996,0.0,0.0,0.0,0.0,0.0,0.0,0.0,0.0,0.0,3.0311,0.0,0.0,3.119,3.0615,0.0,0.0,0.0,0.0,0.0,3.3322,3.4066,3.4776,3.5329,3.56,0.0,0.0,3.56,3.5633,0.0,0.0,0.0,0.0,4.0857,4.211,4.3741,4.638,4.9695,5.4296,5.8084,6.1332,6.3971,6.5324,6.6542,6.9417,6.9654,6.8504,6.6068,6.1975,5.7002,5.1183,4.6989,4.3166,3.9005,3.8464,3.8396,3.7246,3.9276,4.161,4.3139,4.6041,5.0067,5.5784,5.7983,6.0622,6.4952,6.6271,6.6576,6.6,6.5764,6.5155,6.3835,6.3328,6.2584,6.1603,6.025,5.9438,5.9268,5.8524,5.8051,5.7881,5.7881,5.7306,5.619,5.6021,5.5344,5.4194,5.389,5.3754,5.3721,5.3585,5.3518,0.0,5.2807,5.2469,5.2198,5.1014,5.0473,5.0236,4.9492,4.9255,4.9221,0.0,0.0,0.0,0.0,0.0,0.0,0.0,2.8262,2.8931,3.0128,3.03,2.9954,2.8989,2.818,2.801,0.0,0.0,0.0,0.0,0.0,0.0,0.0,0.0,0.0,0.0,0.0,0.0,3.119,3.1123,0.0,0.0,0.0,0.0,0.0,0.0,3.481,3.5498,3.5566,0.0,0.0,0.0,0.0,0.0,0.0,0.0,0.0,0.0,4.018,4.0654,4.2794,4.4215,4.5534,4.8037,5.3619,5.9539,6.1231,6.4072,6.7218,6.9553,6.9654,6.8402,6.5425,6.0825,5.5615,5.0304,4.621,4.2658,3.9546,3.843,3.7956,3.7821,3.7516,3.8633,4.2733,4.4282,4.753,5.4803,5.7679,6.0419,6.4241,6.5933,6.6779,6.6711,6.6102,6.5358,6.4546,6.2651,6.1738,6.2245,6.1535,6.0757,6.0013,5.9302,5.8592,5.7881,5.7881,5.7814,5.7679,5.7036,5.663,5.6461,5.5108,5.4499,5.4465,5.3788,5.3518,0.0,5.3416,5.2976,5.23,5.2164,5.1691,5.1014,5.027,4.9999,4.9898,0.0,0.0,0.0,0.0,0.0,0.0,2.8086,2.9284,3.0444,3.144,3.1532,3.1375,3.1021,2.9905,2.8939,2.8349,0.0,0.0,0.0,0.0,0.0,0.0,0.0,0.0,0.0,0.0,3.119,3.119,3.119,0.0,0.0,0.0,0.0,0.0,0.0,3.4269,3.4979,3.5397,0.0,0.0,0.0,0.0,0.0,0.0,0.0,0.0,0.0,0.0,4.0248,4.1102,4.1914,4.2625,4.3064,4.6786,5.1995,5.7103,6.0926,6.4275,6.7827,6.9282,6.891,6.5459,6.0351,5.4905,5.0101,4.5399,4.1508,3.9411,3.8396,3.7753,3.7313,3.6998,3.754,3.9749,4.073,4.32,4.8883,5.1589,5.504,6.0588,6.2956,6.485,6.6643,6.573,6.4546,6.3362,6.2448,6.2076,6.2381,6.0825,5.9776,5.9471,5.8727,5.8186,5.7881,5.7881,5.7679,5.7239,5.6934,5.6562,5.6122,5.5074,5.46,5.4566,5.3822,5.3518,0.0,5.3518,5.3315,5.2976,5.2503,5.2131,5.1792,5.1048,5.0777,5.0676,0.0,0.0,0.0,0.0,0.0,2.7626,2.8086,2.9689,3.1066,3.1634,3.2039,3.2226,3.1989,3.0852,2.9751,2.8872,2.8601,0.0,0.0,0.0,0.0,0.0,0.0,0.0,0.0,0.0,3.119,3.119,3.119,3.119,0.0,0.0,3.1582,3.2327,0.0,0.0,0.0,0.0,0.0,0.0,0.0,0.0,0.0,0.0,0.0,0.0,0.0,0.0,0.0,0.0,0.0,4.0764,4.0282,4.1914,4.5331,5.1894,5.6765,6.0757,6.4309,6.6711,6.7421,6.4106,5.8964,5.3653,4.9593,4.479,4.0798,3.9309,3.8396,3.7686,3.6931,3.6626,3.6772,3.7753,3.8531,4.0629,4.5365,4.7936,5.1488,5.734,5.9844,6.2245,6.5222,6.4952,6.4072,6.2821,6.2516,6.2279,6.2076,6.0317,5.9336,5.9336,5.8626,5.8118,5.7881,5.7881,5.7645,5.7137,5.7137,5.6731,5.6021,5.5277,5.4803,5.4566,5.3822,5.3518,0.0,5.3518,5.3518,5.345,5.2875,5.2672,5.257,5.1826,5.1555,5.142,0.0,0.0,0.0,0.0,0.0,0.0,2.7671,2.9108,3.0089,3.0123,3.1393,3.2022,3.1292,3.0548,3.0412,3.1089,3.0514,0.0,0.0,0.0,0.0,0.0,0.0,0.0,0.0,0.0,3.119,3.119,3.119,3.119,3.119,3.119,3.1582,3.2327,0.0,0.0,0.0,0.0,0.0,0.0,0.0,0.0,0.0,0.0,0.0,0.0,0.0,0.0,0.0,0.0,0.0,0.0,0.0,4.0146,4.106,4.5568,5.1623,5.7171,5.8693,6.1298,6.3024,6.0723,5.6224,5.1555,4.8582,4.4451,4.0798,3.9309,3.8396,3.7686,3.6931,3.6163,3.6107,3.7652,3.8531,4.0798,4.6041,4.868,5.1488,5.531,5.7036,5.9133,6.2144,6.3734,6.4309,6.3565,6.2821,0.0,6.1366,6.052,6.008,6.008,5.937,5.866,5.7881,5.7881,5.7881,5.7881,5.7881,5.7476,5.6765,5.6021,5.531,5.4566,5.3822,5.3518,0.0,5.3518,5.3518,5.3518,5.3484,5.3484,5.3382,5.257,5.23,5.2198,0.0,0.0,0.0,0.0,0.0,0.0,0.0,2.9108,3.0108,3.0108,3.0954,3.165,3.1921,3.1292,3.1157,3.1887,3.0818,0.0,0.0,0.0,0.0,0.0,0.0,0.0,0.0,3.2442,3.2713,3.2713,3.2713,3.2713,3.2679,3.2192,3.209,3.2327,3.3085,3.3525,0.0,0.0,0.0,0.0,0.0,0.0,3.6434,0.0,0.0,0.0,0.0,0.0,0.0,0.0,0.0,0.0,0.0,0.0,0.0,4.1805,4.6244,5.1285,5.3754,5.5886,5.7002,5.5243,5.1657,4.8037,4.6075,4.2929,4.0316,3.9876,3.8768,3.7821,3.7584,3.6479,3.6411,3.898,3.9614,4.106,4.4784,4.8071,5.1488,5.5242,6.0148,6.3599,6.4546,6.4174,6.3768,6.3531,6.2821,6.2076,6.1332,6.0554,5.9877,5.937,5.8626,5.8118,5.7881,5.7881,5.7881,5.7881,5.7881,5.7509,5.6765,5.6055,5.531,5.4566,5.3822,5.3518,0.0,5.3518,5.3518,5.3518,5.3518,5.3518,5.3484,5.3213,5.3112,5.301,0.0,0.0,0.0,0.0,0.0,0.0,0.0,2.8872,2.977,3.0055,3.0751,3.1481,3.2226,3.165,3.1596,3.2632,3.1596,0.0,0.0,0.0,0.0,0.0,0.0,0.0,3.2293,3.3017,3.3558,3.3829,3.3829,3.3829,3.3795,3.3322,3.3004,3.2767,3.3491,3.3829,0.0,0.0,0.0,0.0,0.0,0.0,3.6366,0.0,0.0,0.0,0.0,0.0,0.0,0.0,0.0,0.0,0.0,0.0,0.0,0.0,4.2388,4.5602,4.8578,5.0913,5.2198,5.098,4.8308,4.5635,4.4418,4.2076,4.0113,4.0113,3.8937,3.7922,3.7922,3.6648,3.6411,3.8879,3.9276,4.0595,4.4451,4.7462,5.0879,5.5209,6.0655,6.3903,6.3599,6.3531,6.3531,6.3531,6.2821,6.1941,6.0892,6.0385,5.9641,5.8626,5.8118,5.7881,5.7881,5.7611,5.7476,5.7476,5.7476,5.6934,5.5953,5.5784,5.5141,5.416,5.3687,0.0,0.0,5.3518,5.3518,5.3518,5.3518,5.3518,5.3518,5.3518,5.3518,5.345,0.0,0.0,0.0,0.0,0.0,0.0,0.0,2.8518,2.9296,3.0006,3.0751,3.1481,3.2226,3.1684,3.1833,3.322,0.0,0.0,0.0,0.0,0.0,0.0,0.0,0.0,3.253,3.3254,3.3998,3.4742,3.4742,3.4742,3.4742,3.4675,3.4269,3.3592,3.4269,3.4573,3.4607,3.5318,3.56,3.56,3.56,3.5633,0.0,0.0,0.0,0.0,0.0,0.0,0.0,0.0,0.0,0.0,0.0,0.0,0.0,0.0,0.0,0.0,0.0,4.6278,4.8206,4.753,4.5805,4.4079,4.3335,4.1576,0.0,4.0113,3.8937,3.7922,3.8058,3.6772,3.6242,3.7956,3.8227,3.9986,4.506,4.7394,5.0407,5.5513,5.9268,6.1129,6.0351,6.2178,6.3463,6.3531,6.2821,6.1738,6.0182,6.0114,5.9404,5.7949,5.7848,5.7814,5.7814,5.7137,5.6765,5.6731,5.6731,5.5987,5.46,5.531,5.4871,0.0,5.3518,0.0,0.0,5.3518,5.3518,5.3518,5.3518,5.3518,5.3518,5.3518,5.3518,5.3518,0.0,0.0,0.0,0.0,0.0,0.0,0.0,0.0,0.0,0.0,3.0751,3.1481,3.2226,3.2158,3.2192,0.0,0.0,0.0,0.0,0.0,0.0,0.0,0.0,0.0,3.4788,3.5588,3.6366,3.711,3.711,3.711,3.7077,3.6502,3.5825,3.5092,3.5261,3.5329,3.5329,3.5532,3.56,3.56,3.56,3.596,0.0,0.0,0.0,0.0,3.8937,3.9445,0.0,0.0,0.0,0.0,0.0,0.0,0.0,0.0,4.0113,4.0248,4.0959,0.0,4.2178,4.1974,4.1534,4.1128,0.0,4.0485,4.0113,4.0113,3.8937,3.8261,3.9368,3.7912,3.755,4.073,4.1271,4.2489,4.6041,5.1251,5.6021,5.9573,6.1772,6.2685,6.1907,6.2347,6.2888,6.3463,6.2821,6.1738,6.0182,6.0114,5.9404,5.7949,5.734,5.707,5.707,5.69,5.6528,5.5987,5.5987,5.548,5.46,5.4769,5.4363,5.3518,0.0,0.0,5.3518,5.3518,5.3518,5.3518,5.3518,5.3518,5.3518,5.3518,5.3518,5.3518,0.0,0.0,0.0,0.0,0.0,0.0,0.0,0.0,0.0,0.0,0.0,3.1853,3.2259,3.2293,0.0,0.0,0.0,0.0,0.0,0.0,0.0,0.0,0.0,3.4269,3.5081,3.622,3.7144,3.7922,3.8227,3.8396,3.8396,3.799,3.7212,3.6129,3.5769,3.56,3.56,3.56,3.56,3.56,3.56,0.0,0.0,0.0,0.0,0.0,3.887,3.9445,0.0,4.0113,4.0113,4.0113,0.0,0.0,0.0,0.0,4.0113,4.0113,4.0113,4.035,4.0595,4.0595,4.0595,4.0595,4.0595,4.035,4.0113,4.0113,3.9174,3.8633,3.9469,3.8328,3.8294,4.1305,4.1779,4.3436,4.8173,5.3145,5.7408,6.0385,6.1806,6.2482,6.2415,6.2381,6.2415,6.2482,6.211,6.1231,5.9674,5.9268,5.8558,5.7442,5.6697,5.6461,5.6799,5.6122,5.5581,5.5209,5.5209,5.4803,5.4093,5.4431,5.4194,5.3518,0.0,0.0,5.3518,5.3518,5.3518,5.3518,5.3518,5.3518,5.3518,5.3518,5.3518,5.345,0.0,0.0,0.0,0.0,0.0,0.0,0.0,0.0,0.0,0.0,0.0,0.0,0.0,0.0,0.0,0.0,0.0,0.0,0.0,0.0,0.0,0.0,3.4303,3.4641,3.5013,3.6321,3.7381,3.8227,3.887,3.9174,3.9174,3.9174,3.8386,3.6931,3.6129,3.5701,3.56,3.56,3.56,3.56,3.56,0.0,0.0,0.0,0.0,0.0,0.0,0.0,0.0,4.0113,4.0113,4.0113,4.0113,0.0,0.0,0.0,0.0,0.0,4.0248,4.0967,4.161,4.1136,4.1136,4.117,4.1068,4.0527,4.0113,4.0113,3.9537,3.9073,3.9276,3.8836,3.914,4.1373,4.2185,4.479,5.1183,5.4363,5.707,5.9776,6.0926,6.1569,6.1839,6.2076,6.1907,6.1163,6.1129,6.052,5.9099,5.8287,5.7543,5.6833,5.5987,5.5852,5.6461,5.5209,5.4532,5.4431,5.4431,5.4093,5.3518,5.416,5.4093,5.3518,0.0,0.0,5.3518,5.3518,5.3518,5.3518,5.3518,5.3518,5.3518,5.3518,5.3518,5.3382,0.0,0.0,0.0,0.0,0.0,0.0,0.0,0.0,0.0,0.0,0.0,0.0,0.0,0.0,0.0,0.0,0.0,0.0,0.0,0.0,0.0,3.6254,3.5137,3.5385,3.7347,3.7618,3.8396,3.9774,3.9876,3.9943,3.9943,3.9943,3.914,3.7686,3.6941,3.6231,3.56,3.56,3.56,3.56,3.56,0.0,0.0,0.0,0.0,0.0,0.0,0.0,0.0,4.0113,4.0113,4.0113,4.0113,0.0,0.0,0.0,0.0,0.0,4.0865,4.2523,4.3464,4.0925,4.073,4.1035,4.0417,4.018,4.0113,4.0113,3.9537,3.9377,4.0629,4.0764,4.1441,4.3735,4.6684,5.0405,5.5277,5.6867,5.8186,5.9911,6.1366,6.1501,5.9708,6.0723,6.1129,6.0351,6.0283,5.9911,5.9066,5.8287,5.7543,5.6833,5.548,5.4803,5.4938,5.4702,5.4296,5.3687,5.3687,5.3619,5.3518,5.3619,5.3619,5.3518,0.0,5.3518,5.3518,5.3518,5.3518,5.3518,5.3518,5.3518,5.3518,5.3518,5.3518,5.3315,0.0,0.0,0.0,0.0,0.0,0.0,0.0,0.0,0.0,0.0,0.0,0.0,0.0,0.0,0.0,0.0,0.0,0.0,0.0,0.0,3.596,3.6761,3.6118,3.64,3.7889,3.8294,3.8836,3.9537,3.991,4.0113,4.0079,3.9276,3.8531,3.7855,3.6671,3.596,3.56,3.56,3.56,3.56,0.0,0.0,0.0,0.0,0.0,0.0,0.0,0.0,0.0,0.0,3.9774,4.0113,4.0113,0.0,0.0,0.0,0.0,0.0,4.0493,4.1644,4.2523,4.1568,4.2455,4.3234,4.1644,4.1297,4.1297,4.1297,4.1001,4.0967,4.1677,4.2489,4.4147,4.7597,5.0608,5.3518,5.6393,5.7103,5.7848,5.9336,6.0148,6.0317,5.9674,6.025,6.0317,5.9573,5.9133,5.8592,5.7848,5.6731,5.5953,5.5615,5.4566,5.4025,5.4025,5.4025,5.3822,5.3518,5.3518,5.3518,5.3518,5.3518,5.3518,5.3518,0.0,5.3518,5.3518,5.3518,5.3518,5.3518,5.3518,5.3518,5.3518,5.3518,5.2976,5.2232,0.0,0.0,0.0,0.0,0.0,0.0,0.0,0.0,0.0,0.0,0.0,0.0,0.0,0.0,0.0,0.0,0.0,0.0,0.0,3.6039,3.6502,3.7303,3.7337,3.7584,3.8159,3.87,3.9073,3.9242,3.9842,4.0113,4.0079,3.8768,3.8058,3.7855,3.6648,3.5938,3.56,3.5802,3.5769,3.56,0.0,0.0,0.0,0.0,0.0,0.0,0.0,0.0,0.0,0.0,0.0,0.0,0.0,0.0,0.0,4.0113,4.0113,4.0146,4.0316,4.1035,4.1779,4.1982,4.3335,4.4418,4.3538,4.3064,4.2963,4.3504,4.347,4.3301,4.3132,4.4485,4.7022,5.1319,5.3754,5.5683,5.734,5.7577,5.7983,5.9133,5.9268,5.9404,5.981,5.9674,5.9268,5.8558,5.7814,5.7137,5.6562,5.531,5.46,5.46,5.389,5.3518,5.3518,5.3518,5.3518,5.3518,5.3518,5.3518,5.3518,5.3518,5.3518,5.3518,5.3518,5.3518,5.3518,5.3518,5.3518,5.3518,5.3518,5.3518,5.3518,5.3518,5.2773,5.1792,0.0,0.0,0.0,0.0,0.0,0.0,0.0,0.0,0.0,0.0,0.0,0.0,0.0,0.0,0.0,0.0,0.0,0.0,0.0,3.7347,3.8058,3.8802,3.8836,3.887,3.8903,3.8971,3.9334,4.0011,4.0079,4.0113,4.0079,3.9276,3.8565,3.7922,3.7787,3.6918,3.5633,3.64,3.6265,3.56,3.56,0.0,0.0,0.0,0.0,0.0,0.0,0.0,0.0,0.0,0.0,0.0,0.0,0.0,4.0113,4.0113,4.0113,4.0248,4.0933,4.2185,4.2902,4.161,4.1407,4.2388,4.5703,4.5427,4.4993,4.709,4.6955,4.6278,4.5568,4.7225,4.9932,5.3721,5.5649,5.7408,5.9573,5.9844,5.9911,6.0013,6.0013,5.9776,5.9167,5.8457,5.7746,5.7002,5.6292,5.5852,5.5784,5.504,5.46,5.46,5.389,5.3518,5.3518,5.3518,5.3518,5.3518,5.3518,5.3518,5.3518,5.3518,5.3518,5.3518,5.3518,5.3518,5.3518,5.3518,5.3518,5.3518,5.3518,5.3518,5.3518,5.3518,5.345,5.3247,0.0,0.0,0.0,0.0,0.0,0.0,0.0,0.0,0.0,0.0,0.0,0.0,0.0,0.0,0.0,0.0,0.0,0.0,0.0,3.7043,3.7753,3.8937,3.9005,3.9208,3.9673,3.9673,3.9842,4.0113,4.0113,4.0113,4.0079,3.887,3.8396,3.8531,3.7087,3.6681,3.7009,3.6332,3.6163,3.6299,3.5802,3.56,0.0,0.0,0.0,0.0,0.0,0.0,0.0,0.0,3.8802,3.9503,3.9977,4.0113,4.0113,4.0113,4.0113,4.018,4.0426,4.1914,4.3139,4.2151,4.2591,4.391,4.6244,4.7056,4.7834,4.9562,4.9729,4.9323,4.8578,4.9492,5.1454,5.4769,5.6528,5.8084,5.9844,6.0114,5.9945,5.9471,5.8998,5.8423,5.7712,5.6968,5.6427,5.6156,5.5446,5.5006,5.5006,5.4329,5.3923,5.3923,5.3653,5.3518,5.3518,5.3518,5.3518,5.3518,5.3518,5.3518,5.3518,5.3518,5.3518,5.3518,5.3518,5.3518,5.3518,5.3518,5.3518,5.3518,5.3518,5.3518,5.3518,5.3518,5.3179,5.2773,0.0,0.0,0.0,0.0,0.0,0.0,0.0,0.0,0.0,0.0,0.0,0.0,0.0,0.0,0.0,0.0,0.0,0.0,3.7438,3.7709,3.8285,3.93,3.9368,3.9605,4.0079,4.0113,4.0113,4.0113,4.0113,4.0113,4.0079,3.8836,3.8531,3.8937,3.7381,3.7144,3.7855,3.7043,3.6705,3.6761,3.6197,3.5825,0.0,0.0,0.0,0.0,0.0,0.0,0.0,0.0,3.8193,3.9073,3.9605,3.991,4.0113,4.0113,4.0113,4.0113,4.0113,4.1204,4.2354,4.2286,4.3464,4.5292,4.7936,4.9154,5.0338,5.2536,5.2435,5.1691,5.0913,5.1014,5.2165,5.5208,5.6731,5.7983,5.9235,5.9607,5.9302,5.8118,5.7712,5.7273,5.6528,5.5784,5.5344,5.5344,5.4668,5.4262,5.4262,5.3788,5.3518,5.3518,5.3518,5.3518,5.3518,5.3518,5.3518,5.3518,5.3518,5.3518,5.3518,5.3518,5.3518,5.3518,5.3518,5.3518,5.3518,5.3518,5.3518,5.3518,5.3518,5.3651,5.3848,5.3848,5.3507,5.313,0.0,0.0,0.0,0.0,0.0,0.0,0.0,0.0,0.0,0.0,0.0,0.0,0.0,0.0,0.0,0.0,0.0,0.0,3.8937,3.9673,4.0079,4.0113,4.0113,4.0113,4.0113,4.0113,4.0113,4.0113,4.0113,4.0113,4.0079,3.9368,3.9005,3.9005,3.9005,3.8599,3.799,3.87,3.8125,3.6829,3.6829,3.6332,3.56,0.0,0.0,0.0,0.0,0.0,0.0,0.0,3.7777,3.8971,3.9005,3.9537,4.0113,4.0113,4.0113,4.0113,4.0113,4.0113,4.0485,4.1948,4.3498,4.6003,5.1116,5.1758,5.23,5.6021,5.504,5.3281,5.2469,5.1725,5.2165,5.5174,5.6325,5.7036,5.778,5.8524,5.8186,5.5952,5.6359,5.6494,5.5784,5.5006,5.4566,5.4566,5.3923,5.3518,5.3518,5.3484,5.3484,5.3518,5.3484,5.3484,5.3518,5.3518,5.3518,5.3518,5.3484,5.3484,5.3518,5.3518,5.3518,5.3518,5.3518,5.3518,5.3518,5.3518,5.3518,5.3518,5.3518,5.3979,5.4606,5.4637,5.4637,5.4695,0.0,0.0,0.0,0.0,0.0,0.0,0.0,0.0,0.0,0.0,0.0,0.0,0.0,0.0,0.0,0.0,0.0,0.0,3.8937,3.9174,3.9571,4.0079,4.0113,4.0113,4.0113,4.0113,4.0113,4.0113,4.0113,4.0113,4.0079,3.9368,3.9276,3.974,3.87,3.8667,3.9402,3.8565,3.8261,3.8294,3.7787,3.711,3.6434,0.0,0.0,0.0,0.0,0.0,0.0,0.0,0.0,0.0,3.8836,3.9537,4.0113,4.0113,4.0113,4.0113,4.0113,4.1238,4.2523,4.2963,4.5399,4.8376,5.0947,5.2198,5.3585,5.6258,5.504,5.345,5.3179,5.2503,5.2469,5.3923,5.4769,5.5513,5.6258,5.6562,5.6461,5.5784,5.5446,5.5175,5.4938,5.4262,5.3822,5.3822,5.3619,5.3518,5.3518,5.2976,5.2909,5.3484,5.2942,5.2942,5.3484,5.3518,5.3518,5.3484,5.2942,5.2942,5.3518,5.3518,5.3518,5.3518,5.3518,5.3518,5.3518,5.3518,5.3518,5.3551,5.4074,5.4388,5.4665,5.5173,5.5379,5.5408,0.0,0.0,0.0,0.0,0.0,0.0,0.0,0.0,0.0,0.0,3.5588,3.6265,0.0,0.0,0.0,0.0,0.0,0.0,3.9402,3.9436,3.9639,4.0079,4.0113,4.0113,4.0113,4.0113,4.0113,4.0113,4.0113,4.0113,4.0079,3.9673,3.9673,4.0079,3.9174,3.9276,4.0045,3.914,3.887,3.8937,3.8531,3.7719,3.6795,0.0,0.0,0.0,0.0,0.0,0.0,0.0,0.0,0.0,3.8328,3.9073,3.974,4.0011,3.991,3.974,4.0011,4.1271,4.2801,4.4012,4.6921,5.0067,5.2469,5.416,5.5615,5.6968,5.5716,5.4296,5.3991,5.3044,5.2672,5.3754,5.4296,5.4769,5.5209,5.5547,5.5513,5.4905,5.4702,5.4465,5.4194,5.3484,5.3179,5.3484,5.2942,5.2706,5.301,5.23,5.2097,5.257,5.2131,5.2097,5.2604,5.2604,5.2604,5.2604,5.2097,5.2131,5.2604,5.2604,5.2739,5.301,5.2706,5.2942,5.345,5.2841,5.2942,5.3483,5.3642,5.4027,5.4594,5.5084,5.525,5.5312,0.0,0.0,0.0,0.0,0.0,0.0,0.0,0.0,0.0,0.0,3.6276,3.6761,0.0,0.0,0.0,0.0,0.0,0.0,0.0,4.0113,4.0113,4.0113,4.0113,4.0113,4.0113,4.0113,4.0113,4.0113,4.0113,4.0113,4.0113,4.0113,4.0113,4.0113,4.0113,4.0113,4.0113,4.0113,3.9706,3.9073,3.9073,3.8285,3.6998,3.6931,0.0,0.0,0.0,0.0,0.0,0.0,0.0,0.0,3.7584,3.8294,3.9039,3.9706,3.9436,3.9073,3.9876,4.0696,4.2049,4.5128,4.8206,5.142,5.4938,5.6731,5.7679,5.7679,5.6596,5.5412,5.4702,5.3382,5.2875,5.4262,5.4499,5.4499,5.4499,5.5074,5.5006,5.3653,5.4025,5.4126,5.345,5.2672,5.2503,5.3247,5.1995,5.1488,5.2164,5.1522,5.1117,5.1185,5.1117,5.1117,5.1185,5.1185,5.1185,5.1185,5.1117,5.1117,5.1185,5.1185,5.1589,5.2164,5.1488,5.2029,5.3281,5.1826,5.2096,5.3413,5.2701,5.3258,5.4524,5.4655,5.4652,5.4822,0.0,0.0,0.0,0.0,0.0,0.0,0.0,0.0,0.0,0.0,0.0,0.0,0.0,0.0,0.0,0.0,0.0,0.0,0.0,4.0113,4.0113,4.0113,4.0113,4.0113,4.0113,4.0113,4.0113,4.0113,4.0113,4.0113,4.0113,4.0113,4.0113,4.0113,4.0113,4.0113,4.0113,4.0113,4.0011,3.9876,3.9876,3.9334,3.8464,3.7889,3.7212,0.0,0.0,0.0,0.0,0.0,0.0,0.0,3.6998,3.755,3.8159,3.8328,3.8261,3.843,3.974,4.106,4.2929,4.6549,5.0541,5.3991,5.5412,5.5953,5.619,5.619,5.548,5.4769,5.4634,5.3856,5.3348,5.3687,5.3754,5.3754,5.3754,5.389,5.3856,5.3551,5.3078,5.2739,5.257,5.1894,5.1522,5.1691,5.1388,5.1252,5.1454,5.0744,5.0608,5.1151,5.0642,5.0608,5.1185,5.1185,5.1185,0.0,5.0608,5.0642,5.1185,5.1185,5.1286,5.1454,5.1252,5.1725,5.2503,5.1589,5.2079,5.3391,5.3217,5.3718,5.4644,5.5871,5.5921,5.5578,0.0,0.0,0.0,0.0,0.0,0.0,0.0,0.0,0.0,0.0,0.0,0.0,0.0,0.0,0.0,0.0,0.0,0.0,0.0,0.0,4.0113,4.0113,4.0113,4.0113,4.0113,4.0113,4.0113,4.0113,4.0113,4.0113,4.0113,4.0113,4.0113,4.0113,4.0113,4.0113,4.0113,4.0113,4.0113,4.0113,4.0113,3.9673,3.8937,3.8565,3.7956,3.728,3.6874,0.0,0.0,0.0,0.0,0.0,0.0,0.0,3.799,3.8328,3.8193,3.8159,3.9276,4.117,4.3978,4.8815,5.2334,5.4769,5.5547,5.5446,5.5074,5.4735,5.4634,5.4465,5.4126,5.3754,5.3382,5.2976,5.2942,5.2807,5.2469,5.2401,5.2401,5.2401,5.2029,5.1792,5.1792,5.1116,5.0845,5.1183,5.0574,5.0304,5.0642,4.9965,4.9763,5.0135,4.9763,4.9763,5.0168,5.0168,5.0168,5.0135,4.9763,4.9763,5.0168,5.0507,5.0676,5.0642,5.0304,5.0777,5.1691,5.0608,5.1216,5.2835,5.2451,5.2957,5.4013,5.5204,5.5133,5.4693,0.0,0.0,0.0,0.0,0.0,0.0,0.0,0.0,0.0,0.0,0.0,0.0,0.0,0.0,0.0,0.0,0.0,0.0,0.0,0.0,0.0,4.0113,4.0113,4.0113,4.0113,4.0113,4.0113,4.0113,4.0113,4.0316,4.0654,4.0417,4.0282,4.0282,4.0282,4.0214,4.0113,4.0113,4.0113,4.0113,4.0113,3.974,3.9174,3.9039,3.8633,3.8058,3.7956,3.7922,3.7922,3.7922,0.0,0.0,0.0,0.0,3.7821,3.843,3.8091,3.7686,3.8565,4.1271,4.5066,5.0405,5.2875,5.416,5.4803,5.4465,5.3822,5.3247,5.3687,5.3957,5.3247,5.3112,5.2909,5.2232,5.2131,5.1894,5.1286,5.1185,5.1185,5.1185,5.1116,5.1014,5.1014,5.0338,5.0168,5.0745,4.9593,4.9086,4.9695,4.9018,4.8612,4.8612,4.8612,4.8612,4.8612,4.8612,4.8612,4.8612,4.8748,4.8748,4.8646,4.9526,4.9898,4.9864,4.9255,4.9763,5.0913,4.956,5.0283,5.2207,5.1413,5.1962,5.3313,5.4239,5.3995,5.3445,0.0,0.0,0.0,0.0,0.0,0.0,0.0,0.0,0.0,0.0,3.7308,3.7956,0.0,0.0,0.0,0.0,0.0,0.0,0.0,0.0,0.0,4.0113,4.0113,4.0113,4.0113,4.0113,4.0113,4.0113,4.0113,4.1068,4.2902,4.1644,4.1068,4.1068,4.1068,4.0696,4.0113,4.0113,4.0113,4.0113,4.0113,4.0045,3.9876,3.9242,3.8937,3.8768,3.8125,3.7922,3.7922,3.7922,3.7922,0.0,0.0,0.0,3.6965,3.7066,3.6535,3.6208,3.7652,4.1644,4.6041,4.8748,5.0574,5.1691,5.1792,5.1692,5.1657,5.1555,5.2097,5.2367,5.1657,5.1522,5.1488,5.1386,5.1352,5.1319,5.1185,5.1185,5.1185,5.1185,5.0642,5.0236,5.0236,4.9593,4.9187,4.9289,4.8545,4.8075,4.8176,4.7496,4.709,4.709,4.709,4.709,4.709,4.709,4.709,4.709,4.7767,4.7733,4.7124,4.8511,4.9154,4.9154,4.9052,4.9458,5.0168,4.9357,5.0268,5.2137,5.1387,5.197,5.339,5.4891,5.4473,5.3534,0.0,0.0,0.0,0.0,0.0,0.0,0.0,0.0,0.0,0.0,0.0,3.8227,0.0,0.0,0.0,0.0,0.0,0.0,0.0,0.0,0.0,4.0113,4.0113,4.0113,4.0113,4.0113,4.0113,4.0113,4.0113,4.1467,4.4079,4.3842,4.3741,4.3673,4.2828,4.2016,4.1297,4.0451,4.0113,4.0113,4.0113,4.0113,4.0079,3.974,3.9639,3.9571,3.9242,3.9106,3.9106,3.9106,3.9106,3.9106,3.9106,0.0,0.0,0.0,3.7178,3.729,3.9242,4.1745,4.4418,4.709,4.8883,4.9965,4.9965,5.0304,5.0338,4.9494,4.9596,5.0135,5.1016,5.1185,5.1082,5.0642,5.0574,5.0439,5.0033,4.9965,4.983,4.9393,4.9086,4.8714,4.8274,4.797,4.7767,4.7767,4.7462,4.7293,4.7293,4.6989,4.6786,4.6786,4.6786,4.6786,4.6786,4.6786,4.6786,4.6786,4.7124,4.7327,4.7462,4.8105,4.8376,4.8409,4.8815,4.9187,4.9458,4.912,4.9786,5.099,5.107,5.1728,5.2767,5.4364,5.4473,5.4032,0.0,0.0,0.0,0.0,0.0,0.0,0.0,0.0,0.0,0.0,0.0,0.0,0.0,0.0,0.0,0.0,0.0,0.0,0.0,0.0,0.0,4.0113,4.0113,4.0113,4.0113,4.0113,4.0113,4.0113,4.0113,4.1839,4.519,4.5703,4.6481,4.7293,4.537,4.3809,4.2489,4.123,4.0654,4.062,4.0045,3.9943,4.0079,3.991,3.9943,4.0113,4.0113,4.0113,4.0113,4.0113,4.0113,4.0113,4.0113,3.9605,0.0,0.0,0.0,3.799,3.9614,4.0764,4.2049,4.4485,4.6346,4.7597,4.7597,4.8308,4.868,4.7597,4.7496,4.8139,4.9796,5.0101,4.9965,4.9593,4.9357,4.9052,4.8511,4.8443,4.824,4.7699,4.7631,4.7394,4.6853,4.6786,4.6786,4.6786,4.6616,4.6515,4.6515,4.6346,4.6244,4.6244,4.6041,4.6041,4.6244,4.6244,4.6244,4.6244,4.6413,4.6718,4.709,4.7635,4.78,4.7665,4.8612,4.9018,4.9018,4.9018,4.9492,5.0335,5.0876,5.1618,5.2536,5.3917,5.4289,5.4106,0.0,0.0,0.0,0.0,0.0,0.0,0.0,0.0,0.0,0.0,0.0,0.0,3.9039,3.9673,4.0113,4.0113,4.0113,0.0,0.0,0.0,0.0,4.0113,4.0113,0.0,4.0113,4.0113,4.0113,4.0113,4.0113,4.2381,4.6684,4.6718,4.8612,5.1826,4.8951,4.6046,4.3274,4.2523,4.2185,4.1982,3.9884,3.9503,4.0011,3.9309,3.9503,4.0113,4.0113,4.0113,4.0113,4.0113,4.0113,4.0113,4.0113,3.9605,3.8971,0.0,0.0,0.0,3.6998,3.8082,3.9377,4.0248,4.2083,4.368,4.368,4.4857,4.5906,4.5838,4.638,4.6887,4.6989,4.7022,4.7259,4.7936,4.7428,4.6955,4.6921,4.6921,4.6887,4.6853,4.6853,4.6819,4.6786,4.6786,4.6786,4.6786,4.6143,4.5771,4.5771,4.5094,4.4716,4.4716,4.3978,4.3944,4.4716,4.4716,4.4716,4.4716,4.5432,4.5399,4.4852,4.6955,4.753,4.6921,4.8376,4.9018,4.9018,4.9018,4.9809,5.1034,5.1086,5.1922,5.3256,5.4084,5.3922,5.335,0.0,0.0,0.0,0.0,0.0,0.0,0.0,0.0,0.0,0.0,0.0,0.0,0.0,3.9943,4.0113,4.0113,4.0113,0.0,0.0,0.0,0.0,4.0113,4.0113,4.0113,4.0113,4.0113,4.0113,4.0113,4.0561,4.2388,4.5427,4.6346,4.7496,4.8748,4.8173,4.7056,4.5432,4.3234,4.2016,4.1474,4.0248,3.9876,3.9977,3.8768,3.9039,4.0045,3.9571,3.9706,4.0113,4.0113,4.0113,4.0113,4.0113,3.991,3.9605,3.914,3.8294,3.7516,3.7516,3.7889,3.8464,3.9208,4.0358,4.1279,4.1271,4.2422,4.3369,4.2929,4.3403,4.4045,4.4553,4.5805,4.6718,4.6515,4.665,4.6616,4.6143,4.6481,4.6616,4.6143,4.6075,4.5906,4.5427,4.4925,4.4823,4.5331,4.4215,4.3707,4.4215,4.3504,4.3335,4.3809,4.3098,4.2828,4.3125,4.3572,4.3842,4.3842,4.4621,4.5094,4.5331,4.6143,4.6887,4.7564,4.8071,4.8578,4.9015,4.9462,4.9919,5.0472,5.1393,5.2042,5.259,5.3331,5.3775,5.3959,0.0,0.0,0.0,0.0,0.0,0.0,0.0,0.0,3.8802,3.9276,0.0,0.0,0.0,0.0,4.0113,4.0113,4.0113,4.0113,4.0113,4.0113,4.0113,4.0113,4.0113,4.0113,4.0113,4.0113,4.0214,4.0485,4.0967,4.2489,4.4993,4.5974,4.6819,4.753,4.7293,4.6887,4.6278,4.4282,4.3031,4.2219,4.0722,4.0553,4.1068,3.9851,4.029,4.15,4.073,4.0629,4.0756,4.0282,3.9943,3.9774,4.0011,4.0113,3.9977,3.9208,3.8633,3.8227,3.799,3.7719,3.7719,3.843,3.8802,3.9005,3.8996,4.0121,4.1035,4.0561,4.1238,4.2151,4.2895,4.4282,4.5196,4.4993,4.5128,4.5128,4.4621,4.4993,4.5094,4.4621,4.4553,4.4384,4.3904,4.3335,4.3267,4.3802,4.2861,0.0,4.2997,4.2557,4.2422,4.2632,4.2422,4.2185,4.1914,4.2929,4.3375,4.3409,4.4215,4.4886,4.5331,4.5602,4.6244,4.7192,4.7631,4.8282,4.9046,4.9722,5.0174,5.0472,5.1643,5.2229,5.2531,5.3039,5.3555,5.3922,0.0,0.0,0.0,0.0,0.0,0.0,0.0,0.0,3.8497,3.991,0.0,0.0,0.0,0.0,0.0,4.0113,4.0113,4.0113,4.0113,4.0113,4.0113,4.0113,0.0,0.0,4.0146,4.0146,4.0519,4.1238,4.1238,4.2726,4.5602,4.5635,4.6786,4.8748,4.665,4.5703,4.5669,4.5635,4.5229,4.4378,4.1365,4.1474,4.3375,4.2557,4.3227,4.4513,4.3639,4.2895,4.2117,4.062,3.9673,3.9174,3.9876,4.0113,3.9977,3.9242,3.9039,3.887,0.0,0.0,0.0,3.7686,3.7313,3.6761,3.6761,3.7889,3.8937,3.8903,4.0087,4.1305,4.2016,4.2151,4.2422,4.3139,4.2726,4.2286,4.2252,4.2286,4.2286,4.2286,4.2286,4.2286,4.2286,4.2286,4.2286,4.2286,4.2252,4.2219,4.2252,4.2252,4.1914,4.1204,4.188,4.1914,4.117,4.2625,4.3341,4.3375,4.4181,4.4581,4.4615,4.5331,4.5669,4.5794,4.7114,4.8198,4.904,4.9746,5.0472,5.1189,5.1862,5.2576,5.3203,5.3203,5.3203,5.3203,0.0,0.0,0.0,0.0,0.0,3.9571,3.9774,3.9639,3.9639,0.0,0.0,0.0,4.0079,4.0113,4.0113,4.0113,4.0113,4.0113,4.0113,4.0113,4.0113,4.0113,4.0595,4.0899,4.0899,4.1407,4.1779,4.1982,4.1982,4.2422,4.3234,4.3809,4.4356,4.4964,4.55,4.5399,4.4886,4.4282,4.4587,4.5162,4.2692,4.3031,4.4756,4.1813,4.2347,4.4344,4.2489,4.2354,4.2861,4.1407,4.0764,4.0527,4.0214,4.0113,4.0079,3.9876,3.9808,3.9639,3.8903,0.0,0.0,0.0,0.0,0.0,3.5926,3.6705,3.7246,3.6671,3.7753,3.87,3.8386,3.8768,3.9377,4.0087,4.1373,4.2117,4.1576,4.1948,4.2286,4.2286,4.2286,4.2286,4.2286,4.1813,4.1745,0.0,4.1331,4.0933,4.1474,4.1508,4.117,4.0451,4.1102,4.1136,4.0417,4.1339,4.2083,4.2625,4.3369,4.4045,4.4615,4.4818,4.5437,4.6377,4.6738,4.7603,4.8863,5.014,5.1106,5.1862,5.2599,5.3039,5.3203,5.3203,5.3203,5.3203,0.0,0.0,0.0,0.0,0.0,4.0113,4.0113,4.0113,4.0113,0.0,0.0,0.0,4.0553,4.0857,4.1027,4.1027,4.0756,4.0561,4.0561,4.0561,4.0561,4.0561,4.1271,4.1644,4.1644,4.2083,4.2455,4.276,4.276,4.2929,4.3295,4.3707,4.391,4.3944,4.4485,4.4688,4.4547,4.3741,4.4113,4.5128,4.3775,4.4418,4.594,4.4079,4.4621,4.621,4.4587,4.4553,4.4897,4.2489,4.1238,4.0595,3.9851,3.9842,4.0113,4.0113,4.0113,4.0011,3.9571,3.8903,3.8328,3.8217,0.0,0.0,3.5667,3.5723,3.5622,3.4844,3.5656,3.6434,3.6332,3.6671,3.7212,3.7956,3.9165,4.0155,4.0663,4.1102,4.1399,4.1399,4.1399,4.1399,4.1399,4.0967,4.0899,4.1365,4.0587,4.0282,4.0696,4.073,4.0527,4.0113,4.0493,4.0527,4.0113,4.0832,4.1407,4.1847,4.2591,4.3335,4.4079,4.4079,4.4865,4.6152,4.6402,4.7326,4.877,5.024,5.1126,5.1726,5.2769,5.3203,5.3203,5.3203,5.3203,5.3203,0.0,0.0,4.0113,4.0113,4.018,4.0214,4.0214,4.0214,4.0248,0.0,4.035,4.0654,4.1474,4.2016,4.232,4.2422,4.1745,4.1339,4.1339,4.1339,4.1339,4.1339,4.2016,4.2422,4.2422,4.2489,4.2861,4.3511,4.3443,4.3775,4.4479,4.4479,4.4479,4.4445,4.3809,4.3944,4.4547,4.3842,4.391,4.4479,4.4649,4.5698,4.7192,4.7631,4.8308,4.8883,4.8041,4.7804,4.7331,4.3673,4.1441,4.0113,3.9343,3.9571,4.0113,4.0113,4.0113,4.0113,4.0113,3.9571,3.914,3.9808,3.8454,0.0,3.5904,3.5216,3.4506,3.3694,3.41,3.481,3.5363,3.5532,3.5836,3.666,3.6795,3.7506,3.9571,3.9876,3.991,3.9977,3.9977,4.0011,4.0079,4.0113,4.0113,4.0113,4.0113,4.0113,4.0113,4.0113,4.0113,4.0113,4.0113,4.0113,4.0113,4.073,4.1136,4.1204,4.1847,4.2625,4.3375,4.3375,4.4156,4.552,4.6161,4.7189,4.8605,5.0065,5.0821,5.1144,5.2645,5.3203,5.3203,5.3203,5.3203,5.3203,0.0,4.0113,4.0113,4.0113,4.0595,4.1001,4.1001,4.1001,4.1204,4.1779,4.1847,4.2388,4.3802,4.2956,4.2523,4.3132,4.2523,4.2083,4.2083,4.2083,4.2083,4.2083,4.2794,4.32,4.32,4.3809,4.4242,4.4378,4.3741,4.3477,4.3639,4.3639,4.3639,4.3673,4.4147,4.4479,4.4581,4.4418,4.4079,4.3741,4.4993,4.709,4.9255,4.7631,4.7834,4.8849,4.7496,4.7394,4.7398,4.422,4.2219,4.0865,4.0146,3.9977,4.0113,4.0113,4.0113,4.0113,4.0113,3.9571,3.9039,3.9174,3.843,0.0,3.6738,3.6457,3.5983,3.4573,3.4878,3.5228,3.481,3.5194,3.5836,3.666,3.6795,3.7168,3.8193,3.8328,3.8531,3.914,3.9208,3.9469,4.0045,4.0113,4.0113,4.0113,4.0113,4.0113,4.0113,4.0113,4.0113,4.0113,4.0113,4.0113,4.0113,4.0248,4.0595,4.1204,4.1339,4.2117,4.3375,4.3375,4.4156,4.552,4.6161,4.6868,4.7738,4.9245,5.0595,5.1867,5.2852,5.3203,5.3203,5.3203,5.3203,5.3203,4.0113,4.0113,4.0214,4.0561,4.0933,4.1339,4.1677,4.1745,4.2151,4.3301,4.4079,4.4553,4.4615,4.4215,4.4012,4.4012,4.3301,4.2861,4.2861,4.2861,4.2861,4.2861,4.3606,4.4012,4.4012,4.4384,4.4615,4.4615,4.4181,4.4012,4.4012,4.4012,4.3606,4.2895,4.4079,4.4175,4.3498,4.4276,4.479,4.5162,4.594,4.6921,4.7902,4.7902,4.8376,4.8849,4.7767,4.6887,4.6007,4.4519,4.2997,4.1542,4.0451,4.035,4.0561,4.0214,4.0113,4.0154,4.0441,4.024,3.9932,3.9932,3.9384,0.0,0.0,3.7146,3.6268,3.5166,3.5131,3.4993,3.4105,3.447,3.5087,3.5587,3.5644,3.5893,3.6648,3.7415,3.8058,3.8396,3.8464,3.8599,3.8971,3.9005,3.9165,3.9512,3.9571,3.9706,4.0079,4.0113,4.0113,4.0113,4.0113,4.0113,4.0113,4.0113,4.0282,4.0629,4.0629,4.1238,4.232,4.2692,4.3786,4.5428,4.6129,4.6955,4.7931,4.9125,5.0088,5.0932,5.2123,5.2858,5.3203,5.3203,5.3203,5.3203,4.0113,4.0113,4.0282,4.0865,4.1204,4.161,4.2185,4.2422,4.3098,4.4818,4.594,4.6278,4.5529,4.5466,4.5432,4.5229,4.3842,4.3274,4.4012,4.3538,4.3172,4.3172,4.4079,4.4479,4.4175,4.4445,4.4615,4.4615,4.4615,4.4615,4.4615,4.4615,4.3938,4.2794,4.3904,4.3842,4.3031,4.4141,4.5292,4.638,4.6684,4.6616,4.6549,4.8342,4.8917,4.8714,4.797,4.6447,4.4818,4.4649,4.3667,4.2286,4.0959,4.0832,4.1102,4.0654,4.0316,4.0238,4.094,4.1128,4.1093,4.0955,4.0665,4.0165,0.0,0.0,0.0,3.6191,3.5808,3.5298,3.4257,3.4411,3.4644,3.4524,3.4607,3.4922,0.0,3.6672,0.0,3.7686,3.755,3.756,3.7889,3.8024,3.841,3.9074,3.918,3.9445,4.0079,4.0113,4.0113,4.0113,4.0113,4.0113,4.0113,4.0113,4.0113,4.0113,4.0113,4.0493,4.1238,4.1948,4.3322,4.5176,4.6047,4.7066,4.8207,4.9001,4.9463,4.9757,5.1206,5.227,5.2968,5.2968,5.3078,5.3203,4.0113,4.0113,4.0146,4.0214,4.1331,4.2185,4.2286,4.2861,4.4079,4.6244,4.6143,4.6515,4.8308,4.6244,4.5466,4.7361,4.3809,4.2861,4.621,4.391,4.2422,4.2422,4.3836,4.3972,4.2591,4.3904,4.4615,4.4615,4.4615,4.4615,4.4615,4.4615,4.4513,4.431,4.3775,4.4215,4.5297,4.4818,4.4716,4.4987,4.6244,4.753,4.8646,4.8917,4.8612,4.7906,4.7192,4.6346,4.5466,4.4818,4.4012,4.3132,4.2286,4.1644,4.1305,4.188,4.1128,4.0374,4.163,4.2018,4.1868,4.1093,4.1773,4.2132,4.0142,0.0,3.9841,3.8599,0.0,3.7897,3.6639,0.0,0.0,3.473,3.5047,3.546,3.5338,3.5646,3.6129,3.6863,3.6299,3.6377,3.7787,3.8497,3.9088,3.9583,3.9842,4.0011,4.0113,4.0113,4.0113,4.0113,4.0113,4.0113,4.0113,4.0113,4.0113,4.0113,4.0113,4.0493,4.1238,4.1948,4.3134,4.4585,4.5857,4.6842,4.7569,4.8184,4.8893,4.9684,5.0582,5.1426,5.2123,5.2123,5.2601,5.3203,4.0113,4.0113,4.0383,4.123,4.188,4.2591,4.3498,4.5703,4.7327,4.7428,4.9086,5.0236,5.027,4.9187,4.8308,4.7906,4.5805,4.4756,4.5495,4.391,4.3132,4.3633,4.4242,4.431,4.3667,4.4276,4.4615,4.4615,4.4615,4.4615,4.4615,4.4615,4.4141,4.3295,4.3369,4.3274,4.3166,4.4147,4.4852,4.5331,4.638,4.7428,4.8342,4.7902,4.7259,4.6583,4.6278,4.5669,4.4925,0.0,4.3978,4.3809,4.2185,4.2049,4.2388,4.1813,4.1508,4.146,4.1974,4.2109,0.0,0.0,0.0,0.0,4.1156,0.0,4.0958,0.0,0.0,0.0,0.0,0.0,0.0,0.0,3.6761,3.6565,3.6014,0.0,3.5807,3.6901,0.0,0.0,3.6479,3.6874,3.7305,3.7968,3.8099,3.8556,3.9436,3.9469,3.9673,4.0079,4.0113,4.0113,4.0113,4.0113,4.0113,4.0113,4.0113,4.0282,4.062,4.2151,4.338,4.4378,4.6216,4.7342,4.7955,4.8209,4.8526,4.8893,4.9224,5.0435,5.1977,5.1977,5.2527,5.3203,4.0383,4.0248,4.0451,4.1534,4.2016,4.2895,4.4649,4.7158,4.8781,4.8545,5.071,5.2164,5.186,5.1285,5.0507,4.9494,4.7631,4.621,4.5534,4.4384,4.3606,4.3369,4.435,4.4485,4.3701,4.4276,4.4615,4.4615,4.4615,4.4615,4.4615,4.4615,4.4005,4.2929,4.3504,4.3267,4.2557,4.4181,4.5331,4.6041,4.6583,4.6989,4.7229,4.6718,4.6177,4.5669,4.5466,4.5026,4.4513,4.3944,4.4113,0.0,4.2658,4.2591,4.2929,4.2083,4.1745,4.18,4.226,0.0,0.0,0.0,0.0,0.0,0.0,0.0,0.0,0.0,0.0,0.0,0.0,0.0,3.9961,3.8635,0.0,3.758,3.693,3.6236,3.6097,3.6872,0.0,0.0,0.0,3.6307,3.6563,3.7168,3.7251,3.7806,3.8962,3.9005,3.9334,4.0079,4.0113,4.0154,4.0294,4.0154,4.0254,4.0563,4.0392,4.0392,4.0621,4.2645,4.3874,4.4549,4.655,4.7736,4.8306,4.8306,4.8306,4.8306,4.8306,4.9664,5.1683,5.1683,5.2307,5.3203,4.1035,4.0595,4.0113,4.018,4.1365,4.3064,4.5331,4.5771,4.6853,4.9661,4.9492,5.0236,5.3112,5.1454,5.098,5.3145,4.868,4.6346,4.7703,4.5771,4.3267,4.0366,4.3741,4.4316,4.1373,4.347,4.4615,4.4615,4.4615,4.4615,4.4615,4.4615,4.4581,4.4547,4.4547,4.4925,4.5568,4.5635,4.6075,4.6752,4.6786,4.638,4.5771,4.5737,4.5737,4.5602,4.4891,0.0,0.0,4.4581,4.4581,0.0,0.0,0.0,0.0,0.0,0.0,0.0,0.0,0.0,0.0,4.2921,0.0,0.0,0.0,0.0,4.2657,0.0,0.0,0.0,0.0,4.0689,4.0213,3.8761,3.8454,0.0,0.0,3.747,3.6946,3.6478,3.6845,0.0,0.0,3.8054,3.8208,0.0,3.8419,3.87,3.8986,3.9005,3.9334,4.0079,4.0113,4.0343,4.0874,4.0343,4.0625,4.1746,4.1138,4.1161,4.1782,4.3359,4.4421,4.5152,4.672,4.7736,4.8306,4.8306,4.8306,4.8306,4.8306,4.9334,5.0839,5.0839,5.183,5.3203,4.1068,4.1001,4.1136,4.2117,4.2286,4.3234,4.6007,4.7665,4.9695,5.2672,5.3721,5.5108,5.7611,5.7171,5.6224,5.5074,5.2875,5.0947,4.9458,4.7733,4.6109,4.4587,4.5737,4.5737,4.4215,4.4925,4.5331,4.5331,4.4852,4.4615,4.4615,4.4615,4.4615,4.4615,4.4615,4.4147,4.3538,4.506,4.5263,4.4654,4.5669,4.621,4.638,0.0,4.5399,4.4925,4.4716,4.4615,0.0,4.4615,4.4615,4.4513,4.3978,4.347,4.2997,4.2726,4.2151,0.0,0.0,0.0,4.1886,4.1778,0.0,0.0,0.0,0.0,0.0,0.0,0.0,0.0,0.0,4.226,4.1821,4.1125,4.0709,4.0039,0.0,3.8114,3.772,3.7895,3.7755,3.7596,0.0,0.0,0.0,0.0,3.7103,0.0,3.8665,3.8746,3.9318,4.0614,4.0648,4.0897,4.1473,4.1331,4.142,4.181,4.1582,4.1617,4.1846,4.3313,4.4392,4.5192,4.658,4.7619,4.8306,4.8306,4.8306,4.8306,4.8306,4.9334,5.0802,5.0802,5.183,5.3203,4.1847,4.1779,4.188,4.2861,4.3301,4.4418,4.7158,4.9695,5.2198,5.4668,5.6494,5.8321,6.0317,6.0283,5.9336,5.7442,5.6122,5.3991,5.071,5.0135,4.8748,4.6109,4.7022,4.6718,4.4925,4.5432,4.5568,4.5297,4.5094,4.4993,4.4993,4.4716,4.4615,4.4615,4.5156,4.4384,4.2828,4.5128,4.5229,4.3978,4.5466,4.621,4.6346,0.0,4.5568,4.5326,0.0,4.4615,4.4615,4.4615,4.4615,4.4513,4.3978,4.3639,4.3308,4.2828,4.2489,4.2185,4.1711,4.1576,0.0,4.152,4.1793,0.0,4.2335,0.0,4.3215,0.0,0.0,0.0,0.0,4.2789,4.2644,4.2467,4.2049,4.1214,0.0,3.8944,3.8753,3.9098,3.8563,3.794,3.7378,3.7075,3.6916,3.7023,3.6773,3.7279,0.0,0.0,3.9613,4.1171,4.1206,4.1495,4.2103,4.1916,4.2,4.2386,4.2206,4.2206,4.2442,4.3623,4.4612,4.545,4.6596,4.7553,4.8306,4.8306,4.8306,4.8306,4.8306,4.9334,5.0802,5.0802,5.183,5.3203,4.3335,4.2997,4.2591,4.2625,4.4384,4.6549,4.8781,5.1623,5.4093,5.5716,5.7848,5.9776,6.1366,6.0791,6.0283,6.0216,5.822,5.5412,5.1792,5.2807,5.098,4.5224,4.7597,4.7361,4.368,4.506,4.5432,4.4716,4.5365,4.5737,4.5737,4.4993,4.4682,4.4784,4.621,4.5568,4.3544,4.5838,4.594,4.4716,4.6109,4.6312,4.5737,4.5669,4.6143,4.6616,4.5122,4.4615,4.4615,4.4615,4.4615,4.4615,4.4615,4.4045,4.3375,4.3375,4.2895,4.2286,4.2252,4.2252,4.2207,4.2132,0.0,0.0,0.0,0.0,4.2228,0.0,0.0,0.0,0.0,0.0,4.2693,4.2732,4.2504,4.1772,4.023,3.9974,3.9937,3.9937,3.9239,3.8469,3.7676,3.8248,3.8115,3.688,3.7477,3.8367,0.0,0.0,4.0223,4.1747,4.1817,4.2124,4.2713,4.2165,4.2426,4.3497,4.2995,4.3013,4.3551,4.4305,4.5076,4.5883,4.6672,4.748,4.8233,4.8269,4.8306,4.8306,4.8306,4.9334,5.0802,5.0875,5.1903,5.3203,4.4012,4.5466,4.665,4.7192,4.7327,4.8075,5.0304,5.2266,5.4837,5.849,6.0452,6.2279,6.4343,6.3903,6.299,6.1907,6.025,5.8389,5.6292,5.5006,5.3112,5.0439,4.9999,4.8849,4.679,4.7128,4.6989,4.6244,4.5872,4.5974,4.6481,4.5771,4.5703,4.6278,4.7192,4.6075,4.3544,4.5838,4.594,4.4649,4.5021,4.5703,4.638,0.0,4.5669,4.6616,4.5122,4.4615,4.4615,4.4615,4.4615,4.4615,4.4615,4.4045,4.3375,4.3375,4.2895,4.2185,4.1644,4.1474,4.1628,4.2124,4.1835,4.1614,0.0,0.0,0.0,0.0,0.0,0.0,0.0,0.0,0.0,4.3232,4.2732,4.2176,4.1735,4.1185,4.0781,4.0781,4.0084,3.9496,3.9276,3.841,3.7909,3.8167,3.7838,3.8033,3.9067,0.0,0.0,4.1473,4.2119,4.2751,4.3286,4.3123,4.3195,4.3515,4.3356,4.3356,4.3515,4.3718,4.4232,4.5039,4.5847,4.6654,4.7443,4.803,4.8306,4.8306,4.8306,4.9334,5.0949,5.216,5.2837,5.3203,4.4891,4.7124,4.9086,4.983,5.071,5.1726,5.2977,5.4194,5.6089,5.9201,6.1535,6.299,6.3226,6.4072,6.4005,6.2516,6.0994,5.9336,5.7543,5.6258,5.4431,5.1928,5.1014,4.9458,4.6989,4.6955,0.0,4.5867,4.5399,4.594,4.7259,4.5872,4.5771,4.6819,4.7225,4.6312,4.4485,4.5432,4.5534,4.5026,4.475,4.5122,0.0,4.4919,4.5122,4.5703,4.4919,4.4615,4.4615,4.4615,4.4615,4.4615,4.4615,4.4282,4.391,4.391,4.3639,4.3132,4.2388,4.2185,4.2185,4.2286,4.1745,4.1451,4.2449,4.2226,4.1724,0.0,0.0,0.0,0.0,0.0,0.0,4.3391,4.313,4.269,4.2359,4.1919,4.1625,4.1625,4.0928,4.0414,4.0414,3.8982,3.8065,3.8175,3.8065,3.8434,0.0,0.0,0.0,4.1778,4.3287,4.3889,4.3497,4.4212,4.4212,4.3515,4.3515,4.3515,4.3515,4.3515,4.3938,4.4745,4.5553,4.6361,4.7149,4.7957,4.8306,4.8379,4.9114,4.9958,5.0986,5.2637,5.3203,5.3203,4.6244,4.8578,5.071,5.1251,5.3856,5.5953,5.6258,5.7002,5.8017,5.9438,6.2042,6.3024,6.1061,6.299,6.3937,6.2651,6.1061,5.9268,5.7374,5.6867,5.5209,5.1929,5.1388,4.9627,4.621,4.594,4.5534,4.4886,4.4716,4.5737,4.7838,4.5737,4.5534,4.6921,4.6921,4.6515,4.5805,4.4925,4.4959,4.55,4.4959,4.4682,4.4615,4.4818,4.4784,4.4615,4.4716,4.4682,4.4615,4.4615,4.4615,4.4615,4.4615,4.4615,4.4615,4.4615,4.4615,4.4445,4.3639,4.3375,4.3267,4.2591,4.188,4.169,4.3069,4.238,4.1639,4.2109,4.2264,4.2091,0.0,0.0,0.0,4.3409,4.3515,0.0,0.0,0.0,4.247,4.247,4.1772,0.0,0.0,3.9738,3.8505,3.7713,3.8285,0.0,0.0,0.0,0.0,4.2139,4.4378,4.5002,4.3845,0.0,4.5002,4.3791,4.3625,4.3515,4.3515,4.3515,4.3864,4.4599,4.5406,4.6214,4.7003,4.7829,4.8269,4.8636,5.0068,5.0765,5.1132,5.2527,5.3115,5.3203,4.9086,5.1251,5.2739,5.2198,5.46,5.7239,5.9066,6.052,6.1738,6.2618,6.4241,6.5155,6.4749,6.4106,6.3599,6.3328,6.1332,5.9945,5.9539,5.7239,5.5615,5.4938,5.2503,5.0338,4.8477,4.7225,4.6515,0.0,4.5224,4.5737,4.7838,4.6278,4.6312,4.7733,4.7733,4.7293,4.6515,4.519,4.4682,4.4852,4.5297,4.5128,4.475,4.594,4.5635,4.4682,4.5297,4.5128,4.4615,4.4615,4.4615,4.4615,4.4615,4.4615,4.4615,4.4615,4.4615,4.4445,4.3639,4.3375,4.3375,4.324,4.2658,4.2471,4.3878,4.3539,4.2933,4.2841,4.3237,4.3335,4.2526,0.0,0.0,0.0,0.0,0.0,0.0,0.0,4.3277,4.3277,4.258,4.1846,0.0,4.023,3.935,3.8542,3.8615,0.0,0.0,0.0,0.0,0.0,4.302,0.0,0.0,0.0,4.4469,4.5443,4.4121,4.3515,4.3515,4.3515,4.3588,4.3754,4.4562,4.5369,4.6177,4.6966,4.8122,4.939,4.9721,5.0639,5.183,5.2087,5.2637,5.3203,5.2131,5.301,5.3856,5.5006,5.7374,5.9742,6.1603,6.3802,6.4681,6.3125,6.3869,6.4106,6.2922,6.3565,6.3768,6.299,6.1197,5.9945,5.9573,5.7137,5.5547,5.5141,5.2976,5.0913,4.9052,4.7192,4.6413,4.6786,0.0,4.5534,4.8443,4.6583,4.6684,4.8477,4.8041,4.7699,4.7293,0.0,0.0,4.5737,4.5703,4.5703,4.5833,4.6515,4.6346,4.5737,4.5703,4.5466,4.5094,4.475,4.4615,4.4615,4.4615,4.4615,4.4615,4.4615,4.4615,4.4513,4.4113,4.4012,4.4012,4.4012,4.37,4.3657,4.4617,4.426,4.3696,4.3521,4.3708,4.3729,4.3214,4.3321,0.0,0.0,0.0,0.0,0.0,0.0,4.3368,4.291,4.2543,4.1992,0.0,0.0,0.0,0.0,0.0,0.0,0.0,0.0,0.0,0.0,0.0,0.0,0.0,0.0,0.0,4.4635,4.3882,4.3515,4.3515,4.3515,4.3718,4.4158,4.4966,4.5773,4.6581,4.7369,4.8453,4.9647,5.0068,5.0949,5.205,5.2454,5.2858,5.3203,5.5006,5.4972,5.5446,5.7915,6.025,6.2178,6.3328,6.5865,6.6609,6.37,6.37,6.3226,6.1264,6.3057,6.3835,6.2516,6.1129,6.0047,5.9302,5.7306,5.5784,5.4871,5.3382,5.1522,4.9289,4.7056,4.621,0.0,0.0,0.0,0.0,4.6684,4.6853,4.8511,4.8075,0.0,0.0,0.0,4.6177,4.6549,4.6278,4.6413,4.6819,4.7158,4.6989,4.6515,4.6075,4.5737,4.5365,4.4818,4.4615,4.4615,4.4615,4.4615,4.4615,4.4615,4.4615,4.4615,4.4615,4.4692,4.4776,4.4643,4.4688,4.4883,4.5222,4.5055,4.4735,4.4257,4.3966,4.3759,4.3555,4.3515,0.0,0.0,0.0,0.0,0.0,0.0,4.3204,4.2396,4.2433,4.2103,4.0965,0.0,0.0,0.0,0.0,0.0,3.8982,0.0,0.0,0.0,0.0,4.4929,4.4029,0.0,4.4929,4.4029,4.3662,4.3515,4.3515,4.3698,4.4085,4.4745,4.5553,4.6471,4.7406,4.8233,4.9187,5.0161,5.0802,5.1536,5.2344,5.2968,5.3203,5.3203,5.7306,5.8084,5.8795,5.9742,6.1806,6.3362,6.3497,6.5459,6.6779,6.644,6.5865,6.5155,6.4275,6.3835,6.3294,6.2448,6.167,6.0858,6.0047,5.8558,5.707,5.5683,5.4194,5.2334,5.0033,4.7834,4.6718,0.0,0.0,4.4993,0.0,4.6481,4.6819,0.0,0.0,0.0,0.0,4.6481,4.6346,4.5906,4.7162,4.7327,4.6955,4.8274,4.7564,4.5872,4.6481,4.5838,4.4716,4.4615,4.4615,4.4615,4.4615,4.4615,4.4615,4.4615,4.4615,4.4615,4.4615,4.4981,4.5267,4.4748,4.5407,4.6068,4.5594,4.6318,4.6693,4.5199,4.4179,4.3536,4.3497,4.3515,4.3515,0.0,0.0,0.0,0.0,0.0,4.3204,4.2396,0.0,4.2523,4.023,4.1332,0.0,0.0,3.9863,0.0,0.0,0.0,0.0,4.1095,0.0,4.4342,4.5663,4.4378,4.4378,4.5663,4.4212,4.3515,4.3515,4.4268,4.4635,4.4745,4.5553,4.6764,4.8269,4.9114,5.0381,5.1756,5.1867,5.238,5.3093,5.3167,5.3203,5.3203,6.0385,6.008,6.0317,6.2448,6.3193,6.3971,0.0,6.6609,6.732,6.688,6.617,6.5561,6.529,6.4208,6.3396,6.3091,6.1975,6.1163,6.0858,5.8998,5.7442,5.6427,5.4938,5.3281,5.1454,4.9255,4.8105,0.0,0.0,0.0,0.0,0.0,0.0,0.0,0.0,4.6278,4.5737,4.6007,4.6244,4.6447,4.7466,4.8003,4.8173,4.8781,4.8173,4.7022,4.6853,4.6143,4.5196,4.475,4.4615,4.4615,4.4615,4.4615,4.4615,4.4615,4.4615,4.4615,4.4615,4.5035,4.5372,4.4748,4.5825,4.6842,4.6209,4.7021,4.7481,4.5877,4.4473,4.3515,4.3515,4.3515,4.3515,0.0,0.0,0.0,0.0,0.0,0.0,4.1735,0.0,4.2213,4.0781,4.1625,0.0,0.0,0.0,0.0,0.0,0.0,0.0,4.1846,0.0,4.3791,4.4452,4.3845,4.3845,4.4452,4.3791,4.3754,4.4232,4.4562,4.5241,4.6195,4.6985,4.8012,4.9114,4.9463,5.0565,5.1977,5.1977,5.2491,5.3203,5.3203,5.3203,5.3203,6.2821,6.2178,6.2313,6.5087,6.4986,6.5087,6.6846,6.7387,6.7387,6.688,6.617,6.5595,6.5392,6.4444,6.3666,6.3226,6.2212,6.1535,6.1332,5.9573,5.8118,5.7171,5.5716,0.0,5.2706,5.0676,4.956,4.9323,4.8071,0.0,0.0,0.0,0.0,0.0,4.6109,4.5906,4.5703,4.594,4.6312,4.6887,4.7834,4.8545,4.9018,4.9018,4.8545,4.7804,4.7327,4.6515,4.5635,4.5094,4.4784,4.4615,4.4615,4.4615,4.4615,4.4615,4.472,4.4852,4.4852,4.5451,4.589,4.5267,4.6401,4.7377,4.6292,4.7045,4.7498,4.5883,4.4452,4.3515,4.3515,4.3515,4.3515,4.3515,0.0,0.0,0.0,4.3515,0.0,4.1625,4.2176,4.2249,4.1205,4.2029,0.0,0.0,0.0,0.0,0.0,0.0,0.0,0.0,0.0,0.0,0.0,4.3515,4.3515,4.3515,4.3515,4.3901,4.4728,4.5168,4.6159,4.748,4.8306,4.915,4.9978,5.0198,5.1116,5.2344,5.2344,5.2711,5.3203,5.3203,5.3203,5.3203,6.414,6.4546,6.5256,6.7455,6.7252,6.7015,6.776,6.7286,6.6812,6.6812,6.617,6.5425,6.4681,6.4613,6.4005,6.2516,6.2381,6.2076,6.1366,6.052,5.9404,0.0,0.0,5.5006,5.3518,5.1995,5.0845,5.0067,0.0,0.0,4.6819,0.0,4.7192,4.7838,4.7124,4.638,4.5771,4.6481,4.6786,4.6921,4.8409,4.8984,4.9018,4.9018,4.8545,4.7906,4.7872,4.6925,4.5703,4.5703,4.5196,4.4615,4.4615,4.4615,4.4615,4.4615,4.5008,4.5468,4.5468,4.6425,4.7234,4.6566,4.7327,4.7756,4.5672,4.6194,4.6672,4.5058,4.4085,4.3515,4.3515,4.3515,4.3515,4.3515,0.0,0.0,0.0,4.3515,0.0,4.2396,4.2983,4.2873,4.1242,4.2543,0.0,0.0,0.0,0.0,0.0,0.0,0.0,4.2286,4.3057,0.0,4.3515,4.3515,4.3515,4.3515,4.3515,4.3901,4.4728,4.6342,4.7516,4.8343,4.9206,5.0051,5.0839,5.1646,5.2454,5.3188,5.3188,5.3167,5.3203,5.3203,5.3203,5.3203,6.5764,6.6102,6.6339,6.7049,6.6981,6.688,6.7117,6.6948,6.6812,6.6812,6.6609,6.5967,6.4749,6.4174,6.3666,0.0,6.2245,6.1535,0.0,6.008,5.893,5.7915,5.6494,5.5243,5.4262,5.2739,5.1589,5.0845,0.0,0.0,0.0,4.8308,4.7902,4.7158,4.6887,4.665,4.6481,4.6684,4.709,4.7597,4.8071,4.8578,4.9018,4.9018,4.8545,4.7906,4.7906,4.6955,4.5703,4.5703,4.5196,4.4615,4.4615,4.4615,4.4665,4.5089,4.5346,4.5597,4.6014,4.6751,4.7255,4.6589,4.7349,4.7875,4.6248,4.5662,4.5315,4.4801,4.4048,4.3515,4.3515,4.3515,4.3515,4.3515,4.3515,0.0,0.0,0.0,4.3204,4.2396,4.302,4.3057,4.2029,4.2873,0.0,0.0,0.0,0.0,0.0,0.0,0.0,0.0,4.3351,0.0,4.3515,4.4048,4.4305,4.4305,4.4856,4.5553,4.6379,4.7406,4.8086,4.8343,4.9243,5.0068,5.0875,5.1683,5.2454,5.3203,5.3203,5.3203,5.3203,5.3203,5.3203,5.3203,6.6576,6.6812,6.6914,6.7184,6.6981,6.6914,6.7184,6.6981,6.6711,6.644,6.6406,6.5831,6.4343,6.3802,0.0,6.3125,6.2009,6.1298,6.1298,5.9877,5.8795,5.8321,5.663,5.548,5.5006,5.3518,0.0,5.2063,5.1455,5.0744,4.983,4.9255,4.8646,4.8003,4.7462,4.7225,4.7225,4.7225,4.7496,4.7906,4.8206,4.8612,4.9018,4.9018,4.8714,4.8311,4.8311,4.7564,4.6481,4.621,4.5805,4.5393,4.5094,4.5156,4.5384,4.5468,4.5673,4.5965,4.6577,4.7277,4.7653,4.7219,4.77,4.799,4.6815,4.535,4.4342,4.4635,4.4048,4.3515,4.3515,4.3515,4.3515,4.3515,4.3515,4.3515,4.3515,0.0,4.3314,0.0,0.0,0.0,0.0,4.3221,4.3515,0.0,0.0,0.0,0.0,0.0,0.0,4.3515,4.3515,0.0,4.3515,4.4305,4.4691,4.4709,4.581,4.6599,4.7149,4.8269,4.8783,4.8857,4.9994,5.0765,5.1316,5.2123,5.2747,5.3203,5.3203,5.3203,5.3203,5.3203,5.3203,5.3203,6.6677,6.6812,6.7015,0.0,6.7252,0.0,6.7726,6.7252,6.6542,6.5797,6.5696,6.5121,6.3666,6.3531,6.3193,6.2448,0.0,0.0,0.0,5.9776,5.893,5.893,5.6867,5.5681,5.5681,5.4262,5.3518,5.3518,5.2063,5.1352,5.1251,4.9864,4.9526,5.0033,4.868,4.8007,4.7973,4.7906,4.7906,4.8007,4.868,4.8951,4.9018,4.9018,4.9018,4.9018,4.9018,4.8545,4.777,4.7056,4.6786,4.668,4.5998,4.6165,4.6464,4.5823,4.6024,4.66,4.7299,4.7858,4.8306,4.8306,4.8269,4.8012,4.7186,4.5259,4.3791,4.4488,4.4011,4.3515,4.3515,4.3515,4.3515,4.3515,4.3515,4.3515,4.3515,0.0,4.3515,0.0,0.0,0.0,0.0,4.3515,4.3515,0.0,0.0,0.0,0.0,0.0,4.3551,4.3515,4.3551,4.3588,4.3588,4.4452,4.4874,4.4948,4.6526,4.7259,4.7333,4.893,4.9684,4.9757,5.1336,5.1977,5.205,5.2858,5.3203,5.3203,5.3203,5.3203,5.3203,5.3203,5.3203,5.3203,0.0,0.0,6.688,6.7049,6.6914,6.688,6.7049,6.6914,6.6542,6.5797,6.5696,6.5121,6.3666,6.3531,6.3193,6.2448,6.1163,6.0385,6.0385,5.8998,5.8152,5.8152,5.6596,5.5681,5.5681,5.4262,5.3518,5.3518,5.3145,5.2638,5.2029,5.1691,5.1014,5.0067,4.9729,4.9255,4.8714,4.8142,4.821,4.8714,4.8342,4.8511,4.9018,4.9018,4.9018,4.9018,4.9018,4.8545,4.777,4.7056,4.6786,4.6767,4.6536,4.6531,4.6647,4.6986,4.7121,4.732,4.7899,4.8173,4.8306,4.8306,4.7846,4.7149,4.6361,4.5259,4.4305,4.3864,4.3608,4.3515,4.3515,4.3515,4.3515,4.3515,4.3515,4.3515,4.3515,4.3515,0.0,0.0,4.3515,4.3515,4.3515,4.3515,4.3754,0.0,0.0,0.0,0.0,4.4415,4.4121,4.3515,4.4085,4.4415,4.4415,4.5828,4.6819,4.7462,4.8489,4.9003,4.904,5.0031,5.0508,5.0582,5.1573,5.1977,5.205,5.2858,5.3203,5.3203,5.3203,5.3203,5.3203,5.3203,5.3203,5.3203,6.6677,6.6542,6.6406,6.6745,6.6812,6.6812,6.6812,6.6812,6.6406,6.5324,6.5189,6.4647,6.3159,6.299,6.2685,6.1941,6.0791,6.0114,6.0114,5.8727,5.7881,5.7881,5.6494,5.5681,5.5681,5.4262,5.3518,5.3518,5.3518,5.3281,5.2841,5.2469,5.1691,5.0574,5.0236,4.9695,4.8984,4.8578,4.8646,4.8984,4.8578,4.8646,4.9018,4.9018,4.9018,4.8951,4.8612,4.8477,4.824,4.7158,4.7225,4.7781,4.7727,4.7639,4.7697,4.8366,4.8021,4.7512,4.8134,4.8306,4.8306,4.8306,4.77,4.7003,4.6544,4.5553,4.4599,4.4158,4.3754,4.3515,4.3515,4.3515,4.3515,4.3515,4.3515,4.3515,4.3515,4.3515,0.0,4.3515,4.3515,4.3515,4.3515,4.3515,4.3681,4.4121,4.3754,0.0,4.4672,4.4691,4.4525,4.4048,4.4819,4.5259,4.5259,4.6489,4.77,4.8893,4.939,4.9794,5.0178,5.0986,5.1353,5.1389,5.2197,5.2564,5.2564,5.3041,5.3203,5.3203,5.3203,5.3203,5.3203,5.3203,5.3203,5.3203,6.6508,6.6203,6.6068,6.6711,6.6812,6.6812,6.6812,6.6711,6.6136,6.4783,6.4512,6.3903,6.255,6.2381,6.211,6.1366,6.0554,6.0047,5.9945,5.866,5.7881,5.7881,5.6494,5.5681,5.5681,5.4262,5.3518,5.3518,5.3518,5.3518,5.3484,5.2807,5.2097,5.1352,5.0608,4.9864,4.9154,4.9052,4.9018,4.9018,4.9018,4.9018,4.9018,4.9018,4.9018,4.8917,4.8308,4.8477,4.8781,4.7428,4.7958,4.912,4.9076,4.9047,4.9148,4.9676,4.8851,4.7819,4.819,4.8306,4.8306,4.8306,4.7773,4.7259,4.7113,4.5938,4.4856,4.4728,4.4048,4.3515,4.3515,4.3515,4.3515,4.3515,4.3515,4.3515,4.3515,0.0,4.3551,4.3644,4.3681,4.3718,4.3845,4.3864,4.3901,4.4011,4.3955,4.4195,4.5021,4.5186,4.5168,4.5058,4.5736,4.6214,4.6471,4.7131,4.8269,4.9794,4.9904,5.0345,5.1022,5.1793,5.216,5.2197,5.2894,5.3203,5.3203,5.3203,5.3203,5.3203,5.3203,5.3203,5.3203,5.3203,5.3277,5.3371,6.5831,6.6271,6.6677,6.6779,6.6812,6.6812,6.6812,6.6271,6.5561,6.4715,6.4072,6.3362,6.2482,6.2381,6.211,6.1366,6.0554,5.9844,5.9235,5.8355,5.7881,5.7881,5.6494,5.5681,5.5681,5.4262,5.3518,5.3518,5.3518,5.3518,5.3518,5.3382,5.2909,5.2097,5.1386,5.0642,4.9864,4.9255,4.9018,4.9018,4.9018,4.9018,4.9018,4.9018,4.9018,4.8984,4.8883,4.8917,4.8883,4.8037,4.8689,4.9837,4.9838,5.0171,5.0551,5.0602,4.9984,4.9145,4.847,4.8306,4.8306,4.8306,4.8233,4.792,4.7259,4.6379,4.5516,4.4838,4.4048,4.3515,4.3515,4.3515,4.3515,4.3515,4.3515,4.3515,4.3515,0.0,4.3754,4.4452,4.4525,4.4782,4.5443,4.5516,4.581,4.6489,4.592,4.5883,4.6672,4.7369,4.7425,4.6746,4.6856,4.7609,4.9023,4.917,4.9664,5.0618,5.1279,5.1683,5.183,5.2637,5.3004,5.3041,5.313,5.3203,5.3203,5.3203,5.3203,5.3203,5.3203,5.3203,5.3203,5.3203,5.3628,5.4106,6.6203,6.6237,6.6339,6.6745,6.6812,6.6812,6.6812,6.6508,6.5899,6.4749,6.4309,6.3666,6.2516,6.2381,6.1907,6.0757,6.0317,5.9607,5.849,5.8084,5.7881,5.7881,5.6867,5.5919,5.5108,5.4059,5.3518,5.3518,5.3518,5.3518,5.3518,5.3518,5.3078,5.2266,5.1555,5.0811,5.0033,4.9323,4.9018,4.9018,4.9018,4.9018,4.9018,4.9018,4.9018,4.8951,4.8545,4.868,4.8944,4.8577,4.9131,5.0133,5.0891,5.1012,5.0868,5.0822,4.9884,4.882,4.8416,4.8306,4.8306,4.8306,4.8306,4.8086,4.7259,4.6819,4.6214,4.4966,4.4415,4.4011,4.3588,4.3515,4.3644,4.4085,4.3791,0.0,0.0,4.4158,4.4268,4.4672,4.5076,4.548,4.5847,4.5883,4.6067,4.6434,4.6104,4.625,4.7076,4.7846,4.8122,4.7736,4.8196,4.882,4.961,5.0031,5.0435,5.0802,5.161,5.2234,5.2674,5.3041,5.3203,5.3203,5.3203,5.3203,5.3203,5.3203,5.3203,5.3203,5.3203,5.3203,5.324,5.3702,5.4069,5.4399,6.6406,6.6102,6.5933,6.6677,6.6812,6.6812,6.6812,6.6508,6.5899,6.4749,6.4309,6.3666,6.2516,6.2381,6.1839,6.0486,6.0216,5.9539,5.822,5.7983,5.7881,5.7881,5.7171,5.6122,5.4634,5.4059,5.3687,5.3518,5.3518,5.3518,5.3518,5.3518,5.3179,5.2536,5.1623,5.0913,5.0304,4.939,4.9018,4.9018,4.9018,4.9018,4.9049,4.9199,4.9226,4.9188,4.8787,4.9012,4.9478,4.9424,4.9901,5.0689,5.1765,5.1808,5.1375,5.1156,5.0031,4.8857,4.8636,4.86,4.86,4.86,4.8453,4.8159,4.7516,4.7223,4.6746,4.5498,4.5095,4.4782,4.4158,4.4048,4.4195,4.4635,0.0,0.0,0.0,4.4691,4.4838,4.5205,4.5993,4.6544,4.6728,4.6911,4.7021,4.7021,4.7021,4.7315,4.792,4.8746,4.926,4.9444,4.9517,4.9794,5.0161,5.0765,5.1169,5.1389,5.1977,5.2601,5.3203,5.3203,5.3203,5.3203,5.3203,5.3203,5.3203,5.3203,5.3203,5.3203,5.3408,5.3482,5.3592,5.4363,5.4803,5.5023,6.5628,6.573,6.5933,6.6677,6.6812,6.6812,6.6812,6.5662,6.4715,6.4613,6.3396,6.2516,6.2415,6.2381,6.2076,6.1298,6.052,5.9776,5.8998,5.8287,5.7881,5.7881,5.7171,5.6122,5.4634,5.4532,5.416,5.3518,5.3518,5.3518,5.3518,5.3518,5.3484,5.3348,5.186,5.1183,5.1048,4.9593,4.9018,4.9018,4.9018,4.9018,4.9077,4.9693,4.9919,5.0004,5.0619,5.0894,5.0955,5.0937,5.1408,5.1934,5.2065,5.254,5.2868,5.2123,5.1279,5.0435,4.9721,4.95,4.95,4.95,4.8893,4.8269,4.8233,4.7626,4.7076,4.6966,4.6324,4.5773,4.5736,4.57,4.5516,4.4801,0.0,0.0,4.4691,4.4691,4.5241,4.6746,4.7626,4.8453,4.9243,4.9994,5.0435,5.0435,5.0435,5.0472,5.0508,5.1279,5.2087,5.28,5.0729,5.0308,5.1793,5.1867,5.2307,5.3041,5.3078,5.313,5.3203,5.3203,5.3203,5.3203,5.3203,5.3203,5.3203,5.3203,5.3203,5.3298,5.4032,5.4326,5.4399,5.5207,5.5978,5.6528,6.5628,6.6068,6.6474,6.6779,6.644,6.6102,6.6102,6.5256,6.4444,6.4005,6.3429,6.2922,6.2448,6.2381,6.211,6.1366,6.0554,5.981,5.9066,5.8321,5.7881,5.7881,5.7171,5.6325,5.531,5.4837,5.4228,5.3518,5.3518,5.3518,5.3518,5.3518,5.3518,5.345,5.1894,5.1185,5.1083,4.9627,4.9018,4.9018,4.9018,4.9256,4.9634,4.989,5.0279,5.0716,5.1008,5.1086,5.1164,5.1569,5.1862,5.2183,5.2621,5.2959,5.3041,5.2234,5.1756,5.1463,5.1189,5.0729,5.0215,4.9721,4.9738,4.9591,4.8563,4.8489,4.8343,4.7296,4.6856,4.6636,4.6636,4.625,4.614,4.6838,0.0,4.5626,4.6122,4.6195,4.6599,4.77,4.86,4.9407,5.0251,5.0618,5.0802,5.0802,5.0802,5.0802,5.0802,5.1096,5.1867,5.3188,5.183,5.1353,5.1977,5.2491,5.2637,5.2454,5.2968,5.3203,5.3203,5.3203,5.3203,5.3203,5.3203,5.3203,5.3203,5.3203,5.3203,5.3203,5.3555,5.3959,5.4509,5.528,5.6088,5.6822,6.5628,6.6102,6.644,6.644,6.6034,6.5595,6.5392,6.4715,6.4072,6.3599,6.3294,6.2956,6.2448,6.2381,6.211,6.1366,6.0554,5.981,5.9066,5.8321,5.7881,5.7881,5.7408,5.6697,5.575,5.5209,5.4465,5.3518,5.3518,5.3518,5.3518,5.3518,5.3518,5.345,5.2131,5.1555,5.1488,5.0236,4.9695,4.9726,4.9971,5.0189,5.0443,5.085,5.1184,5.1444,5.1679,5.1752,5.1825,5.2289,5.2427,5.2531,5.306,5.3203,5.3115,5.2527,5.238,5.238,5.238,5.1977,5.1353,5.0545,5.0582,5.0508,4.937,4.9554,4.9627,4.8526,4.825,4.825,4.825,4.7829,4.7719,4.8563,4.7792,4.7241,4.7829,4.7902,4.8196,4.9003,4.9848,5.0565,5.1132,5.1426,5.1573,5.1573,5.1573,5.1573,5.1573,5.1573,5.205,5.3167,5.2674,5.238,5.238,5.2931,5.2931,5.238,5.2931,5.3203,5.3203,5.3203,5.3203,5.3203,5.3482,5.3592,5.3592,5.3849,5.3959,5.3995,5.4252,5.4693,5.5244,5.6051,5.6712,5.7262,6.5527,6.5696,6.5696,6.5696,6.5696,6.5425,6.4715,6.3971,6.3497,6.3531,6.2854,6.2381,6.2381,6.2381,6.211,6.1366,6.0554,5.981,5.9066,5.8321,5.7881,5.7881,5.7881,5.7205,5.575,5.5681,5.5006,5.3518,5.3518,5.3518,5.3518,5.3518,5.3518,5.345,5.2672,5.23,5.2266,5.1522,5.1185,5.1282,5.2084,5.1933,5.1384,5.2773,5.2822,5.2219,5.2974,5.3203,5.3203,5.3203,5.3203,5.3203,5.3203,5.3203,5.3203,5.3203,5.3203,5.3203,5.3203,5.3203,5.3004,5.2197,5.1389,5.0839,5.0802,5.0802,5.0802,5.0802,5.0802,5.0802,5.0802,5.0802,5.0545,4.9757,4.961,4.961,4.961,4.961,4.9904,5.0729,5.1499,5.1977,5.2013,5.2747,5.3203,5.3203,5.3203,5.3203,5.3203,5.3203,5.3203,5.3203,5.3203,5.3203,5.3203,5.3203,5.3203,5.3203,5.3203,5.3203,5.3203,5.3203,5.3203,5.3261,5.4032,5.4399,5.4473,5.5244,5.5574,5.5706,5.6492,5.6785,5.6895,5.7703,5.7997,5.7997,6.4884,6.5324,6.5865,6.6373,6.5628,6.5019,6.5324,6.3869,6.2922,6.3463,6.2854,6.2381,6.2381,6.2381,6.211,6.1366,6.1095,6.0385,5.9099,5.8321,5.7881,5.7881,5.7881,5.7442,5.6494,5.5987,5.5243,5.4262,5.3754,5.3518,5.3518,5.3518,5.3518,5.345,5.2672,5.23,5.2266,5.1522,5.1185,5.1217,5.1471,5.2032,5.2795,5.3194,5.3855,5.4582,5.4811,5.4876,5.4876,5.4876,5.4509,5.3959,5.3408,5.3592,5.3922,5.335,5.3203,5.3203,5.3203,5.3203,5.3004,5.2197,5.2234,5.2197,5.1059,5.1242,5.1463,5.0912,5.0802,5.0986,5.1536,5.1169,5.0912,5.1206,5.0802,5.0435,5.0435,5.0435,5.0729,5.1536,5.183,5.2197,5.2784,5.3078,5.3203,5.3203,5.3203,5.3203,5.3203,5.3203,5.3203,5.3203,5.3203,5.3203,5.3203,5.3203,5.3203,5.3203,5.3203,5.3203,5.3203,5.3203,5.3203,5.3203,5.3445,5.3885,5.4436,5.4656,5.5097,5.5611,5.5868,5.6308,5.6822,5.7079,5.7519,5.7997,6.4546,6.5189,6.5831,6.6305,6.5628,6.4986,6.485,6.37,6.2888,6.3057,6.2685,6.2381,6.2381,6.2381,6.211,6.1366,6.0757,6.0013,5.9066,5.8321,5.7881,5.7881,5.7881,5.7543,5.6833,5.6359,5.5649,5.46,5.416,5.3788,5.3518,5.3518,5.3518,5.3484,5.2976,5.2773,5.2739,5.23,5.2131,5.2163,5.2452,5.3043,5.3847,5.4207,5.4857,5.5596,5.5596,5.5596,5.5596,5.5596,5.528,5.4803,5.4289,5.4473,5.4766,5.4289,5.4142,5.4142,5.4142,5.4142,5.4032,5.3555,5.3298,5.2968,5.1977,5.2123,5.2344,5.1867,5.1756,5.1903,5.238,5.2087,5.1903,5.2417,5.2087,5.1756,5.1756,5.1756,5.194,5.2417,5.2454,5.2674,5.313,5.3203,5.3203,5.3203,5.3203,5.3203,5.3203,5.3203,5.3203,5.3203,5.3203,5.3203,5.3203,5.3203,5.3203,5.3203,5.3203,5.335,5.3665,5.3371,5.3555,5.4142,5.4142,5.462,5.539,5.5684,5.6088,5.6528,5.6528,5.6859,5.7262,5.7262,5.7593,5.7997,6.4377,6.5019,6.5493,6.5561,6.5527,6.5087,6.3903,6.3599,6.3294,6.2685,6.2516,6.2448,6.2381,6.2381,6.211,6.1366,5.9945,5.9099,5.9099,5.8423,5.7949,5.7881,5.7881,5.7577,5.69,5.6833,5.6122,5.4702,5.4634,5.4228,5.3518,5.3518,5.3518,5.3518,5.3518,5.3518,5.3518,5.3518,5.3518,5.3551,5.4232,5.455,5.4662,5.5398,5.5741,5.5794,5.5794,5.5794,5.5794,5.5721,5.578,5.5816,5.5669,5.5669,5.5684,5.5611,5.5596,5.5596,5.5596,5.5596,5.5596,5.5596,5.4509,5.3387,5.3314,5.3314,5.3314,5.3314,5.3371,5.3408,5.3408,5.3408,5.3408,5.3314,5.3314,5.3277,5.3203,5.3203,5.3203,5.3203,5.3203,5.3203,5.3203,5.3203,5.3203,5.3203,5.3203,5.3203,5.3203,5.3203,5.3203,5.3203,5.3203,5.3203,5.3314,5.3314,5.3314,5.3314,5.3314,5.3739,5.4473,5.3739,5.4216,5.5596,5.5596,5.6051,5.6859,5.7593,5.7923,5.7997,5.7997,5.7997,5.7997,5.7997,5.7997,5.7997,6.3734,6.3869,6.4174,6.4749,6.4377,6.4275,6.5087,6.4241,6.3666,6.4072,6.3632,6.3057,6.2448,6.2381,6.211,6.1366,6.0419,5.9877,5.9877,5.9167,5.849,5.7915,5.7881,5.7814,5.7645,5.7103,5.6359,5.548,5.4871,5.4228,5.3518,5.3518,5.3518,5.3518,5.3518,5.3518,5.3518,5.3518,5.3518,5.3484,5.3651,5.4409,5.5476,5.5644,5.6428,5.7483,5.7483,5.7483,5.7373,5.6748,5.6969,5.7262,5.5978,5.6014,5.6418,5.5757,5.5596,5.5596,5.5596,5.5596,5.5596,5.5596,5.5317,5.4913,5.4289,5.4142,5.4142,5.4142,5.462,5.506,5.506,5.506,5.4876,5.4252,5.4142,5.3922,5.3277,5.3203,5.3203,5.3203,5.3203,5.3203,5.3203,5.3203,5.3203,5.3203,5.3203,5.3203,5.3203,5.3203,5.3203,5.3203,5.3203,5.3518,5.4142,5.4142,5.4142,5.4142,5.4142,5.4546,5.5317,5.5133,5.5244,5.5596,5.5596,5.6051,5.6822,5.7005,5.7446,5.7997,5.7997,5.7997,5.7997,5.7997,5.7997,5.7997,6.4038,6.4038,6.414,6.4546,6.4275,6.4275,6.5053,6.4512,6.4038,6.4072,6.3768,6.3226,6.2482,6.2381,6.2245,6.1839,6.1129,6.0655,6.0655,5.9945,5.9201,5.8457,5.8423,5.8254,5.7881,5.7509,5.6968,5.6224,5.548,5.4735,5.4025,5.3653,5.3518,5.3518,5.3518,5.3518,5.3518,5.3518,5.3518,5.3518,5.3518,5.4391,5.5724,5.5724,5.6659,5.7997,5.7997,5.7997,5.7923,5.7519,5.7666,5.785,5.7005,5.7042,5.7299,5.6859,5.6748,5.6748,5.6748,5.6748,5.6748,5.6748,5.6455,5.5941,5.517,5.495,5.495,5.495,5.5317,5.5596,5.5596,5.5596,5.5486,5.5023,5.4656,5.4252,5.3849,5.3445,5.3203,5.3203,5.3555,5.3775,5.3775,5.3424,5.3203,5.3203,5.3203,5.3203,5.3203,5.3555,5.3775,5.3775,5.4142,5.4546,5.495,5.495,5.517,5.5537,5.517,5.539,5.6161,5.5757,5.6014,5.6712,5.6345,5.6638,5.7373,5.7373,5.7629,5.7997,5.7997,5.7997,5.7997,5.7997,5.7997,5.7997,6.4377,6.4309,6.4275,6.4377,6.4309,6.4275,6.441,6.441,6.4208,6.3599,6.3531,6.3226,6.2482,6.2381,6.2381,6.2381,6.1839,6.1434,6.1298,6.0689,5.9979,5.9235,5.9099,5.8727,5.8084,5.7949,5.7543,5.6799,5.6089,5.5344,5.4566,5.3856,5.3518,5.3518,5.3518,5.3518,5.3518,5.3518,5.3518,5.3518,5.3518,5.4391,5.5724,5.5724,5.6659,5.7997,5.7997,5.7997,5.7997,5.7997,5.7997,5.7997,5.7997,5.7997,5.7997,5.7997,5.7997,5.7997,5.7997,5.7997,5.7997,5.7997,5.7483,5.6822,5.6161,5.5904,5.5794,5.5794,5.5904,5.6037,5.6037,5.6037,5.5978,5.5831,5.5244,5.4766,5.462,5.4032,5.3628,5.3628,5.4069,5.4399,5.4399,5.3812,5.3408,5.3408,5.3408,5.3408,5.3408,5.4032,5.4473,5.4583,5.5244,5.5647,5.5794,5.5794,5.6198,5.7005,5.6308,5.6345,5.6969,5.6308,5.6748,5.796,5.7299,5.7373,5.7997,5.7997,5.7997,5.7997,5.7997,5.7997,5.7997,5.7997,5.7997,5.7997,6.3531,6.3125,6.2888,6.3565,6.3125,6.2888,6.3565,6.3666,6.3632,6.3531,6.3531,6.3226,6.2482,6.2381,6.2381,6.2381,6.2313,6.1975,6.1332,6.1197,6.0791,5.9979,5.9336,5.8964,5.8863,5.822,5.7543,5.6799,5.6089,5.5344,5.4566,5.3856,5.3518,5.3518,5.3518,5.3518,5.3518,5.3518,5.3518,5.3518,5.3518,5.4391,5.5724,5.5724,5.6659,5.7997,5.7997,5.7997,5.7997,5.7997,5.7997,5.7997,5.7997,5.7997,5.7997,5.7997,5.7997,5.7997,5.7997,5.7997,5.7997,5.7997,5.7923,5.7813,5.7703,5.7152,5.6638,5.6638,5.7189,5.7666,5.7666,5.7666,5.7446,5.6748,5.6565,5.6235,5.5537,5.5317,5.528,5.528,5.4766,5.4399,5.4399,5.4289,5.4252,5.4252,5.4252,5.4252,5.4252,5.4326,5.473,5.5427,5.5559,5.5941,5.6638,5.6638,5.7042,5.785,5.774,5.774,5.7813,5.774,5.7776,5.7997,5.7886,5.7886,5.7997,5.7997,5.7997,5.7997,5.7997,5.7997,5.7997,5.7997,5.7997,5.7997,6.3599,6.3565,6.3463,6.2956,6.2618,6.2651,6.3396,6.3531,6.3531,6.3531,6.3531,6.3226,6.2482,6.2381,6.2381,6.2381,6.2381,6.2245,6.1941,6.1907,6.1366,6.0148,5.981,5.9235,5.8389,5.8051,5.7712,5.7408,5.6697,5.6156,5.5784,5.4634,5.4126,5.4093,5.3687,5.3518,5.3518,5.3518,5.3518,5.3518,5.3518,5.4391,5.5724,5.5724,5.6659,5.7997,5.7997,5.7997,5.7997,5.7997,5.7997,5.7997,5.7997,5.7997,5.7997,5.7997,5.7997,5.7997,5.7997,5.7997,5.7997,5.7997,5.7997,5.7997,5.7997,5.774,5.7483,5.7483,5.774,5.7997,5.7997,5.7997,5.7886,5.7519,5.7079,5.6675,5.6308,5.5868,5.5757,5.6235,5.5574,5.5244,5.5684,5.5317,5.506,5.506,5.506,5.506,5.506,5.55,5.5904,5.6271,5.6712,5.7116,5.7483,5.7483,5.7666,5.7997,5.7997,5.7997,5.7997,5.7997,5.7997,5.7997,5.7997,5.7997,5.7997,5.7997,5.7997,5.7997,5.7997,5.7997,5.7997,5.7997,5.7997,5.7997]}]]